<?xml version="1.0" encoding="UTF-8" standalone="no" ?>
<gpx xmlns="http://www.topografix.com/GPX/1/1" xmlns:xsi="http://www.w3.org/2001/XMLSchema-instance" xsi:schemaLocation="http://www.topografix.com/GPX/1/1 http://www.topografix.com/GPX/1/1/gpx.xsd" version="1.1" creator="VisuGPX - https://www.visugpx.com">
  <metadata>
    <name>Kilian's Classik - Trail des Lacs de Font Romeu</name>
  </metadata>
  <trk>
    <name><![CDATA[Kilian's Classik - Trail des Lacs de Font Romeu]]></name>
    <trkseg>
      <trkpt lat="42.5052" lon="2.04265">
        <ele>1761.77</ele>
        <time>2021-10-20T22:00:16Z</time>
      </trkpt>
      <trkpt lat="42.50526" lon="2.04304">
        <ele>1763.83</ele>
        <time>2021-10-20T22:00:16Z</time>
      </trkpt>
      <trkpt lat="42.5053" lon="2.04333">
        <ele>1765.23</ele>
        <time>2021-10-20T22:00:16Z</time>
      </trkpt>
      <trkpt lat="42.50528" lon="2.0436">
        <ele>1765.68</ele>
        <time>2021-10-20T22:00:16Z</time>
      </trkpt>
      <trkpt lat="42.50527" lon="2.04384">
        <ele>1766.58</ele>
        <time>2021-10-20T22:00:16Z</time>
      </trkpt>
      <trkpt lat="42.50522" lon="2.04407">
        <ele>1766.63</ele>
        <time>2021-10-20T22:00:16Z</time>
      </trkpt>
      <trkpt lat="42.5052" lon="2.04429">
        <ele>1767.42</ele>
        <time>2021-10-20T22:00:16Z</time>
      </trkpt>
      <trkpt lat="42.50517" lon="2.04451">
        <ele>1768.14</ele>
        <time>2021-10-20T22:00:16Z</time>
      </trkpt>
      <trkpt lat="42.5052" lon="2.04465">
        <ele>1769.49</ele>
        <time>2021-10-20T22:00:16Z</time>
      </trkpt>
      <trkpt lat="42.50527" lon="2.04484">
        <ele>1771.66</ele>
        <time>2021-10-20T22:00:16Z</time>
      </trkpt>
      <trkpt lat="42.50541" lon="2.04496">
        <ele>1773.9</ele>
        <time>2021-10-20T22:00:16Z</time>
      </trkpt>
      <trkpt lat="42.50555" lon="2.04503">
        <ele>1776.02</ele>
        <time>2021-10-20T22:00:16Z</time>
      </trkpt>
      <trkpt lat="42.50568" lon="2.04506">
        <ele>1777.96</ele>
        <time>2021-10-20T22:00:16Z</time>
      </trkpt>
      <trkpt lat="42.5058" lon="2.04497">
        <ele>1779.91</ele>
        <time>2021-10-20T22:00:16Z</time>
      </trkpt>
      <trkpt lat="42.50583" lon="2.04483">
        <ele>1780.62</ele>
        <time>2021-10-20T22:00:16Z</time>
      </trkpt>
      <trkpt lat="42.50591" lon="2.04462">
        <ele>1781.42</ele>
        <time>2021-10-20T22:00:16Z</time>
      </trkpt>
      <trkpt lat="42.50595" lon="2.04442">
        <ele>1781.68</ele>
        <time>2021-10-20T22:00:16Z</time>
      </trkpt>
      <trkpt lat="42.506" lon="2.04429">
        <ele>1782.32</ele>
        <time>2021-10-20T22:00:16Z</time>
      </trkpt>
      <trkpt lat="42.50606" lon="2.04406">
        <ele>1783.04</ele>
        <time>2021-10-20T22:00:16Z</time>
      </trkpt>
      <trkpt lat="42.50614" lon="2.04384">
        <ele>1784.05</ele>
        <time>2021-10-20T22:00:16Z</time>
      </trkpt>
      <trkpt lat="42.50619" lon="2.04368">
        <ele>1784.59</ele>
        <time>2021-10-20T22:00:16Z</time>
      </trkpt>
      <trkpt lat="42.50624" lon="2.04357">
        <ele>1785.25</ele>
        <time>2021-10-20T22:00:16Z</time>
      </trkpt>
      <trkpt lat="42.50628" lon="2.04339">
        <ele>1786.03</ele>
        <time>2021-10-20T22:00:16Z</time>
      </trkpt>
      <trkpt lat="42.50635" lon="2.04323">
        <ele>1787.75</ele>
        <time>2021-10-20T22:00:16Z</time>
      </trkpt>
      <trkpt lat="42.50644" lon="2.04327">
        <ele>1789.2</ele>
        <time>2021-10-20T22:00:16Z</time>
      </trkpt>
      <trkpt lat="42.50653" lon="2.04302">
        <ele>1792.05</ele>
        <time>2021-10-20T22:00:16Z</time>
      </trkpt>
      <trkpt lat="42.50654" lon="2.04287">
        <ele>1793.02</ele>
        <time>2021-10-20T22:00:16Z</time>
      </trkpt>
      <trkpt lat="42.50656" lon="2.04273">
        <ele>1793.99</ele>
        <time>2021-10-20T22:00:16Z</time>
      </trkpt>
      <trkpt lat="42.50657" lon="2.04255">
        <ele>1794.31</ele>
        <time>2021-10-20T22:00:16Z</time>
      </trkpt>
      <trkpt lat="42.50657" lon="2.04243">
        <ele>1794.37</ele>
        <time>2021-10-20T22:00:16Z</time>
      </trkpt>
      <trkpt lat="42.50657" lon="2.04225">
        <ele>1794.46</ele>
        <time>2021-10-20T22:00:16Z</time>
      </trkpt>
      <trkpt lat="42.50659" lon="2.0421">
        <ele>1795.03</ele>
        <time>2021-10-20T22:00:16Z</time>
      </trkpt>
      <trkpt lat="42.50672" lon="2.04211">
        <ele>1798.23</ele>
        <time>2021-10-20T22:00:16Z</time>
      </trkpt>
      <trkpt lat="42.50685" lon="2.04212">
        <ele>1800.82</ele>
        <time>2021-10-20T22:00:16Z</time>
      </trkpt>
      <trkpt lat="42.507" lon="2.04215">
        <ele>1802.99</ele>
        <time>2021-10-20T22:00:16Z</time>
      </trkpt>
      <trkpt lat="42.50709" lon="2.04215">
        <ele>1804.31</ele>
        <time>2021-10-20T22:00:16Z</time>
      </trkpt>
      <trkpt lat="42.50718" lon="2.04216">
        <ele>1805.63</ele>
        <time>2021-10-20T22:00:16Z</time>
      </trkpt>
      <trkpt lat="42.50731" lon="2.04219">
        <ele>1807.53</ele>
        <time>2021-10-20T22:00:16Z</time>
      </trkpt>
      <trkpt lat="42.50739" lon="2.04228">
        <ele>1808.7</ele>
        <time>2021-10-20T22:00:16Z</time>
      </trkpt>
      <trkpt lat="42.50748" lon="2.04236">
        <ele>1810.04</ele>
        <time>2021-10-20T22:00:16Z</time>
      </trkpt>
      <trkpt lat="42.50758" lon="2.04248">
        <ele>1811.46</ele>
        <time>2021-10-20T22:00:16Z</time>
      </trkpt>
      <trkpt lat="42.50764" lon="2.04262">
        <ele>1812.46</ele>
        <time>2021-10-20T22:00:16Z</time>
      </trkpt>
      <trkpt lat="42.50768" lon="2.04275">
        <ele>1813.23</ele>
        <time>2021-10-20T22:00:16Z</time>
      </trkpt>
      <trkpt lat="42.50773" lon="2.04287">
        <ele>1813.78</ele>
        <time>2021-10-20T22:00:16Z</time>
      </trkpt>
      <trkpt lat="42.5079" lon="2.04295">
        <ele>1816.48</ele>
        <time>2021-10-20T22:00:16Z</time>
      </trkpt>
      <trkpt lat="42.50804" lon="2.04295">
        <ele>1818.88</ele>
        <time>2021-10-20T22:00:16Z</time>
      </trkpt>
      <trkpt lat="42.50816" lon="2.04297">
        <ele>1820.94</ele>
        <time>2021-10-20T22:00:16Z</time>
      </trkpt>
      <trkpt lat="42.50827" lon="2.04296">
        <ele>1822.82</ele>
        <time>2021-10-20T22:00:16Z</time>
      </trkpt>
      <trkpt lat="42.50842" lon="2.04296">
        <ele>1825.38</ele>
        <time>2021-10-20T22:00:16Z</time>
      </trkpt>
      <trkpt lat="42.50858" lon="2.04296">
        <ele>1828.11</ele>
        <time>2021-10-20T22:00:16Z</time>
      </trkpt>
      <trkpt lat="42.50876" lon="2.04297">
        <ele>1831.17</ele>
        <time>2021-10-20T22:00:16Z</time>
      </trkpt>
      <trkpt lat="42.50895" lon="2.04296">
        <ele>1834.39</ele>
        <time>2021-10-20T22:00:16Z</time>
      </trkpt>
      <trkpt lat="42.50911" lon="2.04294">
        <ele>1837.11</ele>
        <time>2021-10-20T22:00:16Z</time>
      </trkpt>
      <trkpt lat="42.50924" lon="2.04296">
        <ele>1839.22</ele>
        <time>2021-10-20T22:00:16Z</time>
      </trkpt>
      <trkpt lat="42.50945" lon="2.04301">
        <ele>1842.53</ele>
        <time>2021-10-20T22:00:16Z</time>
      </trkpt>
      <trkpt lat="42.50965" lon="2.04305">
        <ele>1845.43</ele>
        <time>2021-10-20T22:00:16Z</time>
      </trkpt>
      <trkpt lat="42.50986" lon="2.04303">
        <ele>1848.57</ele>
        <time>2021-10-20T22:00:16Z</time>
      </trkpt>
      <trkpt lat="42.51" lon="2.04299">
        <ele>1850.79</ele>
        <time>2021-10-20T22:00:16Z</time>
      </trkpt>
      <trkpt lat="42.51011" lon="2.04292">
        <ele>1852.69</ele>
        <time>2021-10-20T22:00:16Z</time>
      </trkpt>
      <trkpt lat="42.51045" lon="2.04298">
        <ele>1855.84</ele>
        <time>2021-10-20T22:00:16Z</time>
      </trkpt>
      <trkpt lat="42.51059" lon="2.04291">
        <ele>1857.17</ele>
        <time>2021-10-20T22:00:16Z</time>
      </trkpt>
      <trkpt lat="42.51071" lon="2.04245">
        <ele>1857.75</ele>
        <time>2021-10-20T22:00:16Z</time>
      </trkpt>
      <trkpt lat="42.51083" lon="2.04224">
        <ele>1857.96</ele>
        <time>2021-10-20T22:00:16Z</time>
      </trkpt>
      <trkpt lat="42.51091" lon="2.04214">
        <ele>1858.16</ele>
        <time>2021-10-20T22:00:16Z</time>
      </trkpt>
      <trkpt lat="42.511" lon="2.04184">
        <ele>1855.8</ele>
        <time>2021-10-20T22:00:16Z</time>
      </trkpt>
      <trkpt lat="42.51103" lon="2.0417">
        <ele>1854.85</ele>
        <time>2021-10-20T22:00:16Z</time>
      </trkpt>
      <trkpt lat="42.5111" lon="2.04157">
        <ele>1853.47</ele>
        <time>2021-10-20T22:00:16Z</time>
      </trkpt>
      <trkpt lat="42.51117" lon="2.04139">
        <ele>1851.96</ele>
        <time>2021-10-20T22:00:16Z</time>
      </trkpt>
      <trkpt lat="42.51122" lon="2.04123">
        <ele>1851.17</ele>
        <time>2021-10-20T22:00:16Z</time>
      </trkpt>
      <trkpt lat="42.5113" lon="2.04105">
        <ele>1849.88</ele>
        <time>2021-10-20T22:00:16Z</time>
      </trkpt>
      <trkpt lat="42.51137" lon="2.04089">
        <ele>1848.65</ele>
        <time>2021-10-20T22:00:16Z</time>
      </trkpt>
      <trkpt lat="42.51145" lon="2.04073">
        <ele>1847.18</ele>
        <time>2021-10-20T22:00:16Z</time>
      </trkpt>
      <trkpt lat="42.51154" lon="2.0406">
        <ele>1845.65</ele>
        <time>2021-10-20T22:00:16Z</time>
      </trkpt>
      <trkpt lat="42.5116" lon="2.04047">
        <ele>1844.64</ele>
        <time>2021-10-20T22:00:16Z</time>
      </trkpt>
      <trkpt lat="42.5117" lon="2.04041">
        <ele>1844.26</ele>
        <time>2021-10-20T22:00:16Z</time>
      </trkpt>
      <trkpt lat="42.5118" lon="2.04042">
        <ele>1843.98</ele>
        <time>2021-10-20T22:00:16Z</time>
      </trkpt>
      <trkpt lat="42.51193" lon="2.04047">
        <ele>1843.68</ele>
        <time>2021-10-20T22:00:16Z</time>
      </trkpt>
      <trkpt lat="42.51206" lon="2.04042">
        <ele>1843.23</ele>
        <time>2021-10-20T22:00:16Z</time>
      </trkpt>
      <trkpt lat="42.51217" lon="2.04041">
        <ele>1842.89</ele>
        <time>2021-10-20T22:00:16Z</time>
      </trkpt>
      <trkpt lat="42.5123" lon="2.04039">
        <ele>1842.62</ele>
        <time>2021-10-20T22:00:16Z</time>
      </trkpt>
      <trkpt lat="42.51243" lon="2.04035">
        <ele>1843.24</ele>
        <time>2021-10-20T22:00:16Z</time>
      </trkpt>
      <trkpt lat="42.51255" lon="2.04032">
        <ele>1843.87</ele>
        <time>2021-10-20T22:00:16Z</time>
      </trkpt>
      <trkpt lat="42.51265" lon="2.04027">
        <ele>1844.45</ele>
        <time>2021-10-20T22:00:16Z</time>
      </trkpt>
      <trkpt lat="42.51271" lon="2.04005">
        <ele>1845.07</ele>
        <time>2021-10-20T22:00:16Z</time>
      </trkpt>
      <trkpt lat="42.51273" lon="2.03991">
        <ele>1844.98</ele>
        <time>2021-10-20T22:00:16Z</time>
      </trkpt>
      <trkpt lat="42.51274" lon="2.03977">
        <ele>1844.71</ele>
        <time>2021-10-20T22:00:16Z</time>
      </trkpt>
      <trkpt lat="42.51277" lon="2.03963">
        <ele>1844.56</ele>
        <time>2021-10-20T22:00:16Z</time>
      </trkpt>
      <trkpt lat="42.51283" lon="2.03948">
        <ele>1844.56</ele>
        <time>2021-10-20T22:00:16Z</time>
      </trkpt>
      <trkpt lat="42.51292" lon="2.03929">
        <ele>1844.71</ele>
        <time>2021-10-20T22:00:16Z</time>
      </trkpt>
      <trkpt lat="42.51301" lon="2.0392">
        <ele>1845.41</ele>
        <time>2021-10-20T22:00:16Z</time>
      </trkpt>
      <trkpt lat="42.51313" lon="2.03911">
        <ele>1846.63</ele>
        <time>2021-10-20T22:00:16Z</time>
      </trkpt>
      <trkpt lat="42.51325" lon="2.03899">
        <ele>1847.85</ele>
        <time>2021-10-20T22:00:16Z</time>
      </trkpt>
      <trkpt lat="42.51335" lon="2.0389">
        <ele>1848.87</ele>
        <time>2021-10-20T22:00:16Z</time>
      </trkpt>
      <trkpt lat="42.51346" lon="2.03879">
        <ele>1850</ele>
        <time>2021-10-20T22:00:16Z</time>
      </trkpt>
      <trkpt lat="42.51356" lon="2.03869">
        <ele>1851.02</ele>
        <time>2021-10-20T22:00:16Z</time>
      </trkpt>
      <trkpt lat="42.51368" lon="2.03852">
        <ele>1852.02</ele>
        <time>2021-10-20T22:00:16Z</time>
      </trkpt>
      <trkpt lat="42.51377" lon="2.03844">
        <ele>1852.73</ele>
        <time>2021-10-20T22:00:16Z</time>
      </trkpt>
      <trkpt lat="42.51388" lon="2.03841">
        <ele>1853.72</ele>
        <time>2021-10-20T22:00:16Z</time>
      </trkpt>
      <trkpt lat="42.514" lon="2.03838">
        <ele>1854.8</ele>
        <time>2021-10-20T22:00:16Z</time>
      </trkpt>
      <trkpt lat="42.51411" lon="2.03833">
        <ele>1855.8</ele>
        <time>2021-10-20T22:00:16Z</time>
      </trkpt>
      <trkpt lat="42.51422" lon="2.03831">
        <ele>1856.83</ele>
        <time>2021-10-20T22:00:16Z</time>
      </trkpt>
      <trkpt lat="42.51436" lon="2.03824">
        <ele>1858.23</ele>
        <time>2021-10-20T22:00:16Z</time>
      </trkpt>
      <trkpt lat="42.51445" lon="2.03815">
        <ele>1859.51</ele>
        <time>2021-10-20T22:00:16Z</time>
      </trkpt>
      <trkpt lat="42.51455" lon="2.03803">
        <ele>1860.98</ele>
        <time>2021-10-20T22:00:16Z</time>
      </trkpt>
      <trkpt lat="42.51466" lon="2.03788">
        <ele>1862.48</ele>
        <time>2021-10-20T22:00:16Z</time>
      </trkpt>
      <trkpt lat="42.51475" lon="2.03778">
        <ele>1863.71</ele>
        <time>2021-10-20T22:00:16Z</time>
      </trkpt>
      <trkpt lat="42.51484" lon="2.03766">
        <ele>1864.99</ele>
        <time>2021-10-20T22:00:16Z</time>
      </trkpt>
      <trkpt lat="42.51489" lon="2.03754">
        <ele>1865.71</ele>
        <time>2021-10-20T22:00:16Z</time>
      </trkpt>
      <trkpt lat="42.51503" lon="2.03757">
        <ele>1868</ele>
        <time>2021-10-20T22:00:16Z</time>
      </trkpt>
      <trkpt lat="42.51511" lon="2.03764">
        <ele>1870.04</ele>
        <time>2021-10-20T22:00:16Z</time>
      </trkpt>
      <trkpt lat="42.51521" lon="2.03718">
        <ele>1872.65</ele>
        <time>2021-10-20T22:00:16Z</time>
      </trkpt>
      <trkpt lat="42.51521" lon="2.037">
        <ele>1872.53</ele>
        <time>2021-10-20T22:00:16Z</time>
      </trkpt>
      <trkpt lat="42.51523" lon="2.03683">
        <ele>1872.97</ele>
        <time>2021-10-20T22:00:16Z</time>
      </trkpt>
      <trkpt lat="42.51527" lon="2.03671">
        <ele>1874.05</ele>
        <time>2021-10-20T22:00:16Z</time>
      </trkpt>
      <trkpt lat="42.51537" lon="2.03653">
        <ele>1876.91</ele>
        <time>2021-10-20T22:00:16Z</time>
      </trkpt>
      <trkpt lat="42.51542" lon="2.03637">
        <ele>1878.36</ele>
        <time>2021-10-20T22:00:16Z</time>
      </trkpt>
      <trkpt lat="42.5155" lon="2.03611">
        <ele>1880.69</ele>
        <time>2021-10-20T22:00:16Z</time>
      </trkpt>
      <trkpt lat="42.51554" lon="2.03597">
        <ele>1881.86</ele>
        <time>2021-10-20T22:00:16Z</time>
      </trkpt>
      <trkpt lat="42.5156" lon="2.03588">
        <ele>1883.51</ele>
        <time>2021-10-20T22:00:16Z</time>
      </trkpt>
      <trkpt lat="42.51569" lon="2.03593">
        <ele>1886.23</ele>
        <time>2021-10-20T22:00:16Z</time>
      </trkpt>
      <trkpt lat="42.51573" lon="2.03606">
        <ele>1887.37</ele>
        <time>2021-10-20T22:00:16Z</time>
      </trkpt>
      <trkpt lat="42.51582" lon="2.03619">
        <ele>1889.8</ele>
        <time>2021-10-20T22:00:16Z</time>
      </trkpt>
      <trkpt lat="42.51588" lon="2.03606">
        <ele>1891.47</ele>
        <time>2021-10-20T22:00:16Z</time>
      </trkpt>
      <trkpt lat="42.51594" lon="2.03596">
        <ele>1893.16</ele>
        <time>2021-10-20T22:00:16Z</time>
      </trkpt>
      <trkpt lat="42.51604" lon="2.03573">
        <ele>1895.07</ele>
        <time>2021-10-20T22:00:16Z</time>
      </trkpt>
      <trkpt lat="42.51613" lon="2.03552">
        <ele>1896.43</ele>
        <time>2021-10-20T22:00:16Z</time>
      </trkpt>
      <trkpt lat="42.51621" lon="2.03538">
        <ele>1897.82</ele>
        <time>2021-10-20T22:00:16Z</time>
      </trkpt>
      <trkpt lat="42.51632" lon="2.03521">
        <ele>1899.79</ele>
        <time>2021-10-20T22:00:16Z</time>
      </trkpt>
      <trkpt lat="42.51643" lon="2.03501">
        <ele>1901.71</ele>
        <time>2021-10-20T22:00:16Z</time>
      </trkpt>
      <trkpt lat="42.51652" lon="2.03488">
        <ele>1903.16</ele>
        <time>2021-10-20T22:00:16Z</time>
      </trkpt>
      <trkpt lat="42.51661" lon="2.03479">
        <ele>1904.76</ele>
        <time>2021-10-20T22:00:16Z</time>
      </trkpt>
      <trkpt lat="42.51675" lon="2.03464">
        <ele>1907.13</ele>
        <time>2021-10-20T22:00:16Z</time>
      </trkpt>
      <trkpt lat="42.51683" lon="2.03449">
        <ele>1908.17</ele>
        <time>2021-10-20T22:00:16Z</time>
      </trkpt>
      <trkpt lat="42.51682" lon="2.03436">
        <ele>1907.46</ele>
        <time>2021-10-20T22:00:16Z</time>
      </trkpt>
      <trkpt lat="42.51685" lon="2.03412">
        <ele>1907.18</ele>
        <time>2021-10-20T22:00:16Z</time>
      </trkpt>
      <trkpt lat="42.51691" lon="2.03395">
        <ele>1907.76</ele>
        <time>2021-10-20T22:00:16Z</time>
      </trkpt>
      <trkpt lat="42.51698" lon="2.0338">
        <ele>1908.82</ele>
        <time>2021-10-20T22:00:16Z</time>
      </trkpt>
      <trkpt lat="42.51703" lon="2.03368">
        <ele>1910.02</ele>
        <time>2021-10-20T22:00:16Z</time>
      </trkpt>
      <trkpt lat="42.5171" lon="2.03359">
        <ele>1911.57</ele>
        <time>2021-10-20T22:00:16Z</time>
      </trkpt>
      <trkpt lat="42.5172" lon="2.03349">
        <ele>1913.6</ele>
        <time>2021-10-20T22:00:16Z</time>
      </trkpt>
      <trkpt lat="42.51731" lon="2.03342">
        <ele>1915.71</ele>
        <time>2021-10-20T22:00:16Z</time>
      </trkpt>
      <trkpt lat="42.51742" lon="2.03336">
        <ele>1917.76</ele>
        <time>2021-10-20T22:00:16Z</time>
      </trkpt>
      <trkpt lat="42.51747" lon="2.03325">
        <ele>1918.66</ele>
        <time>2021-10-20T22:00:16Z</time>
      </trkpt>
      <trkpt lat="42.51759" lon="2.03308">
        <ele>1920.77</ele>
        <time>2021-10-20T22:00:16Z</time>
      </trkpt>
      <trkpt lat="42.51768" lon="2.03302">
        <ele>1922.34</ele>
        <time>2021-10-20T22:00:16Z</time>
      </trkpt>
      <trkpt lat="42.51784" lon="2.03301">
        <ele>1924.79</ele>
        <time>2021-10-20T22:00:16Z</time>
      </trkpt>
      <trkpt lat="42.51798" lon="2.03304">
        <ele>1926.57</ele>
        <time>2021-10-20T22:00:16Z</time>
      </trkpt>
      <trkpt lat="42.51812" lon="2.0331">
        <ele>1928.42</ele>
        <time>2021-10-20T22:00:16Z</time>
      </trkpt>
      <trkpt lat="42.51821" lon="2.03314">
        <ele>1929.65</ele>
        <time>2021-10-20T22:00:16Z</time>
      </trkpt>
      <trkpt lat="42.51834" lon="2.03315">
        <ele>1931.37</ele>
        <time>2021-10-20T22:00:16Z</time>
      </trkpt>
      <trkpt lat="42.51842" lon="2.03322">
        <ele>1932.78</ele>
        <time>2021-10-20T22:00:16Z</time>
      </trkpt>
      <trkpt lat="42.51858" lon="2.03329">
        <ele>1935.4</ele>
        <time>2021-10-20T22:00:16Z</time>
      </trkpt>
      <trkpt lat="42.51866" lon="2.03321">
        <ele>1935.95</ele>
        <time>2021-10-20T22:00:16Z</time>
      </trkpt>
      <trkpt lat="42.51874" lon="2.03312">
        <ele>1936.48</ele>
        <time>2021-10-20T22:00:16Z</time>
      </trkpt>
      <trkpt lat="42.51889" lon="2.03305">
        <ele>1938.09</ele>
        <time>2021-10-20T22:00:16Z</time>
      </trkpt>
      <trkpt lat="42.51902" lon="2.03302">
        <ele>1939.57</ele>
        <time>2021-10-20T22:00:16Z</time>
      </trkpt>
      <trkpt lat="42.51926" lon="2.03279">
        <ele>1940.44</ele>
        <time>2021-10-20T22:00:16Z</time>
      </trkpt>
      <trkpt lat="42.51943" lon="2.03267">
        <ele>1940.85</ele>
        <time>2021-10-20T22:00:16Z</time>
      </trkpt>
      <trkpt lat="42.51971" lon="2.03237">
        <ele>1942.49</ele>
        <time>2021-10-20T22:00:16Z</time>
      </trkpt>
      <trkpt lat="42.51988" lon="2.03195">
        <ele>1945.75</ele>
        <time>2021-10-20T22:00:16Z</time>
      </trkpt>
      <trkpt lat="42.52027" lon="2.03174">
        <ele>1951.16</ele>
        <time>2021-10-20T22:00:16Z</time>
      </trkpt>
      <trkpt lat="42.52031" lon="2.03147">
        <ele>1952.29</ele>
        <time>2021-10-20T22:00:16Z</time>
      </trkpt>
      <trkpt lat="42.52035" lon="2.03117">
        <ele>1953.55</ele>
        <time>2021-10-20T22:00:16Z</time>
      </trkpt>
      <trkpt lat="42.52043" lon="2.03089">
        <ele>1955.12</ele>
        <time>2021-10-20T22:00:16Z</time>
      </trkpt>
      <trkpt lat="42.52065" lon="2.03075">
        <ele>1958.36</ele>
        <time>2021-10-20T22:00:16Z</time>
      </trkpt>
      <trkpt lat="42.52093" lon="2.03052">
        <ele>1963.17</ele>
        <time>2021-10-20T22:00:16Z</time>
      </trkpt>
      <trkpt lat="42.52114" lon="2.03025">
        <ele>1967.61</ele>
        <time>2021-10-20T22:00:16Z</time>
      </trkpt>
      <trkpt lat="42.52133" lon="2.02983">
        <ele>1972.96</ele>
        <time>2021-10-20T22:00:16Z</time>
      </trkpt>
      <trkpt lat="42.52142" lon="2.02948">
        <ele>1977.31</ele>
        <time>2021-10-20T22:00:16Z</time>
      </trkpt>
      <trkpt lat="42.52153" lon="2.02911">
        <ele>1982.48</ele>
        <time>2021-10-20T22:00:16Z</time>
      </trkpt>
      <trkpt lat="42.52164" lon="2.02892">
        <ele>1986.28</ele>
        <time>2021-10-20T22:00:16Z</time>
      </trkpt>
      <trkpt lat="42.52181" lon="2.02863">
        <ele>1992.44</ele>
        <time>2021-10-20T22:00:16Z</time>
      </trkpt>
      <trkpt lat="42.52202" lon="2.02842">
        <ele>1999</ele>
        <time>2021-10-20T22:00:16Z</time>
      </trkpt>
      <trkpt lat="42.52234" lon="2.0281">
        <ele>2007.92</ele>
        <time>2021-10-20T22:00:16Z</time>
      </trkpt>
      <trkpt lat="42.52234" lon="2.02776">
        <ele>2009.58</ele>
        <time>2021-10-20T22:00:16Z</time>
      </trkpt>
      <trkpt lat="42.52228" lon="2.02735">
        <ele>2009.28</ele>
        <time>2021-10-20T22:00:16Z</time>
      </trkpt>
      <trkpt lat="42.52228" lon="2.02693">
        <ele>2010.02</ele>
        <time>2021-10-20T22:00:16Z</time>
      </trkpt>
      <trkpt lat="42.52223" lon="2.02661">
        <ele>2010.42</ele>
        <time>2021-10-20T22:00:16Z</time>
      </trkpt>
      <trkpt lat="42.52222" lon="2.02629">
        <ele>2011.66</ele>
        <time>2021-10-20T22:00:16Z</time>
      </trkpt>
      <trkpt lat="42.52221" lon="2.02602">
        <ele>2012.55</ele>
        <time>2021-10-20T22:00:16Z</time>
      </trkpt>
      <trkpt lat="42.52221" lon="2.02576">
        <ele>2013.58</ele>
        <time>2021-10-20T22:00:16Z</time>
      </trkpt>
      <trkpt lat="42.52229" lon="2.02549">
        <ele>2015.04</ele>
        <time>2021-10-20T22:00:16Z</time>
      </trkpt>
      <trkpt lat="42.52253" lon="2.02534">
        <ele>2016.84</ele>
        <time>2021-10-20T22:00:16Z</time>
      </trkpt>
      <trkpt lat="42.52277" lon="2.02528">
        <ele>2018.29</ele>
        <time>2021-10-20T22:00:16Z</time>
      </trkpt>
      <trkpt lat="42.52303" lon="2.02537">
        <ele>2020.35</ele>
        <time>2021-10-20T22:00:16Z</time>
      </trkpt>
      <trkpt lat="42.52332" lon="2.02545">
        <ele>2022.78</ele>
        <time>2021-10-20T22:00:16Z</time>
      </trkpt>
      <trkpt lat="42.52354" lon="2.0253">
        <ele>2024.21</ele>
        <time>2021-10-20T22:00:16Z</time>
      </trkpt>
      <trkpt lat="42.52381" lon="2.02523">
        <ele>2026.52</ele>
        <time>2021-10-20T22:00:16Z</time>
      </trkpt>
      <trkpt lat="42.52391" lon="2.02494">
        <ele>2026.6</ele>
        <time>2021-10-20T22:00:16Z</time>
      </trkpt>
      <trkpt lat="42.52413" lon="2.02454">
        <ele>2028.7</ele>
        <time>2021-10-20T22:00:16Z</time>
      </trkpt>
      <trkpt lat="42.52434" lon="2.0243">
        <ele>2030.68</ele>
        <time>2021-10-20T22:00:16Z</time>
      </trkpt>
      <trkpt lat="42.52455" lon="2.02403">
        <ele>2032.04</ele>
        <time>2021-10-20T22:00:16Z</time>
      </trkpt>
      <trkpt lat="42.52478" lon="2.02386">
        <ele>2033.45</ele>
        <time>2021-10-20T22:00:16Z</time>
      </trkpt>
      <trkpt lat="42.52506" lon="2.02384">
        <ele>2035.51</ele>
        <time>2021-10-20T22:00:16Z</time>
      </trkpt>
      <trkpt lat="42.5252" lon="2.02361">
        <ele>2034.76</ele>
        <time>2021-10-20T22:00:16Z</time>
      </trkpt>
      <trkpt lat="42.52526" lon="2.02332">
        <ele>2033.65</ele>
        <time>2021-10-20T22:00:16Z</time>
      </trkpt>
      <trkpt lat="42.52517" lon="2.02306">
        <ele>2032.12</ele>
        <time>2021-10-20T22:00:16Z</time>
      </trkpt>
      <trkpt lat="42.52514" lon="2.02284">
        <ele>2031.2</ele>
        <time>2021-10-20T22:00:16Z</time>
      </trkpt>
      <trkpt lat="42.52511" lon="2.02255">
        <ele>2031.49</ele>
        <time>2021-10-20T22:00:16Z</time>
      </trkpt>
      <trkpt lat="42.52508" lon="2.02227">
        <ele>2031.77</ele>
        <time>2021-10-20T22:00:16Z</time>
      </trkpt>
      <trkpt lat="42.52505" lon="2.02194">
        <ele>2033.46</ele>
        <time>2021-10-20T22:00:16Z</time>
      </trkpt>
      <trkpt lat="42.52527" lon="2.02173">
        <ele>2035.95</ele>
        <time>2021-10-20T22:00:16Z</time>
      </trkpt>
      <trkpt lat="42.52557" lon="2.02157">
        <ele>2037.11</ele>
        <time>2021-10-20T22:00:16Z</time>
      </trkpt>
      <trkpt lat="42.52588" lon="2.02133">
        <ele>2038.32</ele>
        <time>2021-10-20T22:00:16Z</time>
      </trkpt>
      <trkpt lat="42.52612" lon="2.02105">
        <ele>2040.18</ele>
        <time>2021-10-20T22:00:16Z</time>
      </trkpt>
      <trkpt lat="42.52633" lon="2.02077">
        <ele>2041.71</ele>
        <time>2021-10-20T22:00:16Z</time>
      </trkpt>
      <trkpt lat="42.52658" lon="2.02046">
        <ele>2042.83</ele>
        <time>2021-10-20T22:00:16Z</time>
      </trkpt>
      <trkpt lat="42.52673" lon="2.02013">
        <ele>2044</ele>
        <time>2021-10-20T22:00:16Z</time>
      </trkpt>
      <trkpt lat="42.5268" lon="2.0198">
        <ele>2046.74</ele>
        <time>2021-10-20T22:00:16Z</time>
      </trkpt>
      <trkpt lat="42.52706" lon="2.01959">
        <ele>2048.01</ele>
        <time>2021-10-20T22:00:16Z</time>
      </trkpt>
      <trkpt lat="42.52723" lon="2.01938">
        <ele>2048.56</ele>
        <time>2021-10-20T22:00:16Z</time>
      </trkpt>
      <trkpt lat="42.52752" lon="2.01921">
        <ele>2048.06</ele>
        <time>2021-10-20T22:00:16Z</time>
      </trkpt>
      <trkpt lat="42.52761" lon="2.01892">
        <ele>2048.18</ele>
        <time>2021-10-20T22:00:16Z</time>
      </trkpt>
      <trkpt lat="42.52783" lon="2.0187">
        <ele>2047.63</ele>
        <time>2021-10-20T22:00:16Z</time>
      </trkpt>
      <trkpt lat="42.52812" lon="2.01866">
        <ele>2046.84</ele>
        <time>2021-10-20T22:00:16Z</time>
      </trkpt>
      <trkpt lat="42.52837" lon="2.01879">
        <ele>2047.43</ele>
        <time>2021-10-20T22:00:16Z</time>
      </trkpt>
      <trkpt lat="42.52855" lon="2.01877">
        <ele>2047.69</ele>
        <time>2021-10-20T22:00:16Z</time>
      </trkpt>
      <trkpt lat="42.52899" lon="2.01877">
        <ele>2048.98</ele>
        <time>2021-10-20T22:00:16Z</time>
      </trkpt>
      <trkpt lat="42.52931" lon="2.01896">
        <ele>2050.13</ele>
        <time>2021-10-20T22:00:16Z</time>
      </trkpt>
      <trkpt lat="42.52952" lon="2.01917">
        <ele>2050.88</ele>
        <time>2021-10-20T22:00:16Z</time>
      </trkpt>
      <trkpt lat="42.52968" lon="2.01936">
        <ele>2051.77</ele>
        <time>2021-10-20T22:00:16Z</time>
      </trkpt>
      <trkpt lat="42.52987" lon="2.01933">
        <ele>2053.2</ele>
        <time>2021-10-20T22:00:16Z</time>
      </trkpt>
      <trkpt lat="42.53015" lon="2.01906">
        <ele>2055.69</ele>
        <time>2021-10-20T22:00:16Z</time>
      </trkpt>
      <trkpt lat="42.53048" lon="2.01869">
        <ele>2060.75</ele>
        <time>2021-10-20T22:00:16Z</time>
      </trkpt>
      <trkpt lat="42.53072" lon="2.0184">
        <ele>2065.55</ele>
        <time>2021-10-20T22:00:16Z</time>
      </trkpt>
      <trkpt lat="42.53098" lon="2.01814">
        <ele>2070.34</ele>
        <time>2021-10-20T22:00:16Z</time>
      </trkpt>
      <trkpt lat="42.53118" lon="2.01797">
        <ele>2073.7</ele>
        <time>2021-10-20T22:00:16Z</time>
      </trkpt>
      <trkpt lat="42.53142" lon="2.01758">
        <ele>2079.3</ele>
        <time>2021-10-20T22:00:16Z</time>
      </trkpt>
      <trkpt lat="42.53172" lon="2.01712">
        <ele>2088.74</ele>
        <time>2021-10-20T22:00:16Z</time>
      </trkpt>
      <trkpt lat="42.53188" lon="2.01681">
        <ele>2095.91</ele>
        <time>2021-10-20T22:00:16Z</time>
      </trkpt>
      <trkpt lat="42.53209" lon="2.01626">
        <ele>2109.73</ele>
        <time>2021-10-20T22:00:16Z</time>
      </trkpt>
      <trkpt lat="42.53227" lon="2.0157">
        <ele>2123.5</ele>
        <time>2021-10-20T22:00:16Z</time>
      </trkpt>
      <trkpt lat="42.53253" lon="2.01524">
        <ele>2136.93</ele>
        <time>2021-10-20T22:00:16Z</time>
      </trkpt>
      <trkpt lat="42.53284" lon="2.01507">
        <ele>2146.33</ele>
        <time>2021-10-20T22:00:16Z</time>
      </trkpt>
      <trkpt lat="42.5332" lon="2.01487">
        <ele>2159.77</ele>
        <time>2021-10-20T22:00:16Z</time>
      </trkpt>
      <trkpt lat="42.53354" lon="2.01485">
        <ele>2171.02</ele>
        <time>2021-10-20T22:00:16Z</time>
      </trkpt>
      <trkpt lat="42.53389" lon="2.01487">
        <ele>2182.59</ele>
        <time>2021-10-20T22:00:16Z</time>
      </trkpt>
      <trkpt lat="42.53421" lon="2.01485">
        <ele>2193.44</ele>
        <time>2021-10-20T22:00:16Z</time>
      </trkpt>
      <trkpt lat="42.53446" lon="2.01505">
        <ele>2197.72</ele>
        <time>2021-10-20T22:00:16Z</time>
      </trkpt>
      <trkpt lat="42.53475" lon="2.01529">
        <ele>2203.06</ele>
        <time>2021-10-20T22:00:16Z</time>
      </trkpt>
      <trkpt lat="42.53499" lon="2.0157">
        <ele>2207.74</ele>
        <time>2021-10-20T22:00:16Z</time>
      </trkpt>
      <trkpt lat="42.53519" lon="2.01586">
        <ele>2208.6</ele>
        <time>2021-10-20T22:00:16Z</time>
      </trkpt>
      <trkpt lat="42.53548" lon="2.0161">
        <ele>2208.86</ele>
        <time>2021-10-20T22:00:16Z</time>
      </trkpt>
      <trkpt lat="42.53571" lon="2.01625">
        <ele>2207.92</ele>
        <time>2021-10-20T22:00:16Z</time>
      </trkpt>
      <trkpt lat="42.53592" lon="2.01625">
        <ele>2206.43</ele>
        <time>2021-10-20T22:00:16Z</time>
      </trkpt>
      <trkpt lat="42.53621" lon="2.01626">
        <ele>2204.35</ele>
        <time>2021-10-20T22:00:16Z</time>
      </trkpt>
      <trkpt lat="42.53635" lon="2.01621">
        <ele>2203.3</ele>
        <time>2021-10-20T22:00:16Z</time>
      </trkpt>
      <trkpt lat="42.53658" lon="2.01624">
        <ele>2200.7</ele>
        <time>2021-10-20T22:00:16Z</time>
      </trkpt>
      <trkpt lat="42.5367" lon="2.01616">
        <ele>2199.42</ele>
        <time>2021-10-20T22:00:16Z</time>
      </trkpt>
      <trkpt lat="42.53685" lon="2.01593">
        <ele>2197.64</ele>
        <time>2021-10-20T22:00:16Z</time>
      </trkpt>
      <trkpt lat="42.53694" lon="2.01579">
        <ele>2196.2</ele>
        <time>2021-10-20T22:00:16Z</time>
      </trkpt>
      <trkpt lat="42.53703" lon="2.01562">
        <ele>2194.4</ele>
        <time>2021-10-20T22:00:16Z</time>
      </trkpt>
      <trkpt lat="42.53713" lon="2.01549">
        <ele>2192.13</ele>
        <time>2021-10-20T22:00:16Z</time>
      </trkpt>
      <trkpt lat="42.53722" lon="2.01535">
        <ele>2190.02</ele>
        <time>2021-10-20T22:00:16Z</time>
      </trkpt>
      <trkpt lat="42.53735" lon="2.01521">
        <ele>2186.94</ele>
        <time>2021-10-20T22:00:16Z</time>
      </trkpt>
      <trkpt lat="42.53745" lon="2.0151">
        <ele>2184.44</ele>
        <time>2021-10-20T22:00:16Z</time>
      </trkpt>
      <trkpt lat="42.53755" lon="2.01499">
        <ele>2181.9</ele>
        <time>2021-10-20T22:00:16Z</time>
      </trkpt>
      <trkpt lat="42.53763" lon="2.01486">
        <ele>2179.59</ele>
        <time>2021-10-20T22:00:16Z</time>
      </trkpt>
      <trkpt lat="42.53777" lon="2.01471">
        <ele>2175.74</ele>
        <time>2021-10-20T22:00:16Z</time>
      </trkpt>
      <trkpt lat="42.53796" lon="2.01452">
        <ele>2170.54</ele>
        <time>2021-10-20T22:00:16Z</time>
      </trkpt>
      <trkpt lat="42.53809" lon="2.01436">
        <ele>2166.68</ele>
        <time>2021-10-20T22:00:16Z</time>
      </trkpt>
      <trkpt lat="42.53821" lon="2.01423">
        <ele>2163.07</ele>
        <time>2021-10-20T22:00:16Z</time>
      </trkpt>
      <trkpt lat="42.53837" lon="2.01412">
        <ele>2158.51</ele>
        <time>2021-10-20T22:00:16Z</time>
      </trkpt>
      <trkpt lat="42.53855" lon="2.01392">
        <ele>2151.12</ele>
        <time>2021-10-20T22:00:16Z</time>
      </trkpt>
      <trkpt lat="42.53866" lon="2.0138">
        <ele>2147.03</ele>
        <time>2021-10-20T22:00:16Z</time>
      </trkpt>
      <trkpt lat="42.53881" lon="2.01363">
        <ele>2141.81</ele>
        <time>2021-10-20T22:00:16Z</time>
      </trkpt>
      <trkpt lat="42.53894" lon="2.01349">
        <ele>2137.64</ele>
        <time>2021-10-20T22:00:16Z</time>
      </trkpt>
      <trkpt lat="42.53909" lon="2.01331">
        <ele>2133.02</ele>
        <time>2021-10-20T22:00:16Z</time>
      </trkpt>
      <trkpt lat="42.53926" lon="2.01313">
        <ele>2126.43</ele>
        <time>2021-10-20T22:00:16Z</time>
      </trkpt>
      <trkpt lat="42.53939" lon="2.01296">
        <ele>2120.9</ele>
        <time>2021-10-20T22:00:16Z</time>
      </trkpt>
      <trkpt lat="42.53951" lon="2.01284">
        <ele>2116</ele>
        <time>2021-10-20T22:00:16Z</time>
      </trkpt>
      <trkpt lat="42.53967" lon="2.01269">
        <ele>2109.54</ele>
        <time>2021-10-20T22:00:16Z</time>
      </trkpt>
      <trkpt lat="42.53978" lon="2.01254">
        <ele>2104.95</ele>
        <time>2021-10-20T22:00:16Z</time>
      </trkpt>
      <trkpt lat="42.5399" lon="2.01242">
        <ele>2100.58</ele>
        <time>2021-10-20T22:00:16Z</time>
      </trkpt>
      <trkpt lat="42.54002" lon="2.01233">
        <ele>2096.39</ele>
        <time>2021-10-20T22:00:16Z</time>
      </trkpt>
      <trkpt lat="42.54017" lon="2.0122">
        <ele>2091.04</ele>
        <time>2021-10-20T22:00:16Z</time>
      </trkpt>
      <trkpt lat="42.5403" lon="2.01214">
        <ele>2086.72</ele>
        <time>2021-10-20T22:00:16Z</time>
      </trkpt>
      <trkpt lat="42.54048" lon="2.01211">
        <ele>2081.38</ele>
        <time>2021-10-20T22:00:16Z</time>
      </trkpt>
      <trkpt lat="42.54065" lon="2.01209">
        <ele>2077.4</ele>
        <time>2021-10-20T22:00:16Z</time>
      </trkpt>
      <trkpt lat="42.54077" lon="2.01201">
        <ele>2074.31</ele>
        <time>2021-10-20T22:00:16Z</time>
      </trkpt>
      <trkpt lat="42.54084" lon="2.01192">
        <ele>2072.37</ele>
        <time>2021-10-20T22:00:16Z</time>
      </trkpt>
      <trkpt lat="42.54091" lon="2.01179">
        <ele>2070.2</ele>
        <time>2021-10-20T22:00:16Z</time>
      </trkpt>
      <trkpt lat="42.54097" lon="2.01161">
        <ele>2067.89</ele>
        <time>2021-10-20T22:00:16Z</time>
      </trkpt>
      <trkpt lat="42.54105" lon="2.0114">
        <ele>2064.91</ele>
        <time>2021-10-20T22:00:16Z</time>
      </trkpt>
      <trkpt lat="42.5411" lon="2.01124">
        <ele>2062.84</ele>
        <time>2021-10-20T22:00:16Z</time>
      </trkpt>
      <trkpt lat="42.54114" lon="2.0111">
        <ele>2061.29</ele>
        <time>2021-10-20T22:00:16Z</time>
      </trkpt>
      <trkpt lat="42.54122" lon="2.01089">
        <ele>2058.8</ele>
        <time>2021-10-20T22:00:16Z</time>
      </trkpt>
      <trkpt lat="42.54126" lon="2.01074">
        <ele>2057.32</ele>
        <time>2021-10-20T22:00:16Z</time>
      </trkpt>
      <trkpt lat="42.54132" lon="2.01058">
        <ele>2055.36</ele>
        <time>2021-10-20T22:00:16Z</time>
      </trkpt>
      <trkpt lat="42.54137" lon="2.01045">
        <ele>2053.67</ele>
        <time>2021-10-20T22:00:16Z</time>
      </trkpt>
      <trkpt lat="42.54145" lon="2.01029">
        <ele>2051.11</ele>
        <time>2021-10-20T22:00:16Z</time>
      </trkpt>
      <trkpt lat="42.54159" lon="2.0101">
        <ele>2047.15</ele>
        <time>2021-10-20T22:00:16Z</time>
      </trkpt>
      <trkpt lat="42.54169" lon="2.00997">
        <ele>2044.35</ele>
        <time>2021-10-20T22:00:16Z</time>
      </trkpt>
      <trkpt lat="42.54182" lon="2.00981">
        <ele>2040.78</ele>
        <time>2021-10-20T22:00:16Z</time>
      </trkpt>
      <trkpt lat="42.54197" lon="2.00966">
        <ele>2036.31</ele>
        <time>2021-10-20T22:00:16Z</time>
      </trkpt>
      <trkpt lat="42.54209" lon="2.00951">
        <ele>2032.25</ele>
        <time>2021-10-20T22:00:16Z</time>
      </trkpt>
      <trkpt lat="42.5422" lon="2.00939">
        <ele>2028.6</ele>
        <time>2021-10-20T22:00:16Z</time>
      </trkpt>
      <trkpt lat="42.5423" lon="2.00928">
        <ele>2025.18</ele>
        <time>2021-10-20T22:00:16Z</time>
      </trkpt>
      <trkpt lat="42.54239" lon="2.00916">
        <ele>2021.76</ele>
        <time>2021-10-20T22:00:16Z</time>
      </trkpt>
      <trkpt lat="42.54246" lon="2.00906">
        <ele>2018.65</ele>
        <time>2021-10-20T22:00:16Z</time>
      </trkpt>
      <trkpt lat="42.54253" lon="2.00893">
        <ele>2015.09</ele>
        <time>2021-10-20T22:00:16Z</time>
      </trkpt>
      <trkpt lat="42.54258" lon="2.00882">
        <ele>2012.49</ele>
        <time>2021-10-20T22:00:16Z</time>
      </trkpt>
      <trkpt lat="42.54269" lon="2.00866">
        <ele>2008.34</ele>
        <time>2021-10-20T22:00:16Z</time>
      </trkpt>
      <trkpt lat="42.54279" lon="2.00857">
        <ele>2005.63</ele>
        <time>2021-10-20T22:00:16Z</time>
      </trkpt>
      <trkpt lat="42.54289" lon="2.00848">
        <ele>2003.03</ele>
        <time>2021-10-20T22:00:16Z</time>
      </trkpt>
      <trkpt lat="42.543" lon="2.00835">
        <ele>1998.88</ele>
        <time>2021-10-20T22:00:16Z</time>
      </trkpt>
      <trkpt lat="42.54313" lon="2.00815">
        <ele>1992.41</ele>
        <time>2021-10-20T22:00:16Z</time>
      </trkpt>
      <trkpt lat="42.54326" lon="2.00797">
        <ele>1986.67</ele>
        <time>2021-10-20T22:00:16Z</time>
      </trkpt>
      <trkpt lat="42.54335" lon="2.00781">
        <ele>1982.12</ele>
        <time>2021-10-20T22:00:16Z</time>
      </trkpt>
      <trkpt lat="42.5434" lon="2.0077">
        <ele>1979.11</ele>
        <time>2021-10-20T22:00:16Z</time>
      </trkpt>
      <trkpt lat="42.5435" lon="2.00758">
        <ele>1975.52</ele>
        <time>2021-10-20T22:00:16Z</time>
      </trkpt>
      <trkpt lat="42.5436" lon="2.00749">
        <ele>1972.88</ele>
        <time>2021-10-20T22:00:16Z</time>
      </trkpt>
      <trkpt lat="42.54373" lon="2.00739">
        <ele>1970.11</ele>
        <time>2021-10-20T22:00:16Z</time>
      </trkpt>
      <trkpt lat="42.54383" lon="2.0073">
        <ele>1967.89</ele>
        <time>2021-10-20T22:00:16Z</time>
      </trkpt>
      <trkpt lat="42.54393" lon="2.00722">
        <ele>1966</ele>
        <time>2021-10-20T22:00:16Z</time>
      </trkpt>
      <trkpt lat="42.54404" lon="2.00704">
        <ele>1962.58</ele>
        <time>2021-10-20T22:00:16Z</time>
      </trkpt>
      <trkpt lat="42.54411" lon="2.00693">
        <ele>1960.79</ele>
        <time>2021-10-20T22:00:16Z</time>
      </trkpt>
      <trkpt lat="42.54419" lon="2.00682">
        <ele>1959.2</ele>
        <time>2021-10-20T22:00:16Z</time>
      </trkpt>
      <trkpt lat="42.54426" lon="2.00672">
        <ele>1957.9</ele>
        <time>2021-10-20T22:00:16Z</time>
      </trkpt>
      <trkpt lat="42.54437" lon="2.00662">
        <ele>1956.94</ele>
        <time>2021-10-20T22:00:16Z</time>
      </trkpt>
      <trkpt lat="42.54446" lon="2.00654">
        <ele>1956.35</ele>
        <time>2021-10-20T22:00:16Z</time>
      </trkpt>
      <trkpt lat="42.5446" lon="2.00639">
        <ele>1955.65</ele>
        <time>2021-10-20T22:00:16Z</time>
      </trkpt>
      <trkpt lat="42.54474" lon="2.00634">
        <ele>1956.72</ele>
        <time>2021-10-20T22:00:16Z</time>
      </trkpt>
      <trkpt lat="42.54494" lon="2.00623">
        <ele>1957.87</ele>
        <time>2021-10-20T22:00:16Z</time>
      </trkpt>
      <trkpt lat="42.54505" lon="2.00613">
        <ele>1958.13</ele>
        <time>2021-10-20T22:00:16Z</time>
      </trkpt>
      <trkpt lat="42.54514" lon="2.00602">
        <ele>1958.08</ele>
        <time>2021-10-20T22:00:16Z</time>
      </trkpt>
      <trkpt lat="42.5452" lon="2.00592">
        <ele>1957.8</ele>
        <time>2021-10-20T22:00:16Z</time>
      </trkpt>
      <trkpt lat="42.54527" lon="2.00575">
        <ele>1957.17</ele>
        <time>2021-10-20T22:00:16Z</time>
      </trkpt>
      <trkpt lat="42.54535" lon="2.00556">
        <ele>1956.54</ele>
        <time>2021-10-20T22:00:16Z</time>
      </trkpt>
      <trkpt lat="42.54544" lon="2.0054">
        <ele>1956.15</ele>
        <time>2021-10-20T22:00:16Z</time>
      </trkpt>
      <trkpt lat="42.54552" lon="2.00526">
        <ele>1955.62</ele>
        <time>2021-10-20T22:00:16Z</time>
      </trkpt>
      <trkpt lat="42.54562" lon="2.00511">
        <ele>1955.06</ele>
        <time>2021-10-20T22:00:16Z</time>
      </trkpt>
      <trkpt lat="42.54572" lon="2.00495">
        <ele>1954.6</ele>
        <time>2021-10-20T22:00:16Z</time>
      </trkpt>
      <trkpt lat="42.54581" lon="2.00468">
        <ele>1953.84</ele>
        <time>2021-10-20T22:00:16Z</time>
      </trkpt>
      <trkpt lat="42.54589" lon="2.00455">
        <ele>1953.65</ele>
        <time>2021-10-20T22:00:16Z</time>
      </trkpt>
      <trkpt lat="42.54599" lon="2.00441">
        <ele>1953.57</ele>
        <time>2021-10-20T22:00:16Z</time>
      </trkpt>
      <trkpt lat="42.54609" lon="2.00425">
        <ele>1953.98</ele>
        <time>2021-10-20T22:00:16Z</time>
      </trkpt>
      <trkpt lat="42.54612" lon="2.00414">
        <ele>1954.46</ele>
        <time>2021-10-20T22:00:16Z</time>
      </trkpt>
      <trkpt lat="42.5462" lon="2.00389">
        <ele>1955.42</ele>
        <time>2021-10-20T22:00:16Z</time>
      </trkpt>
      <trkpt lat="42.54626" lon="2.00373">
        <ele>1955.92</ele>
        <time>2021-10-20T22:00:16Z</time>
      </trkpt>
      <trkpt lat="42.5463" lon="2.00356">
        <ele>1956.62</ele>
        <time>2021-10-20T22:00:16Z</time>
      </trkpt>
      <trkpt lat="42.54634" lon="2.00341">
        <ele>1957.75</ele>
        <time>2021-10-20T22:00:16Z</time>
      </trkpt>
      <trkpt lat="42.54639" lon="2.00329">
        <ele>1958.67</ele>
        <time>2021-10-20T22:00:16Z</time>
      </trkpt>
      <trkpt lat="42.54643" lon="2.00315">
        <ele>1959.59</ele>
        <time>2021-10-20T22:00:16Z</time>
      </trkpt>
      <trkpt lat="42.54648" lon="2.00297">
        <ele>1960.67</ele>
        <time>2021-10-20T22:00:16Z</time>
      </trkpt>
      <trkpt lat="42.5466" lon="2.0027">
        <ele>1962.77</ele>
        <time>2021-10-20T22:00:16Z</time>
      </trkpt>
      <trkpt lat="42.54669" lon="2.00261">
        <ele>1963.71</ele>
        <time>2021-10-20T22:00:16Z</time>
      </trkpt>
      <trkpt lat="42.54676" lon="2.00251">
        <ele>1964.66</ele>
        <time>2021-10-20T22:00:16Z</time>
      </trkpt>
      <trkpt lat="42.54683" lon="2.00241">
        <ele>1965.59</ele>
        <time>2021-10-20T22:00:16Z</time>
      </trkpt>
      <trkpt lat="42.54704" lon="2.00211">
        <ele>1968.48</ele>
        <time>2021-10-20T22:00:16Z</time>
      </trkpt>
      <trkpt lat="42.54712" lon="2.00201">
        <ele>1969.47</ele>
        <time>2021-10-20T22:00:16Z</time>
      </trkpt>
      <trkpt lat="42.54724" lon="2.00185">
        <ele>1970.9</ele>
        <time>2021-10-20T22:00:16Z</time>
      </trkpt>
      <trkpt lat="42.54729" lon="2.00174">
        <ele>1971.77</ele>
        <time>2021-10-20T22:00:16Z</time>
      </trkpt>
      <trkpt lat="42.54739" lon="2.00149">
        <ele>1973.66</ele>
        <time>2021-10-20T22:00:16Z</time>
      </trkpt>
      <trkpt lat="42.54749" lon="2.0011">
        <ele>1976.97</ele>
        <time>2021-10-20T22:00:16Z</time>
      </trkpt>
      <trkpt lat="42.54756" lon="2.00094">
        <ele>1978.03</ele>
        <time>2021-10-20T22:00:16Z</time>
      </trkpt>
      <trkpt lat="42.54762" lon="2.00079">
        <ele>1979.61</ele>
        <time>2021-10-20T22:00:16Z</time>
      </trkpt>
      <trkpt lat="42.54768" lon="2.0006">
        <ele>1982.14</ele>
        <time>2021-10-20T22:00:16Z</time>
      </trkpt>
      <trkpt lat="42.54776" lon="2.00039">
        <ele>1984.78</ele>
        <time>2021-10-20T22:00:16Z</time>
      </trkpt>
      <trkpt lat="42.54781" lon="2.00018">
        <ele>1987.13</ele>
        <time>2021-10-20T22:00:16Z</time>
      </trkpt>
      <trkpt lat="42.54786" lon="1.99999">
        <ele>1985</ele>
        <time>2021-10-20T22:00:16Z</time>
      </trkpt>
      <trkpt lat="42.54794" lon="1.99983">
        <ele>1983.06</ele>
        <time>2021-10-20T22:00:16Z</time>
      </trkpt>
      <trkpt lat="42.54799" lon="1.99971">
        <ele>1981.73</ele>
        <time>2021-10-20T22:00:16Z</time>
      </trkpt>
      <trkpt lat="42.54804" lon="1.99957">
        <ele>1980.42</ele>
        <time>2021-10-20T22:00:16Z</time>
      </trkpt>
      <trkpt lat="42.54809" lon="1.99944">
        <ele>1979.57</ele>
        <time>2021-10-20T22:00:16Z</time>
      </trkpt>
      <trkpt lat="42.54814" lon="1.9993">
        <ele>1978.99</ele>
        <time>2021-10-20T22:00:16Z</time>
      </trkpt>
      <trkpt lat="42.54819" lon="1.99915">
        <ele>1978.44</ele>
        <time>2021-10-20T22:00:16Z</time>
      </trkpt>
      <trkpt lat="42.54824" lon="1.99904">
        <ele>1978.08</ele>
        <time>2021-10-20T22:00:16Z</time>
      </trkpt>
      <trkpt lat="42.5483" lon="1.99885">
        <ele>1977.53</ele>
        <time>2021-10-20T22:00:16Z</time>
      </trkpt>
      <trkpt lat="42.54835" lon="1.99872">
        <ele>1979.5</ele>
        <time>2021-10-20T22:00:16Z</time>
      </trkpt>
      <trkpt lat="42.54839" lon="1.99859">
        <ele>1981.92</ele>
        <time>2021-10-20T22:00:16Z</time>
      </trkpt>
      <trkpt lat="42.5485" lon="1.99835">
        <ele>1986.06</ele>
        <time>2021-10-20T22:00:16Z</time>
      </trkpt>
      <trkpt lat="42.54859" lon="1.9981">
        <ele>1991.01</ele>
        <time>2021-10-20T22:00:16Z</time>
      </trkpt>
      <trkpt lat="42.54862" lon="1.99798">
        <ele>1995.97</ele>
        <time>2021-10-20T22:00:16Z</time>
      </trkpt>
      <trkpt lat="42.54869" lon="1.99778">
        <ele>2004.08</ele>
        <time>2021-10-20T22:00:16Z</time>
      </trkpt>
      <trkpt lat="42.54877" lon="1.99753">
        <ele>2014.09</ele>
        <time>2021-10-20T22:00:16Z</time>
      </trkpt>
      <trkpt lat="42.5488" lon="1.99739">
        <ele>2018.71</ele>
        <time>2021-10-20T22:00:16Z</time>
      </trkpt>
      <trkpt lat="42.54882" lon="1.99721">
        <ele>2023.29</ele>
        <time>2021-10-20T22:00:16Z</time>
      </trkpt>
      <trkpt lat="42.54888" lon="1.99684">
        <ele>2032.55</ele>
        <time>2021-10-20T22:00:16Z</time>
      </trkpt>
      <trkpt lat="42.54887" lon="1.99668">
        <ele>2036.53</ele>
        <time>2021-10-20T22:00:16Z</time>
      </trkpt>
      <trkpt lat="42.54889" lon="1.99652">
        <ele>2040.04</ele>
        <time>2021-10-20T22:00:16Z</time>
      </trkpt>
      <trkpt lat="42.54892" lon="1.99639">
        <ele>2042.77</ele>
        <time>2021-10-20T22:00:16Z</time>
      </trkpt>
      <trkpt lat="42.54893" lon="1.99625">
        <ele>2045.87</ele>
        <time>2021-10-20T22:00:16Z</time>
      </trkpt>
      <trkpt lat="42.54895" lon="1.99612">
        <ele>2048.66</ele>
        <time>2021-10-20T22:00:16Z</time>
      </trkpt>
      <trkpt lat="42.54897" lon="1.99596">
        <ele>2052.39</ele>
        <time>2021-10-20T22:00:16Z</time>
      </trkpt>
      <trkpt lat="42.54899" lon="1.99584">
        <ele>2055.19</ele>
        <time>2021-10-20T22:00:16Z</time>
      </trkpt>
      <trkpt lat="42.549" lon="1.99567">
        <ele>2059.31</ele>
        <time>2021-10-20T22:00:16Z</time>
      </trkpt>
      <trkpt lat="42.54905" lon="1.99545">
        <ele>2064.21</ele>
        <time>2021-10-20T22:00:16Z</time>
      </trkpt>
      <trkpt lat="42.54908" lon="1.99532">
        <ele>2066.88</ele>
        <time>2021-10-20T22:00:16Z</time>
      </trkpt>
      <trkpt lat="42.54913" lon="1.99521">
        <ele>2068.68</ele>
        <time>2021-10-20T22:00:16Z</time>
      </trkpt>
      <trkpt lat="42.54925" lon="1.99486">
        <ele>2074.53</ele>
        <time>2021-10-20T22:00:16Z</time>
      </trkpt>
      <trkpt lat="42.54931" lon="1.99473">
        <ele>2076.32</ele>
        <time>2021-10-20T22:00:16Z</time>
      </trkpt>
      <trkpt lat="42.54936" lon="1.99459">
        <ele>2078.55</ele>
        <time>2021-10-20T22:00:16Z</time>
      </trkpt>
      <trkpt lat="42.54942" lon="1.99446">
        <ele>2080.48</ele>
        <time>2021-10-20T22:00:16Z</time>
      </trkpt>
      <trkpt lat="42.54949" lon="1.99426">
        <ele>2083.74</ele>
        <time>2021-10-20T22:00:16Z</time>
      </trkpt>
      <trkpt lat="42.54954" lon="1.99413">
        <ele>2085.76</ele>
        <time>2021-10-20T22:00:16Z</time>
      </trkpt>
      <trkpt lat="42.54961" lon="1.99397">
        <ele>2087.9</ele>
        <time>2021-10-20T22:00:16Z</time>
      </trkpt>
      <trkpt lat="42.54967" lon="1.99381">
        <ele>2089.85</ele>
        <time>2021-10-20T22:00:16Z</time>
      </trkpt>
      <trkpt lat="42.5497" lon="1.99368">
        <ele>2091.75</ele>
        <time>2021-10-20T22:00:16Z</time>
      </trkpt>
      <trkpt lat="42.54974" lon="1.99355">
        <ele>2093.51</ele>
        <time>2021-10-20T22:00:16Z</time>
      </trkpt>
      <trkpt lat="42.54982" lon="1.99333">
        <ele>2096.36</ele>
        <time>2021-10-20T22:00:16Z</time>
      </trkpt>
      <trkpt lat="42.54986" lon="1.99321">
        <ele>2097.83</ele>
        <time>2021-10-20T22:00:16Z</time>
      </trkpt>
      <trkpt lat="42.54997" lon="1.99287">
        <ele>2102.14</ele>
        <time>2021-10-20T22:00:16Z</time>
      </trkpt>
      <trkpt lat="42.55004" lon="1.99273">
        <ele>2103.64</ele>
        <time>2021-10-20T22:00:16Z</time>
      </trkpt>
      <trkpt lat="42.5501" lon="1.99254">
        <ele>2105.34</ele>
        <time>2021-10-20T22:00:16Z</time>
      </trkpt>
      <trkpt lat="42.55016" lon="1.99239">
        <ele>2106.08</ele>
        <time>2021-10-20T22:00:16Z</time>
      </trkpt>
      <trkpt lat="42.5502" lon="1.99226">
        <ele>2106.97</ele>
        <time>2021-10-20T22:00:16Z</time>
      </trkpt>
      <trkpt lat="42.55027" lon="1.9921">
        <ele>2107.64</ele>
        <time>2021-10-20T22:00:16Z</time>
      </trkpt>
      <trkpt lat="42.55031" lon="1.99197">
        <ele>2108.53</ele>
        <time>2021-10-20T22:00:16Z</time>
      </trkpt>
      <trkpt lat="42.55037" lon="1.99182">
        <ele>2109.15</ele>
        <time>2021-10-20T22:00:16Z</time>
      </trkpt>
      <trkpt lat="42.55042" lon="1.99168">
        <ele>2109.93</ele>
        <time>2021-10-20T22:00:16Z</time>
      </trkpt>
      <trkpt lat="42.55046" lon="1.99154">
        <ele>2110.98</ele>
        <time>2021-10-20T22:00:16Z</time>
      </trkpt>
      <trkpt lat="42.55057" lon="1.99114">
        <ele>2114.43</ele>
        <time>2021-10-20T22:00:16Z</time>
      </trkpt>
      <trkpt lat="42.55067" lon="1.9908">
        <ele>2117.73</ele>
        <time>2021-10-20T22:00:16Z</time>
      </trkpt>
      <trkpt lat="42.55076" lon="1.99056">
        <ele>2120.08</ele>
        <time>2021-10-20T22:00:16Z</time>
      </trkpt>
      <trkpt lat="42.55086" lon="1.99034">
        <ele>2122.08</ele>
        <time>2021-10-20T22:00:16Z</time>
      </trkpt>
      <trkpt lat="42.55089" lon="1.99022">
        <ele>2123.45</ele>
        <time>2021-10-20T22:00:16Z</time>
      </trkpt>
      <trkpt lat="42.55096" lon="1.9901">
        <ele>2124.53</ele>
        <time>2021-10-20T22:00:16Z</time>
      </trkpt>
      <trkpt lat="42.55101" lon="1.98995">
        <ele>2126.27</ele>
        <time>2021-10-20T22:00:16Z</time>
      </trkpt>
      <trkpt lat="42.55107" lon="1.98983">
        <ele>2127.32</ele>
        <time>2021-10-20T22:00:16Z</time>
      </trkpt>
      <trkpt lat="42.55112" lon="1.9897">
        <ele>2128.32</ele>
        <time>2021-10-20T22:00:16Z</time>
      </trkpt>
      <trkpt lat="42.55119" lon="1.98958">
        <ele>2128.95</ele>
        <time>2021-10-20T22:00:16Z</time>
      </trkpt>
      <trkpt lat="42.55124" lon="1.98945">
        <ele>2129.77</ele>
        <time>2021-10-20T22:00:16Z</time>
      </trkpt>
      <trkpt lat="42.55128" lon="1.98934">
        <ele>2130.42</ele>
        <time>2021-10-20T22:00:16Z</time>
      </trkpt>
      <trkpt lat="42.55136" lon="1.9892">
        <ele>2130.81</ele>
        <time>2021-10-20T22:00:16Z</time>
      </trkpt>
      <trkpt lat="42.55144" lon="1.98897">
        <ele>2131.66</ele>
        <time>2021-10-20T22:00:16Z</time>
      </trkpt>
      <trkpt lat="42.55148" lon="1.98886">
        <ele>2132.23</ele>
        <time>2021-10-20T22:00:16Z</time>
      </trkpt>
      <trkpt lat="42.55154" lon="1.98865">
        <ele>2133.41</ele>
        <time>2021-10-20T22:00:16Z</time>
      </trkpt>
      <trkpt lat="42.55159" lon="1.98852">
        <ele>2134.07</ele>
        <time>2021-10-20T22:00:16Z</time>
      </trkpt>
      <trkpt lat="42.55169" lon="1.98842">
        <ele>2134.24</ele>
        <time>2021-10-20T22:00:16Z</time>
      </trkpt>
      <trkpt lat="42.55178" lon="1.9883">
        <ele>2134.54</ele>
        <time>2021-10-20T22:00:16Z</time>
      </trkpt>
      <trkpt lat="42.55189" lon="1.9882">
        <ele>2134.47</ele>
        <time>2021-10-20T22:00:16Z</time>
      </trkpt>
      <trkpt lat="42.55199" lon="1.98808">
        <ele>2134.51</ele>
        <time>2021-10-20T22:00:16Z</time>
      </trkpt>
      <trkpt lat="42.5521" lon="1.98799">
        <ele>2134.19</ele>
        <time>2021-10-20T22:00:16Z</time>
      </trkpt>
      <trkpt lat="42.55219" lon="1.98789">
        <ele>2134.46</ele>
        <time>2021-10-20T22:00:16Z</time>
      </trkpt>
      <trkpt lat="42.55227" lon="1.98781">
        <ele>2134.73</ele>
        <time>2021-10-20T22:00:16Z</time>
      </trkpt>
      <trkpt lat="42.55237" lon="1.9877">
        <ele>2135.17</ele>
        <time>2021-10-20T22:00:16Z</time>
      </trkpt>
      <trkpt lat="42.55248" lon="1.98762">
        <ele>2135.34</ele>
        <time>2021-10-20T22:00:16Z</time>
      </trkpt>
      <trkpt lat="42.55263" lon="1.98739">
        <ele>2136.25</ele>
        <time>2021-10-20T22:00:16Z</time>
      </trkpt>
      <trkpt lat="42.5527" lon="1.98724">
        <ele>2136.89</ele>
        <time>2021-10-20T22:00:16Z</time>
      </trkpt>
      <trkpt lat="42.55276" lon="1.98711">
        <ele>2137.52</ele>
        <time>2021-10-20T22:00:16Z</time>
      </trkpt>
      <trkpt lat="42.55282" lon="1.987">
        <ele>2138.34</ele>
        <time>2021-10-20T22:00:16Z</time>
      </trkpt>
      <trkpt lat="42.55294" lon="1.98685">
        <ele>2139.73</ele>
        <time>2021-10-20T22:00:16Z</time>
      </trkpt>
      <trkpt lat="42.55303" lon="1.98672">
        <ele>2140.99</ele>
        <time>2021-10-20T22:00:16Z</time>
      </trkpt>
      <trkpt lat="42.55311" lon="1.98648">
        <ele>2143.32</ele>
        <time>2021-10-20T22:00:16Z</time>
      </trkpt>
      <trkpt lat="42.55321" lon="1.98643">
        <ele>2144.15</ele>
        <time>2021-10-20T22:00:16Z</time>
      </trkpt>
      <trkpt lat="42.55351" lon="1.98613">
        <ele>2149.35</ele>
        <time>2021-10-20T22:00:16Z</time>
      </trkpt>
      <trkpt lat="42.55366" lon="1.98606">
        <ele>2150.3</ele>
        <time>2021-10-20T22:00:16Z</time>
      </trkpt>
      <trkpt lat="42.55386" lon="1.98597">
        <ele>2151.3</ele>
        <time>2021-10-20T22:00:16Z</time>
      </trkpt>
      <trkpt lat="42.554" lon="1.9859">
        <ele>2151.95</ele>
        <time>2021-10-20T22:00:16Z</time>
      </trkpt>
      <trkpt lat="42.55415" lon="1.98585">
        <ele>2152.22</ele>
        <time>2021-10-20T22:00:16Z</time>
      </trkpt>
      <trkpt lat="42.55424" lon="1.98576">
        <ele>2154.85</ele>
        <time>2021-10-20T22:00:16Z</time>
      </trkpt>
      <trkpt lat="42.55434" lon="1.98567">
        <ele>2157.25</ele>
        <time>2021-10-20T22:00:16Z</time>
      </trkpt>
      <trkpt lat="42.55446" lon="1.98555">
        <ele>2159.79</ele>
        <time>2021-10-20T22:00:16Z</time>
      </trkpt>
      <trkpt lat="42.55464" lon="1.9853">
        <ele>2162.48</ele>
        <time>2021-10-20T22:00:16Z</time>
      </trkpt>
      <trkpt lat="42.55469" lon="1.9852">
        <ele>2162.83</ele>
        <time>2021-10-20T22:00:16Z</time>
      </trkpt>
      <trkpt lat="42.55482" lon="1.98511">
        <ele>2164.53</ele>
        <time>2021-10-20T22:00:16Z</time>
      </trkpt>
      <trkpt lat="42.555" lon="1.98502">
        <ele>2166.31</ele>
        <time>2021-10-20T22:00:16Z</time>
      </trkpt>
      <trkpt lat="42.5551" lon="1.98496">
        <ele>2167.22</ele>
        <time>2021-10-20T22:00:16Z</time>
      </trkpt>
      <trkpt lat="42.55527" lon="1.98485">
        <ele>2168.85</ele>
        <time>2021-10-20T22:00:16Z</time>
      </trkpt>
      <trkpt lat="42.55537" lon="1.98482">
        <ele>2170</ele>
        <time>2021-10-20T22:00:16Z</time>
      </trkpt>
      <trkpt lat="42.55546" lon="1.98478">
        <ele>2171.03</ele>
        <time>2021-10-20T22:00:16Z</time>
      </trkpt>
      <trkpt lat="42.55572" lon="1.98434">
        <ele>2171.36</ele>
        <time>2021-10-20T22:00:16Z</time>
      </trkpt>
      <trkpt lat="42.55581" lon="1.98417">
        <ele>2171.42</ele>
        <time>2021-10-20T22:00:16Z</time>
      </trkpt>
      <trkpt lat="42.55586" lon="1.98403">
        <ele>2171.55</ele>
        <time>2021-10-20T22:00:16Z</time>
      </trkpt>
      <trkpt lat="42.55591" lon="1.98386">
        <ele>2171.82</ele>
        <time>2021-10-20T22:00:16Z</time>
      </trkpt>
      <trkpt lat="42.55593" lon="1.98372">
        <ele>2171.96</ele>
        <time>2021-10-20T22:00:16Z</time>
      </trkpt>
      <trkpt lat="42.556" lon="1.98363">
        <ele>2172.28</ele>
        <time>2021-10-20T22:00:16Z</time>
      </trkpt>
      <trkpt lat="42.55606" lon="1.98351">
        <ele>2172.37</ele>
        <time>2021-10-20T22:00:16Z</time>
      </trkpt>
      <trkpt lat="42.55618" lon="1.98335">
        <ele>2172.89</ele>
        <time>2021-10-20T22:00:16Z</time>
      </trkpt>
      <trkpt lat="42.55634" lon="1.9832">
        <ele>2173.59</ele>
        <time>2021-10-20T22:00:16Z</time>
      </trkpt>
      <trkpt lat="42.55644" lon="1.98306">
        <ele>2173.93</ele>
        <time>2021-10-20T22:00:16Z</time>
      </trkpt>
      <trkpt lat="42.55651" lon="1.98291">
        <ele>2173.07</ele>
        <time>2021-10-20T22:00:16Z</time>
      </trkpt>
      <trkpt lat="42.55661" lon="1.98274">
        <ele>2171.88</ele>
        <time>2021-10-20T22:00:16Z</time>
      </trkpt>
      <trkpt lat="42.5567" lon="1.98263">
        <ele>2171.21</ele>
        <time>2021-10-20T22:00:16Z</time>
      </trkpt>
      <trkpt lat="42.55686" lon="1.9825">
        <ele>2170.67</ele>
        <time>2021-10-20T22:00:16Z</time>
      </trkpt>
      <trkpt lat="42.55705" lon="1.9824">
        <ele>2170.11</ele>
        <time>2021-10-20T22:00:16Z</time>
      </trkpt>
      <trkpt lat="42.55721" lon="1.98231">
        <ele>2169.35</ele>
        <time>2021-10-20T22:00:16Z</time>
      </trkpt>
      <trkpt lat="42.55735" lon="1.98224">
        <ele>2168.69</ele>
        <time>2021-10-20T22:00:16Z</time>
      </trkpt>
      <trkpt lat="42.55751" lon="1.98217">
        <ele>2167.99</ele>
        <time>2021-10-20T22:00:16Z</time>
      </trkpt>
      <trkpt lat="42.55768" lon="1.98214">
        <ele>2168.3</ele>
        <time>2021-10-20T22:00:16Z</time>
      </trkpt>
      <trkpt lat="42.55782" lon="1.98213">
        <ele>2169.17</ele>
        <time>2021-10-20T22:00:16Z</time>
      </trkpt>
      <trkpt lat="42.55799" lon="1.98215">
        <ele>2170.86</ele>
        <time>2021-10-20T22:00:16Z</time>
      </trkpt>
      <trkpt lat="42.55814" lon="1.98216">
        <ele>2172.24</ele>
        <time>2021-10-20T22:00:16Z</time>
      </trkpt>
      <trkpt lat="42.5583" lon="1.98211">
        <ele>2172.2</ele>
        <time>2021-10-20T22:00:16Z</time>
      </trkpt>
      <trkpt lat="42.55855" lon="1.98179">
        <ele>2165.79</ele>
        <time>2021-10-20T22:00:16Z</time>
      </trkpt>
      <trkpt lat="42.5586" lon="1.98166">
        <ele>2163.29</ele>
        <time>2021-10-20T22:00:16Z</time>
      </trkpt>
      <trkpt lat="42.55865" lon="1.98153">
        <ele>2163.44</ele>
        <time>2021-10-20T22:00:16Z</time>
      </trkpt>
      <trkpt lat="42.55869" lon="1.98141">
        <ele>2163.56</ele>
        <time>2021-10-20T22:00:16Z</time>
      </trkpt>
      <trkpt lat="42.55874" lon="1.9813">
        <ele>2163.76</ele>
        <time>2021-10-20T22:00:16Z</time>
      </trkpt>
      <trkpt lat="42.55879" lon="1.98118">
        <ele>2163.95</ele>
        <time>2021-10-20T22:00:16Z</time>
      </trkpt>
      <trkpt lat="42.55891" lon="1.98113">
        <ele>2164.75</ele>
        <time>2021-10-20T22:00:16Z</time>
      </trkpt>
      <trkpt lat="42.55906" lon="1.98093">
        <ele>2164.63</ele>
        <time>2021-10-20T22:00:16Z</time>
      </trkpt>
      <trkpt lat="42.55915" lon="1.98081">
        <ele>2164.45</ele>
        <time>2021-10-20T22:00:16Z</time>
      </trkpt>
      <trkpt lat="42.55922" lon="1.98073">
        <ele>2164.28</ele>
        <time>2021-10-20T22:00:16Z</time>
      </trkpt>
      <trkpt lat="42.55936" lon="1.98061">
        <ele>2163.81</ele>
        <time>2021-10-20T22:00:16Z</time>
      </trkpt>
      <trkpt lat="42.55947" lon="1.98051">
        <ele>2163.46</ele>
        <time>2021-10-20T22:00:16Z</time>
      </trkpt>
      <trkpt lat="42.55956" lon="1.9804">
        <ele>2163.26</ele>
        <time>2021-10-20T22:00:16Z</time>
      </trkpt>
      <trkpt lat="42.55967" lon="1.98024">
        <ele>2163.09</ele>
        <time>2021-10-20T22:00:16Z</time>
      </trkpt>
      <trkpt lat="42.55982" lon="1.9801">
        <ele>2162.74</ele>
        <time>2021-10-20T22:00:16Z</time>
      </trkpt>
      <trkpt lat="42.55993" lon="1.98001">
        <ele>2162.55</ele>
        <time>2021-10-20T22:00:16Z</time>
      </trkpt>
      <trkpt lat="42.56009" lon="1.97994">
        <ele>2162.14</ele>
        <time>2021-10-20T22:00:16Z</time>
      </trkpt>
      <trkpt lat="42.5603" lon="1.97986">
        <ele>2161.67</ele>
        <time>2021-10-20T22:00:16Z</time>
      </trkpt>
      <trkpt lat="42.56045" lon="1.97981">
        <ele>2162.12</ele>
        <time>2021-10-20T22:00:16Z</time>
      </trkpt>
      <trkpt lat="42.56058" lon="1.97975">
        <ele>2162.98</ele>
        <time>2021-10-20T22:00:16Z</time>
      </trkpt>
      <trkpt lat="42.56065" lon="1.97962">
        <ele>2164.17</ele>
        <time>2021-10-20T22:00:16Z</time>
      </trkpt>
      <trkpt lat="42.56075" lon="1.9795">
        <ele>2164.9</ele>
        <time>2021-10-20T22:00:16Z</time>
      </trkpt>
      <trkpt lat="42.56086" lon="1.97937">
        <ele>2165.57</ele>
        <time>2021-10-20T22:00:16Z</time>
      </trkpt>
      <trkpt lat="42.56096" lon="1.97927">
        <ele>2166.15</ele>
        <time>2021-10-20T22:00:16Z</time>
      </trkpt>
      <trkpt lat="42.56105" lon="1.97916">
        <ele>2166.78</ele>
        <time>2021-10-20T22:00:16Z</time>
      </trkpt>
      <trkpt lat="42.56112" lon="1.97905">
        <ele>2167.64</ele>
        <time>2021-10-20T22:00:16Z</time>
      </trkpt>
      <trkpt lat="42.5612" lon="1.97893">
        <ele>2168.65</ele>
        <time>2021-10-20T22:00:16Z</time>
      </trkpt>
      <trkpt lat="42.56126" lon="1.97883">
        <ele>2168.74</ele>
        <time>2021-10-20T22:00:16Z</time>
      </trkpt>
      <trkpt lat="42.56133" lon="1.97871">
        <ele>2168.49</ele>
        <time>2021-10-20T22:00:16Z</time>
      </trkpt>
      <trkpt lat="42.56142" lon="1.97861">
        <ele>2168.37</ele>
        <time>2021-10-20T22:00:16Z</time>
      </trkpt>
      <trkpt lat="42.56157" lon="1.97844">
        <ele>2167.71</ele>
        <time>2021-10-20T22:00:16Z</time>
      </trkpt>
      <trkpt lat="42.56164" lon="1.97831">
        <ele>2166.67</ele>
        <time>2021-10-20T22:00:16Z</time>
      </trkpt>
      <trkpt lat="42.56171" lon="1.97821">
        <ele>2165.76</ele>
        <time>2021-10-20T22:00:16Z</time>
      </trkpt>
      <trkpt lat="42.56167" lon="1.97801">
        <ele>2163.14</ele>
        <time>2021-10-20T22:00:16Z</time>
      </trkpt>
      <trkpt lat="42.56173" lon="1.97778">
        <ele>2160.13</ele>
        <time>2021-10-20T22:00:16Z</time>
      </trkpt>
      <trkpt lat="42.5618" lon="1.97756">
        <ele>2157.15</ele>
        <time>2021-10-20T22:00:16Z</time>
      </trkpt>
      <trkpt lat="42.56186" lon="1.9773">
        <ele>2156.45</ele>
        <time>2021-10-20T22:00:16Z</time>
      </trkpt>
      <trkpt lat="42.56186" lon="1.97706">
        <ele>2156.1</ele>
        <time>2021-10-20T22:00:16Z</time>
      </trkpt>
      <trkpt lat="42.56188" lon="1.97682">
        <ele>2155.86</ele>
        <time>2021-10-20T22:00:16Z</time>
      </trkpt>
      <trkpt lat="42.56191" lon="1.97626">
        <ele>2157.45</ele>
        <time>2021-10-20T22:00:16Z</time>
      </trkpt>
      <trkpt lat="42.56199" lon="1.97616">
        <ele>2157.67</ele>
        <time>2021-10-20T22:00:16Z</time>
      </trkpt>
      <trkpt lat="42.56208" lon="1.97606">
        <ele>2158.56</ele>
        <time>2021-10-20T22:00:16Z</time>
      </trkpt>
      <trkpt lat="42.56216" lon="1.97598">
        <ele>2159.33</ele>
        <time>2021-10-20T22:00:16Z</time>
      </trkpt>
      <trkpt lat="42.56226" lon="1.97577">
        <ele>2161.58</ele>
        <time>2021-10-20T22:00:16Z</time>
      </trkpt>
      <trkpt lat="42.56233" lon="1.97565">
        <ele>2162.95</ele>
        <time>2021-10-20T22:00:16Z</time>
      </trkpt>
      <trkpt lat="42.5624" lon="1.97555">
        <ele>2164.16</ele>
        <time>2021-10-20T22:00:16Z</time>
      </trkpt>
      <trkpt lat="42.56253" lon="1.97543">
        <ele>2164.73</ele>
        <time>2021-10-20T22:00:16Z</time>
      </trkpt>
      <trkpt lat="42.56273" lon="1.97535">
        <ele>2164.17</ele>
        <time>2021-10-20T22:00:16Z</time>
      </trkpt>
      <trkpt lat="42.56286" lon="1.97528">
        <ele>2163.94</ele>
        <time>2021-10-20T22:00:16Z</time>
      </trkpt>
      <trkpt lat="42.56301" lon="1.97513">
        <ele>2164.3</ele>
        <time>2021-10-20T22:00:16Z</time>
      </trkpt>
      <trkpt lat="42.56311" lon="1.97503">
        <ele>2164.47</ele>
        <time>2021-10-20T22:00:16Z</time>
      </trkpt>
      <trkpt lat="42.56319" lon="1.97494">
        <ele>2164.76</ele>
        <time>2021-10-20T22:00:16Z</time>
      </trkpt>
      <trkpt lat="42.56333" lon="1.97488">
        <ele>2164.19</ele>
        <time>2021-10-20T22:00:16Z</time>
      </trkpt>
      <trkpt lat="42.56349" lon="1.97478">
        <ele>2163.7</ele>
        <time>2021-10-20T22:00:16Z</time>
      </trkpt>
      <trkpt lat="42.56369" lon="1.97466">
        <ele>2163.37</ele>
        <time>2021-10-20T22:00:16Z</time>
      </trkpt>
      <trkpt lat="42.56386" lon="1.97458">
        <ele>2163.21</ele>
        <time>2021-10-20T22:00:16Z</time>
      </trkpt>
      <trkpt lat="42.56401" lon="1.97449">
        <ele>2163.71</ele>
        <time>2021-10-20T22:00:16Z</time>
      </trkpt>
      <trkpt lat="42.56416" lon="1.9744">
        <ele>2164.16</ele>
        <time>2021-10-20T22:00:16Z</time>
      </trkpt>
      <trkpt lat="42.56433" lon="1.97432">
        <ele>2164.36</ele>
        <time>2021-10-20T22:00:16Z</time>
      </trkpt>
      <trkpt lat="42.56446" lon="1.97426">
        <ele>2164.46</ele>
        <time>2021-10-20T22:00:16Z</time>
      </trkpt>
      <trkpt lat="42.56462" lon="1.97426">
        <ele>2165.19</ele>
        <time>2021-10-20T22:00:16Z</time>
      </trkpt>
      <trkpt lat="42.56475" lon="1.97426">
        <ele>2165.84</ele>
        <time>2021-10-20T22:00:16Z</time>
      </trkpt>
      <trkpt lat="42.56492" lon="1.97428">
        <ele>2166.53</ele>
        <time>2021-10-20T22:00:16Z</time>
      </trkpt>
      <trkpt lat="42.56507" lon="1.9743">
        <ele>2167.14</ele>
        <time>2021-10-20T22:00:16Z</time>
      </trkpt>
      <trkpt lat="42.56524" lon="1.97426">
        <ele>2169.07</ele>
        <time>2021-10-20T22:00:16Z</time>
      </trkpt>
      <trkpt lat="42.56543" lon="1.97423">
        <ele>2171.92</ele>
        <time>2021-10-20T22:00:16Z</time>
      </trkpt>
      <trkpt lat="42.5656" lon="1.97418">
        <ele>2174.5</ele>
        <time>2021-10-20T22:00:16Z</time>
      </trkpt>
      <trkpt lat="42.56576" lon="1.97411">
        <ele>2176.92</ele>
        <time>2021-10-20T22:00:16Z</time>
      </trkpt>
      <trkpt lat="42.56586" lon="1.97408">
        <ele>2178.22</ele>
        <time>2021-10-20T22:00:16Z</time>
      </trkpt>
      <trkpt lat="42.56602" lon="1.97406">
        <ele>2178.63</ele>
        <time>2021-10-20T22:00:16Z</time>
      </trkpt>
      <trkpt lat="42.56623" lon="1.97394">
        <ele>2180.05</ele>
        <time>2021-10-20T22:00:16Z</time>
      </trkpt>
      <trkpt lat="42.56637" lon="1.97384">
        <ele>2181.3</ele>
        <time>2021-10-20T22:00:16Z</time>
      </trkpt>
      <trkpt lat="42.56646" lon="1.97376">
        <ele>2182.33</ele>
        <time>2021-10-20T22:00:16Z</time>
      </trkpt>
      <trkpt lat="42.56656" lon="1.97367">
        <ele>2183.41</ele>
        <time>2021-10-20T22:00:16Z</time>
      </trkpt>
      <trkpt lat="42.56665" lon="1.97359">
        <ele>2184.17</ele>
        <time>2021-10-20T22:00:16Z</time>
      </trkpt>
      <trkpt lat="42.56678" lon="1.97353">
        <ele>2184.75</ele>
        <time>2021-10-20T22:00:16Z</time>
      </trkpt>
      <trkpt lat="42.56693" lon="1.97347">
        <ele>2185.4</ele>
        <time>2021-10-20T22:00:16Z</time>
      </trkpt>
      <trkpt lat="42.56709" lon="1.9734">
        <ele>2186.28</ele>
        <time>2021-10-20T22:00:16Z</time>
      </trkpt>
      <trkpt lat="42.56719" lon="1.97333">
        <ele>2187.3</ele>
        <time>2021-10-20T22:00:16Z</time>
      </trkpt>
      <trkpt lat="42.56726" lon="1.97324">
        <ele>2188.61</ele>
        <time>2021-10-20T22:00:16Z</time>
      </trkpt>
      <trkpt lat="42.56733" lon="1.97315">
        <ele>2189.92</ele>
        <time>2021-10-20T22:00:16Z</time>
      </trkpt>
      <trkpt lat="42.56737" lon="1.97304">
        <ele>2191.52</ele>
        <time>2021-10-20T22:00:16Z</time>
      </trkpt>
      <trkpt lat="42.56751" lon="1.97292">
        <ele>2193.27</ele>
        <time>2021-10-20T22:00:16Z</time>
      </trkpt>
      <trkpt lat="42.56766" lon="1.97281">
        <ele>2194.87</ele>
        <time>2021-10-20T22:00:16Z</time>
      </trkpt>
      <trkpt lat="42.56785" lon="1.97264">
        <ele>2197.33</ele>
        <time>2021-10-20T22:00:16Z</time>
      </trkpt>
      <trkpt lat="42.56794" lon="1.97253">
        <ele>2199.13</ele>
        <time>2021-10-20T22:00:16Z</time>
      </trkpt>
      <trkpt lat="42.56805" lon="1.97239">
        <ele>2201.74</ele>
        <time>2021-10-20T22:00:16Z</time>
      </trkpt>
      <trkpt lat="42.56815" lon="1.97228">
        <ele>2203.91</ele>
        <time>2021-10-20T22:00:16Z</time>
      </trkpt>
      <trkpt lat="42.56823" lon="1.97217">
        <ele>2206.02</ele>
        <time>2021-10-20T22:00:16Z</time>
      </trkpt>
      <trkpt lat="42.56835" lon="1.97205">
        <ele>2208.55</ele>
        <time>2021-10-20T22:00:16Z</time>
      </trkpt>
      <trkpt lat="42.56849" lon="1.97194">
        <ele>2210.93</ele>
        <time>2021-10-20T22:00:16Z</time>
      </trkpt>
      <trkpt lat="42.56863" lon="1.97185">
        <ele>2213.46</ele>
        <time>2021-10-20T22:00:16Z</time>
      </trkpt>
      <trkpt lat="42.56879" lon="1.97173">
        <ele>2217.54</ele>
        <time>2021-10-20T22:00:16Z</time>
      </trkpt>
      <trkpt lat="42.5689" lon="1.97166">
        <ele>2220.16</ele>
        <time>2021-10-20T22:00:16Z</time>
      </trkpt>
      <trkpt lat="42.56904" lon="1.97154">
        <ele>2223.95</ele>
        <time>2021-10-20T22:00:16Z</time>
      </trkpt>
      <trkpt lat="42.56914" lon="1.97144">
        <ele>2226.86</ele>
        <time>2021-10-20T22:00:16Z</time>
      </trkpt>
      <trkpt lat="42.56927" lon="1.97135">
        <ele>2229.98</ele>
        <time>2021-10-20T22:00:16Z</time>
      </trkpt>
      <trkpt lat="42.56941" lon="1.97124">
        <ele>2232.33</ele>
        <time>2021-10-20T22:00:16Z</time>
      </trkpt>
      <trkpt lat="42.56958" lon="1.97113">
        <ele>2234.74</ele>
        <time>2021-10-20T22:00:16Z</time>
      </trkpt>
      <trkpt lat="42.56971" lon="1.97106">
        <ele>2236.34</ele>
        <time>2021-10-20T22:00:16Z</time>
      </trkpt>
      <trkpt lat="42.56986" lon="1.97102">
        <ele>2237.96</ele>
        <time>2021-10-20T22:00:16Z</time>
      </trkpt>
      <trkpt lat="42.57001" lon="1.97092">
        <ele>2239.17</ele>
        <time>2021-10-20T22:00:16Z</time>
      </trkpt>
      <trkpt lat="42.57018" lon="1.97088">
        <ele>2239.7</ele>
        <time>2021-10-20T22:00:16Z</time>
      </trkpt>
      <trkpt lat="42.57034" lon="1.97084">
        <ele>2240.09</ele>
        <time>2021-10-20T22:00:16Z</time>
      </trkpt>
      <trkpt lat="42.57056" lon="1.97077">
        <ele>2240.37</ele>
        <time>2021-10-20T22:00:16Z</time>
      </trkpt>
      <trkpt lat="42.57071" lon="1.97071">
        <ele>2240.32</ele>
        <time>2021-10-20T22:00:16Z</time>
      </trkpt>
      <trkpt lat="42.57089" lon="1.97066">
        <ele>2240.3</ele>
        <time>2021-10-20T22:00:16Z</time>
      </trkpt>
      <trkpt lat="42.57105" lon="1.97059">
        <ele>2240.2</ele>
        <time>2021-10-20T22:00:16Z</time>
      </trkpt>
      <trkpt lat="42.57119" lon="1.97054">
        <ele>2240.1</ele>
        <time>2021-10-20T22:00:16Z</time>
      </trkpt>
      <trkpt lat="42.57139" lon="1.97043">
        <ele>2239.32</ele>
        <time>2021-10-20T22:00:16Z</time>
      </trkpt>
      <trkpt lat="42.57152" lon="1.97028">
        <ele>2237.75</ele>
        <time>2021-10-20T22:00:16Z</time>
      </trkpt>
      <trkpt lat="42.57176" lon="1.97029">
        <ele>2236.57</ele>
        <time>2021-10-20T22:00:16Z</time>
      </trkpt>
      <trkpt lat="42.57193" lon="1.97025">
        <ele>2235.4</ele>
        <time>2021-10-20T22:00:16Z</time>
      </trkpt>
      <trkpt lat="42.57212" lon="1.97022">
        <ele>2234.32</ele>
        <time>2021-10-20T22:00:16Z</time>
      </trkpt>
      <trkpt lat="42.57234" lon="1.97024">
        <ele>2233.58</ele>
        <time>2021-10-20T22:00:16Z</time>
      </trkpt>
      <trkpt lat="42.57257" lon="1.97026">
        <ele>2232.76</ele>
        <time>2021-10-20T22:00:16Z</time>
      </trkpt>
      <trkpt lat="42.57292" lon="1.97045">
        <ele>2234.46</ele>
        <time>2021-10-20T22:00:16Z</time>
      </trkpt>
      <trkpt lat="42.57303" lon="1.97077">
        <ele>2236.1</ele>
        <time>2021-10-20T22:00:16Z</time>
      </trkpt>
      <trkpt lat="42.57314" lon="1.97102">
        <ele>2237.08</ele>
        <time>2021-10-20T22:00:16Z</time>
      </trkpt>
      <trkpt lat="42.57319" lon="1.97129">
        <ele>2237.61</ele>
        <time>2021-10-20T22:00:16Z</time>
      </trkpt>
      <trkpt lat="42.57338" lon="1.97154">
        <ele>2238.26</ele>
        <time>2021-10-20T22:00:16Z</time>
      </trkpt>
      <trkpt lat="42.57352" lon="1.97173">
        <ele>2237.98</ele>
        <time>2021-10-20T22:00:16Z</time>
      </trkpt>
      <trkpt lat="42.57364" lon="1.97215">
        <ele>2237.56</ele>
        <time>2021-10-20T22:00:16Z</time>
      </trkpt>
      <trkpt lat="42.57378" lon="1.97266">
        <ele>2236.15</ele>
        <time>2021-10-20T22:00:16Z</time>
      </trkpt>
      <trkpt lat="42.57385" lon="1.97311">
        <ele>2234.45</ele>
        <time>2021-10-20T22:00:16Z</time>
      </trkpt>
      <trkpt lat="42.57387" lon="1.9734">
        <ele>2233.51</ele>
        <time>2021-10-20T22:00:16Z</time>
      </trkpt>
      <trkpt lat="42.57385" lon="1.97387">
        <ele>2233.03</ele>
        <time>2021-10-20T22:00:16Z</time>
      </trkpt>
      <trkpt lat="42.57379" lon="1.97402">
        <ele>2233.28</ele>
        <time>2021-10-20T22:00:16Z</time>
      </trkpt>
      <trkpt lat="42.57373" lon="1.97418">
        <ele>2233.61</ele>
        <time>2021-10-20T22:00:16Z</time>
      </trkpt>
      <trkpt lat="42.57357" lon="1.97455">
        <ele>2235.21</ele>
        <time>2021-10-20T22:00:16Z</time>
      </trkpt>
      <trkpt lat="42.57345" lon="1.97471">
        <ele>2236.41</ele>
        <time>2021-10-20T22:00:16Z</time>
      </trkpt>
      <trkpt lat="42.57335" lon="1.97491">
        <ele>2237.96</ele>
        <time>2021-10-20T22:00:16Z</time>
      </trkpt>
      <trkpt lat="42.57326" lon="1.97505">
        <ele>2238.88</ele>
        <time>2021-10-20T22:00:16Z</time>
      </trkpt>
      <trkpt lat="42.57313" lon="1.97524">
        <ele>2239.41</ele>
        <time>2021-10-20T22:00:16Z</time>
      </trkpt>
      <trkpt lat="42.57306" lon="1.97539">
        <ele>2239.42</ele>
        <time>2021-10-20T22:00:16Z</time>
      </trkpt>
      <trkpt lat="42.57297" lon="1.9756">
        <ele>2239.51</ele>
        <time>2021-10-20T22:00:16Z</time>
      </trkpt>
      <trkpt lat="42.57287" lon="1.97587">
        <ele>2239.39</ele>
        <time>2021-10-20T22:00:16Z</time>
      </trkpt>
      <trkpt lat="42.57279" lon="1.97607">
        <ele>2238.52</ele>
        <time>2021-10-20T22:00:16Z</time>
      </trkpt>
      <trkpt lat="42.57271" lon="1.97626">
        <ele>2237.45</ele>
        <time>2021-10-20T22:00:16Z</time>
      </trkpt>
      <trkpt lat="42.57258" lon="1.97648">
        <ele>2236.28</ele>
        <time>2021-10-20T22:00:16Z</time>
      </trkpt>
      <trkpt lat="42.57247" lon="1.97669">
        <ele>2234.66</ele>
        <time>2021-10-20T22:00:16Z</time>
      </trkpt>
      <trkpt lat="42.57238" lon="1.97687">
        <ele>2233</ele>
        <time>2021-10-20T22:00:16Z</time>
      </trkpt>
      <trkpt lat="42.57229" lon="1.97712">
        <ele>2233.02</ele>
        <time>2021-10-20T22:00:16Z</time>
      </trkpt>
      <trkpt lat="42.57218" lon="1.97733">
        <ele>2231.3</ele>
        <time>2021-10-20T22:00:16Z</time>
      </trkpt>
      <trkpt lat="42.57203" lon="1.97753">
        <ele>2227.27</ele>
        <time>2021-10-20T22:00:16Z</time>
      </trkpt>
      <trkpt lat="42.57192" lon="1.97767">
        <ele>2224.76</ele>
        <time>2021-10-20T22:00:16Z</time>
      </trkpt>
      <trkpt lat="42.57173" lon="1.97786">
        <ele>2219.42</ele>
        <time>2021-10-20T22:00:16Z</time>
      </trkpt>
      <trkpt lat="42.57165" lon="1.97801">
        <ele>2216.87</ele>
        <time>2021-10-20T22:00:16Z</time>
      </trkpt>
      <trkpt lat="42.57154" lon="1.97819">
        <ele>2212.82</ele>
        <time>2021-10-20T22:00:16Z</time>
      </trkpt>
      <trkpt lat="42.57143" lon="1.9784">
        <ele>2209.22</ele>
        <time>2021-10-20T22:00:16Z</time>
      </trkpt>
      <trkpt lat="42.57129" lon="1.97852">
        <ele>2204.74</ele>
        <time>2021-10-20T22:00:16Z</time>
      </trkpt>
      <trkpt lat="42.57115" lon="1.97864">
        <ele>2201.36</ele>
        <time>2021-10-20T22:00:16Z</time>
      </trkpt>
      <trkpt lat="42.57095" lon="1.97879">
        <ele>2195.93</ele>
        <time>2021-10-20T22:00:16Z</time>
      </trkpt>
      <trkpt lat="42.57083" lon="1.97884">
        <ele>2192.47</ele>
        <time>2021-10-20T22:00:16Z</time>
      </trkpt>
      <trkpt lat="42.57074" lon="1.97893">
        <ele>2189.75</ele>
        <time>2021-10-20T22:00:16Z</time>
      </trkpt>
      <trkpt lat="42.57065" lon="1.97897">
        <ele>2187.3</ele>
        <time>2021-10-20T22:00:16Z</time>
      </trkpt>
      <trkpt lat="42.57046" lon="1.97914">
        <ele>2185.8</ele>
        <time>2021-10-20T22:00:16Z</time>
      </trkpt>
      <trkpt lat="42.57035" lon="1.97921">
        <ele>2184.7</ele>
        <time>2021-10-20T22:00:16Z</time>
      </trkpt>
      <trkpt lat="42.57023" lon="1.9793">
        <ele>2183.4</ele>
        <time>2021-10-20T22:00:16Z</time>
      </trkpt>
      <trkpt lat="42.57011" lon="1.9793">
        <ele>2181.88</ele>
        <time>2021-10-20T22:00:16Z</time>
      </trkpt>
      <trkpt lat="42.56998" lon="1.97931">
        <ele>2180.23</ele>
        <time>2021-10-20T22:00:16Z</time>
      </trkpt>
      <trkpt lat="42.5698" lon="1.97931">
        <ele>2178.82</ele>
        <time>2021-10-20T22:00:16Z</time>
      </trkpt>
      <trkpt lat="42.56971" lon="1.97936">
        <ele>2178.17</ele>
        <time>2021-10-20T22:00:16Z</time>
      </trkpt>
      <trkpt lat="42.56963" lon="1.9795">
        <ele>2177.59</ele>
        <time>2021-10-20T22:00:16Z</time>
      </trkpt>
      <trkpt lat="42.56955" lon="1.97965">
        <ele>2177.08</ele>
        <time>2021-10-20T22:00:16Z</time>
      </trkpt>
      <trkpt lat="42.56945" lon="1.97978">
        <ele>2176.54</ele>
        <time>2021-10-20T22:00:16Z</time>
      </trkpt>
      <trkpt lat="42.56937" lon="1.97993">
        <ele>2176.17</ele>
        <time>2021-10-20T22:00:16Z</time>
      </trkpt>
      <trkpt lat="42.56929" lon="1.98007">
        <ele>2175.8</ele>
        <time>2021-10-20T22:00:16Z</time>
      </trkpt>
      <trkpt lat="42.56909" lon="1.98034">
        <ele>2176.31</ele>
        <time>2021-10-20T22:00:16Z</time>
      </trkpt>
      <trkpt lat="42.56896" lon="1.98049">
        <ele>2176.48</ele>
        <time>2021-10-20T22:00:16Z</time>
      </trkpt>
      <trkpt lat="42.56884" lon="1.98061">
        <ele>2176.51</ele>
        <time>2021-10-20T22:00:16Z</time>
      </trkpt>
      <trkpt lat="42.56876" lon="1.98069">
        <ele>2176.46</ele>
        <time>2021-10-20T22:00:16Z</time>
      </trkpt>
      <trkpt lat="42.56864" lon="1.98074">
        <ele>2176.36</ele>
        <time>2021-10-20T22:00:16Z</time>
      </trkpt>
      <trkpt lat="42.56853" lon="1.98075">
        <ele>2176.41</ele>
        <time>2021-10-20T22:00:16Z</time>
      </trkpt>
      <trkpt lat="42.56838" lon="1.9808">
        <ele>2176.55</ele>
        <time>2021-10-20T22:00:16Z</time>
      </trkpt>
      <trkpt lat="42.56822" lon="1.98092">
        <ele>2176.61</ele>
        <time>2021-10-20T22:00:16Z</time>
      </trkpt>
      <trkpt lat="42.56813" lon="1.98113">
        <ele>2176.44</ele>
        <time>2021-10-20T22:00:16Z</time>
      </trkpt>
      <trkpt lat="42.56799" lon="1.9813">
        <ele>2176.39</ele>
        <time>2021-10-20T22:00:16Z</time>
      </trkpt>
      <trkpt lat="42.56773" lon="1.98154">
        <ele>2175.8</ele>
        <time>2021-10-20T22:00:16Z</time>
      </trkpt>
      <trkpt lat="42.56753" lon="1.98181">
        <ele>2174.56</ele>
        <time>2021-10-20T22:00:16Z</time>
      </trkpt>
      <trkpt lat="42.56749" lon="1.98197">
        <ele>2173.99</ele>
        <time>2021-10-20T22:00:16Z</time>
      </trkpt>
      <trkpt lat="42.56742" lon="1.98218">
        <ele>2173</ele>
        <time>2021-10-20T22:00:16Z</time>
      </trkpt>
      <trkpt lat="42.56731" lon="1.98228">
        <ele>2171.94</ele>
        <time>2021-10-20T22:00:16Z</time>
      </trkpt>
      <trkpt lat="42.56718" lon="1.98229">
        <ele>2170.6</ele>
        <time>2021-10-20T22:00:16Z</time>
      </trkpt>
      <trkpt lat="42.567" lon="1.98235">
        <ele>2166.89</ele>
        <time>2021-10-20T22:00:16Z</time>
      </trkpt>
      <trkpt lat="42.56687" lon="1.98239">
        <ele>2164.11</ele>
        <time>2021-10-20T22:00:16Z</time>
      </trkpt>
      <trkpt lat="42.56678" lon="1.98251">
        <ele>2161.54</ele>
        <time>2021-10-20T22:00:16Z</time>
      </trkpt>
      <trkpt lat="42.56666" lon="1.98256">
        <ele>2159.06</ele>
        <time>2021-10-20T22:00:16Z</time>
      </trkpt>
      <trkpt lat="42.56655" lon="1.98258">
        <ele>2157.01</ele>
        <time>2021-10-20T22:00:16Z</time>
      </trkpt>
      <trkpt lat="42.56634" lon="1.98262">
        <ele>2155.58</ele>
        <time>2021-10-20T22:00:16Z</time>
      </trkpt>
      <trkpt lat="42.56623" lon="1.98263">
        <ele>2155.04</ele>
        <time>2021-10-20T22:00:16Z</time>
      </trkpt>
      <trkpt lat="42.56607" lon="1.98266">
        <ele>2154.17</ele>
        <time>2021-10-20T22:00:16Z</time>
      </trkpt>
      <trkpt lat="42.56596" lon="1.98268">
        <ele>2153.57</ele>
        <time>2021-10-20T22:00:16Z</time>
      </trkpt>
      <trkpt lat="42.56586" lon="1.98272">
        <ele>2152.9</ele>
        <time>2021-10-20T22:00:16Z</time>
      </trkpt>
      <trkpt lat="42.56574" lon="1.98285">
        <ele>2152.21</ele>
        <time>2021-10-20T22:00:16Z</time>
      </trkpt>
      <trkpt lat="42.56564" lon="1.98299">
        <ele>2151.54</ele>
        <time>2021-10-20T22:00:16Z</time>
      </trkpt>
      <trkpt lat="42.56554" lon="1.98305">
        <ele>2151.4</ele>
        <time>2021-10-20T22:00:16Z</time>
      </trkpt>
      <trkpt lat="42.56542" lon="1.98316">
        <ele>2151.31</ele>
        <time>2021-10-20T22:00:16Z</time>
      </trkpt>
      <trkpt lat="42.56535" lon="1.98329">
        <ele>2151.07</ele>
        <time>2021-10-20T22:00:16Z</time>
      </trkpt>
      <trkpt lat="42.56531" lon="1.98349">
        <ele>2150.59</ele>
        <time>2021-10-20T22:00:16Z</time>
      </trkpt>
      <trkpt lat="42.56525" lon="1.98364">
        <ele>2150.21</ele>
        <time>2021-10-20T22:00:16Z</time>
      </trkpt>
      <trkpt lat="42.56513" lon="1.98378">
        <ele>2149.94</ele>
        <time>2021-10-20T22:00:16Z</time>
      </trkpt>
      <trkpt lat="42.56503" lon="1.98387">
        <ele>2149.88</ele>
        <time>2021-10-20T22:00:16Z</time>
      </trkpt>
      <trkpt lat="42.56495" lon="1.98399">
        <ele>2149.67</ele>
        <time>2021-10-20T22:00:16Z</time>
      </trkpt>
      <trkpt lat="42.56486" lon="1.98412">
        <ele>2149.34</ele>
        <time>2021-10-20T22:00:16Z</time>
      </trkpt>
      <trkpt lat="42.56483" lon="1.98428">
        <ele>2148.88</ele>
        <time>2021-10-20T22:00:16Z</time>
      </trkpt>
      <trkpt lat="42.56477" lon="1.9846">
        <ele>2147.56</ele>
        <time>2021-10-20T22:00:16Z</time>
      </trkpt>
      <trkpt lat="42.56473" lon="1.9848">
        <ele>2146.52</ele>
        <time>2021-10-20T22:00:16Z</time>
      </trkpt>
      <trkpt lat="42.56464" lon="1.98494">
        <ele>2145.53</ele>
        <time>2021-10-20T22:00:16Z</time>
      </trkpt>
      <trkpt lat="42.56455" lon="1.98504">
        <ele>2144.64</ele>
        <time>2021-10-20T22:00:16Z</time>
      </trkpt>
      <trkpt lat="42.56442" lon="1.98515">
        <ele>2143.19</ele>
        <time>2021-10-20T22:00:16Z</time>
      </trkpt>
      <trkpt lat="42.5643" lon="1.9854">
        <ele>2139.92</ele>
        <time>2021-10-20T22:00:16Z</time>
      </trkpt>
      <trkpt lat="42.56427" lon="1.98555">
        <ele>2138.09</ele>
        <time>2021-10-20T22:00:16Z</time>
      </trkpt>
      <trkpt lat="42.5642" lon="1.98567">
        <ele>2136.49</ele>
        <time>2021-10-20T22:00:16Z</time>
      </trkpt>
      <trkpt lat="42.56407" lon="1.98575">
        <ele>2135.18</ele>
        <time>2021-10-20T22:00:16Z</time>
      </trkpt>
      <trkpt lat="42.56396" lon="1.98589">
        <ele>2133.22</ele>
        <time>2021-10-20T22:00:16Z</time>
      </trkpt>
      <trkpt lat="42.56377" lon="1.98606">
        <ele>2130.7</ele>
        <time>2021-10-20T22:00:16Z</time>
      </trkpt>
      <trkpt lat="42.5636" lon="1.98617">
        <ele>2129.03</ele>
        <time>2021-10-20T22:00:16Z</time>
      </trkpt>
      <trkpt lat="42.56346" lon="1.98635">
        <ele>2126.49</ele>
        <time>2021-10-20T22:00:16Z</time>
      </trkpt>
      <trkpt lat="42.56343" lon="1.98647">
        <ele>2124.94</ele>
        <time>2021-10-20T22:00:16Z</time>
      </trkpt>
      <trkpt lat="42.56337" lon="1.98667">
        <ele>2123.01</ele>
        <time>2021-10-20T22:00:16Z</time>
      </trkpt>
      <trkpt lat="42.5633" lon="1.98679">
        <ele>2121.76</ele>
        <time>2021-10-20T22:00:16Z</time>
      </trkpt>
      <trkpt lat="42.56318" lon="1.98696">
        <ele>2119.93</ele>
        <time>2021-10-20T22:00:16Z</time>
      </trkpt>
      <trkpt lat="42.56303" lon="1.9871">
        <ele>2118.28</ele>
        <time>2021-10-20T22:00:16Z</time>
      </trkpt>
      <trkpt lat="42.56289" lon="1.98719">
        <ele>2117.13</ele>
        <time>2021-10-20T22:00:16Z</time>
      </trkpt>
      <trkpt lat="42.5627" lon="1.98731">
        <ele>2115.53</ele>
        <time>2021-10-20T22:00:16Z</time>
      </trkpt>
      <trkpt lat="42.56266" lon="1.98745">
        <ele>2114.17</ele>
        <time>2021-10-20T22:00:16Z</time>
      </trkpt>
      <trkpt lat="42.56261" lon="1.98759">
        <ele>2112.68</ele>
        <time>2021-10-20T22:00:16Z</time>
      </trkpt>
      <trkpt lat="42.56253" lon="1.98771">
        <ele>2111.1</ele>
        <time>2021-10-20T22:00:16Z</time>
      </trkpt>
      <trkpt lat="42.56244" lon="1.9878">
        <ele>2109.62</ele>
        <time>2021-10-20T22:00:16Z</time>
      </trkpt>
      <trkpt lat="42.56236" lon="1.98787">
        <ele>2108.79</ele>
        <time>2021-10-20T22:00:16Z</time>
      </trkpt>
      <trkpt lat="42.56229" lon="1.98796">
        <ele>2108.08</ele>
        <time>2021-10-20T22:00:16Z</time>
      </trkpt>
      <trkpt lat="42.56221" lon="1.98803">
        <ele>2107.54</ele>
        <time>2021-10-20T22:00:16Z</time>
      </trkpt>
      <trkpt lat="42.56202" lon="1.98814">
        <ele>2106.69</ele>
        <time>2021-10-20T22:00:16Z</time>
      </trkpt>
      <trkpt lat="42.56192" lon="1.98823">
        <ele>2105.89</ele>
        <time>2021-10-20T22:00:16Z</time>
      </trkpt>
      <trkpt lat="42.56182" lon="1.98833">
        <ele>2104.95</ele>
        <time>2021-10-20T22:00:16Z</time>
      </trkpt>
      <trkpt lat="42.56172" lon="1.98843">
        <ele>2103.98</ele>
        <time>2021-10-20T22:00:16Z</time>
      </trkpt>
      <trkpt lat="42.56161" lon="1.98862">
        <ele>2102.73</ele>
        <time>2021-10-20T22:00:16Z</time>
      </trkpt>
      <trkpt lat="42.56157" lon="1.9888">
        <ele>2101.93</ele>
        <time>2021-10-20T22:00:16Z</time>
      </trkpt>
      <trkpt lat="42.5615" lon="1.98895">
        <ele>2101.27</ele>
        <time>2021-10-20T22:00:16Z</time>
      </trkpt>
      <trkpt lat="42.56139" lon="1.98907">
        <ele>2100.72</ele>
        <time>2021-10-20T22:00:16Z</time>
      </trkpt>
      <trkpt lat="42.56127" lon="1.98921">
        <ele>2100.01</ele>
        <time>2021-10-20T22:00:16Z</time>
      </trkpt>
      <trkpt lat="42.56112" lon="1.98936">
        <ele>2100.54</ele>
        <time>2021-10-20T22:00:16Z</time>
      </trkpt>
      <trkpt lat="42.56102" lon="1.98952">
        <ele>2100.83</ele>
        <time>2021-10-20T22:00:16Z</time>
      </trkpt>
      <trkpt lat="42.56095" lon="1.98963">
        <ele>2100.66</ele>
        <time>2021-10-20T22:00:16Z</time>
      </trkpt>
      <trkpt lat="42.56091" lon="1.98975">
        <ele>2100.46</ele>
        <time>2021-10-20T22:00:16Z</time>
      </trkpt>
      <trkpt lat="42.56085" lon="1.98985">
        <ele>2099.87</ele>
        <time>2021-10-20T22:00:16Z</time>
      </trkpt>
      <trkpt lat="42.56077" lon="1.99002">
        <ele>2099.49</ele>
        <time>2021-10-20T22:00:16Z</time>
      </trkpt>
      <trkpt lat="42.56069" lon="1.99023">
        <ele>2099.18</ele>
        <time>2021-10-20T22:00:16Z</time>
      </trkpt>
      <trkpt lat="42.56059" lon="1.99041">
        <ele>2097.9</ele>
        <time>2021-10-20T22:00:16Z</time>
      </trkpt>
      <trkpt lat="42.5605" lon="1.99053">
        <ele>2096.27</ele>
        <time>2021-10-20T22:00:16Z</time>
      </trkpt>
      <trkpt lat="42.56042" lon="1.99061">
        <ele>2094.53</ele>
        <time>2021-10-20T22:00:16Z</time>
      </trkpt>
      <trkpt lat="42.5603" lon="1.99075">
        <ele>2091.88</ele>
        <time>2021-10-20T22:00:16Z</time>
      </trkpt>
      <trkpt lat="42.56021" lon="1.99106">
        <ele>2089.25</ele>
        <time>2021-10-20T22:00:16Z</time>
      </trkpt>
      <trkpt lat="42.56015" lon="1.99133">
        <ele>2086.84</ele>
        <time>2021-10-20T22:00:16Z</time>
      </trkpt>
      <trkpt lat="42.56009" lon="1.99157">
        <ele>2084.24</ele>
        <time>2021-10-20T22:00:16Z</time>
      </trkpt>
      <trkpt lat="42.56009" lon="1.99177">
        <ele>2083.33</ele>
        <time>2021-10-20T22:00:16Z</time>
      </trkpt>
      <trkpt lat="42.56004" lon="1.992">
        <ele>2080.71</ele>
        <time>2021-10-20T22:00:16Z</time>
      </trkpt>
      <trkpt lat="42.56012" lon="1.99226">
        <ele>2081.15</ele>
        <time>2021-10-20T22:00:16Z</time>
      </trkpt>
      <trkpt lat="42.56012" lon="1.99254">
        <ele>2079.11</ele>
        <time>2021-10-20T22:00:16Z</time>
      </trkpt>
      <trkpt lat="42.56015" lon="1.99276">
        <ele>2078.17</ele>
        <time>2021-10-20T22:00:16Z</time>
      </trkpt>
      <trkpt lat="42.56015" lon="1.99301">
        <ele>2075.88</ele>
        <time>2021-10-20T22:00:16Z</time>
      </trkpt>
      <trkpt lat="42.56015" lon="1.99319">
        <ele>2074.23</ele>
        <time>2021-10-20T22:00:16Z</time>
      </trkpt>
      <trkpt lat="42.56014" lon="1.99342">
        <ele>2071.12</ele>
        <time>2021-10-20T22:00:16Z</time>
      </trkpt>
      <trkpt lat="42.56014" lon="1.99359">
        <ele>2068.23</ele>
        <time>2021-10-20T22:00:16Z</time>
      </trkpt>
      <trkpt lat="42.56022" lon="1.99378">
        <ele>2067.36</ele>
        <time>2021-10-20T22:00:16Z</time>
      </trkpt>
      <trkpt lat="42.56031" lon="1.99399">
        <ele>2066.38</ele>
        <time>2021-10-20T22:00:16Z</time>
      </trkpt>
      <trkpt lat="42.56032" lon="1.99419">
        <ele>2062.97</ele>
        <time>2021-10-20T22:00:16Z</time>
      </trkpt>
      <trkpt lat="42.56028" lon="1.99441">
        <ele>2057.82</ele>
        <time>2021-10-20T22:00:16Z</time>
      </trkpt>
      <trkpt lat="42.56024" lon="1.9947">
        <ele>2051.57</ele>
        <time>2021-10-20T22:00:16Z</time>
      </trkpt>
      <trkpt lat="42.56024" lon="1.99493">
        <ele>2048.46</ele>
        <time>2021-10-20T22:00:16Z</time>
      </trkpt>
      <trkpt lat="42.56022" lon="1.99514">
        <ele>2045.27</ele>
        <time>2021-10-20T22:00:16Z</time>
      </trkpt>
      <trkpt lat="42.56016" lon="1.99538">
        <ele>2041.13</ele>
        <time>2021-10-20T22:00:16Z</time>
      </trkpt>
      <trkpt lat="42.5601" lon="1.99561">
        <ele>2038.05</ele>
        <time>2021-10-20T22:00:16Z</time>
      </trkpt>
      <trkpt lat="42.56006" lon="1.99581">
        <ele>2035.79</ele>
        <time>2021-10-20T22:00:16Z</time>
      </trkpt>
      <trkpt lat="42.56" lon="1.99607">
        <ele>2033.02</ele>
        <time>2021-10-20T22:00:16Z</time>
      </trkpt>
      <trkpt lat="42.55994" lon="1.9963">
        <ele>2031.39</ele>
        <time>2021-10-20T22:00:16Z</time>
      </trkpt>
      <trkpt lat="42.55984" lon="1.9965">
        <ele>2029.85</ele>
        <time>2021-10-20T22:00:16Z</time>
      </trkpt>
      <trkpt lat="42.55978" lon="1.99665">
        <ele>2028.94</ele>
        <time>2021-10-20T22:00:16Z</time>
      </trkpt>
      <trkpt lat="42.55975" lon="1.99679">
        <ele>2028.27</ele>
        <time>2021-10-20T22:00:16Z</time>
      </trkpt>
      <trkpt lat="42.55976" lon="1.99695">
        <ele>2027.58</ele>
        <time>2021-10-20T22:00:16Z</time>
      </trkpt>
      <trkpt lat="42.55982" lon="1.99717">
        <ele>2026.79</ele>
        <time>2021-10-20T22:00:16Z</time>
      </trkpt>
      <trkpt lat="42.55987" lon="1.99738">
        <ele>2025.95</ele>
        <time>2021-10-20T22:00:16Z</time>
      </trkpt>
      <trkpt lat="42.55985" lon="1.99756">
        <ele>2022.9</ele>
        <time>2021-10-20T22:00:16Z</time>
      </trkpt>
      <trkpt lat="42.55986" lon="1.9978">
        <ele>2017.02</ele>
        <time>2021-10-20T22:00:16Z</time>
      </trkpt>
      <trkpt lat="42.55983" lon="1.998">
        <ele>2012.13</ele>
        <time>2021-10-20T22:00:16Z</time>
      </trkpt>
      <trkpt lat="42.5598" lon="1.99827">
        <ele>2007.8</ele>
        <time>2021-10-20T22:00:16Z</time>
      </trkpt>
      <trkpt lat="42.55978" lon="1.99849">
        <ele>2006.18</ele>
        <time>2021-10-20T22:00:16Z</time>
      </trkpt>
      <trkpt lat="42.55974" lon="1.99869">
        <ele>2004.78</ele>
        <time>2021-10-20T22:00:16Z</time>
      </trkpt>
      <trkpt lat="42.55959" lon="1.99885">
        <ele>2004.28</ele>
        <time>2021-10-20T22:00:16Z</time>
      </trkpt>
      <trkpt lat="42.55946" lon="1.99896">
        <ele>2004.92</ele>
        <time>2021-10-20T22:00:16Z</time>
      </trkpt>
      <trkpt lat="42.55939" lon="1.99909">
        <ele>2005.41</ele>
        <time>2021-10-20T22:00:16Z</time>
      </trkpt>
      <trkpt lat="42.55925" lon="1.99925">
        <ele>2006.07</ele>
        <time>2021-10-20T22:00:16Z</time>
      </trkpt>
      <trkpt lat="42.55916" lon="1.99935">
        <ele>2006.43</ele>
        <time>2021-10-20T22:00:16Z</time>
      </trkpt>
      <trkpt lat="42.55899" lon="1.99948">
        <ele>2006.93</ele>
        <time>2021-10-20T22:00:16Z</time>
      </trkpt>
      <trkpt lat="42.55886" lon="1.99955">
        <ele>2006.91</ele>
        <time>2021-10-20T22:00:16Z</time>
      </trkpt>
      <trkpt lat="42.55871" lon="1.99965">
        <ele>2006.97</ele>
        <time>2021-10-20T22:00:16Z</time>
      </trkpt>
      <trkpt lat="42.55866" lon="1.99989">
        <ele>2007.6</ele>
        <time>2021-10-20T22:00:16Z</time>
      </trkpt>
      <trkpt lat="42.55852" lon="2.00005">
        <ele>2008.16</ele>
        <time>2021-10-20T22:00:16Z</time>
      </trkpt>
      <trkpt lat="42.55832" lon="2.00002">
        <ele>2008.2</ele>
        <time>2021-10-20T22:00:16Z</time>
      </trkpt>
      <trkpt lat="42.55821" lon="1.99998">
        <ele>2007.85</ele>
        <time>2021-10-20T22:00:16Z</time>
      </trkpt>
      <trkpt lat="42.5581" lon="1.99997">
        <ele>2007.54</ele>
        <time>2021-10-20T22:00:16Z</time>
      </trkpt>
      <trkpt lat="42.55794" lon="2.00012">
        <ele>2007.7</ele>
        <time>2021-10-20T22:00:16Z</time>
      </trkpt>
      <trkpt lat="42.55782" lon="2.00015">
        <ele>2007.47</ele>
        <time>2021-10-20T22:00:16Z</time>
      </trkpt>
      <trkpt lat="42.55762" lon="2.00023">
        <ele>2006.78</ele>
        <time>2021-10-20T22:00:16Z</time>
      </trkpt>
      <trkpt lat="42.55741" lon="2.00033">
        <ele>2004.61</ele>
        <time>2021-10-20T22:00:16Z</time>
      </trkpt>
      <trkpt lat="42.55725" lon="2.00042">
        <ele>2003</ele>
        <time>2021-10-20T22:00:16Z</time>
      </trkpt>
      <trkpt lat="42.55711" lon="2.00044">
        <ele>2002.06</ele>
        <time>2021-10-20T22:00:16Z</time>
      </trkpt>
      <trkpt lat="42.55699" lon="2.00048">
        <ele>2001.18</ele>
        <time>2021-10-20T22:00:16Z</time>
      </trkpt>
      <trkpt lat="42.55683" lon="2.00053">
        <ele>2000.05</ele>
        <time>2021-10-20T22:00:16Z</time>
      </trkpt>
      <trkpt lat="42.55667" lon="2.00056">
        <ele>1999.01</ele>
        <time>2021-10-20T22:00:16Z</time>
      </trkpt>
      <trkpt lat="42.55652" lon="2.00058">
        <ele>1998.09</ele>
        <time>2021-10-20T22:00:16Z</time>
      </trkpt>
      <trkpt lat="42.55638" lon="2.00065">
        <ele>1997.15</ele>
        <time>2021-10-20T22:00:16Z</time>
      </trkpt>
      <trkpt lat="42.55623" lon="2.00076">
        <ele>1996.19</ele>
        <time>2021-10-20T22:00:16Z</time>
      </trkpt>
      <trkpt lat="42.55607" lon="2.00082">
        <ele>1995.17</ele>
        <time>2021-10-20T22:00:16Z</time>
      </trkpt>
      <trkpt lat="42.55589" lon="2.00087">
        <ele>1994.05</ele>
        <time>2021-10-20T22:00:16Z</time>
      </trkpt>
      <trkpt lat="42.55572" lon="2.00092">
        <ele>1992.93</ele>
        <time>2021-10-20T22:00:16Z</time>
      </trkpt>
      <trkpt lat="42.55553" lon="2.00093">
        <ele>1991.85</ele>
        <time>2021-10-20T22:00:16Z</time>
      </trkpt>
      <trkpt lat="42.55536" lon="2.001">
        <ele>1990.6</ele>
        <time>2021-10-20T22:00:16Z</time>
      </trkpt>
      <trkpt lat="42.55525" lon="2.00104">
        <ele>1989.84</ele>
        <time>2021-10-20T22:00:16Z</time>
      </trkpt>
      <trkpt lat="42.55515" lon="2.0011">
        <ele>1989.19</ele>
        <time>2021-10-20T22:00:16Z</time>
      </trkpt>
      <trkpt lat="42.55499" lon="2.00124">
        <ele>1988.29</ele>
        <time>2021-10-20T22:00:16Z</time>
      </trkpt>
      <trkpt lat="42.55481" lon="2.00131">
        <ele>1987.6</ele>
        <time>2021-10-20T22:00:16Z</time>
      </trkpt>
      <trkpt lat="42.55471" lon="2.00132">
        <ele>1987.58</ele>
        <time>2021-10-20T22:00:16Z</time>
      </trkpt>
      <trkpt lat="42.55461" lon="2.00134">
        <ele>1987.55</ele>
        <time>2021-10-20T22:00:16Z</time>
      </trkpt>
      <trkpt lat="42.55446" lon="2.0014">
        <ele>1987.46</ele>
        <time>2021-10-20T22:00:16Z</time>
      </trkpt>
      <trkpt lat="42.5543" lon="2.0014">
        <ele>1987.35</ele>
        <time>2021-10-20T22:00:16Z</time>
      </trkpt>
      <trkpt lat="42.55412" lon="2.00145">
        <ele>1987.07</ele>
        <time>2021-10-20T22:00:16Z</time>
      </trkpt>
      <trkpt lat="42.55387" lon="2.00152">
        <ele>1986.54</ele>
        <time>2021-10-20T22:00:16Z</time>
      </trkpt>
      <trkpt lat="42.55366" lon="2.00156">
        <ele>1986.24</ele>
        <time>2021-10-20T22:00:16Z</time>
      </trkpt>
      <trkpt lat="42.55346" lon="2.00159">
        <ele>1985.99</ele>
        <time>2021-10-20T22:00:16Z</time>
      </trkpt>
      <trkpt lat="42.55325" lon="2.00165">
        <ele>1985.51</ele>
        <time>2021-10-20T22:00:16Z</time>
      </trkpt>
      <trkpt lat="42.55308" lon="2.00171">
        <ele>1985.11</ele>
        <time>2021-10-20T22:00:16Z</time>
      </trkpt>
      <trkpt lat="42.55294" lon="2.00177">
        <ele>1984.77</ele>
        <time>2021-10-20T22:00:16Z</time>
      </trkpt>
      <trkpt lat="42.55279" lon="2.00184">
        <ele>1984.38</ele>
        <time>2021-10-20T22:00:16Z</time>
      </trkpt>
      <trkpt lat="42.55265" lon="2.00193">
        <ele>1984.1</ele>
        <time>2021-10-20T22:00:16Z</time>
      </trkpt>
      <trkpt lat="42.55194" lon="2.00212">
        <ele>1982.36</ele>
        <time>2021-10-20T22:00:16Z</time>
      </trkpt>
      <trkpt lat="42.55181" lon="2.00213">
        <ele>1982.02</ele>
        <time>2021-10-20T22:00:16Z</time>
      </trkpt>
      <trkpt lat="42.55159" lon="2.00221">
        <ele>1981.47</ele>
        <time>2021-10-20T22:00:16Z</time>
      </trkpt>
      <trkpt lat="42.55136" lon="2.00226">
        <ele>1980.82</ele>
        <time>2021-10-20T22:00:16Z</time>
      </trkpt>
      <trkpt lat="42.55107" lon="2.0023">
        <ele>1980.13</ele>
        <time>2021-10-20T22:00:16Z</time>
      </trkpt>
      <trkpt lat="42.55095" lon="2.00233">
        <ele>1979.91</ele>
        <time>2021-10-20T22:00:16Z</time>
      </trkpt>
      <trkpt lat="42.55081" lon="2.00234">
        <ele>1979.56</ele>
        <time>2021-10-20T22:00:16Z</time>
      </trkpt>
      <trkpt lat="42.55059" lon="2.00238">
        <ele>1979.11</ele>
        <time>2021-10-20T22:00:16Z</time>
      </trkpt>
      <trkpt lat="42.55041" lon="2.00241">
        <ele>1978.71</ele>
        <time>2021-10-20T22:00:16Z</time>
      </trkpt>
      <trkpt lat="42.55017" lon="2.00246">
        <ele>1978.23</ele>
        <time>2021-10-20T22:00:16Z</time>
      </trkpt>
      <trkpt lat="42.55007" lon="2.00253">
        <ele>1978.25</ele>
        <time>2021-10-20T22:00:16Z</time>
      </trkpt>
      <trkpt lat="42.5499" lon="2.00259">
        <ele>1977.81</ele>
        <time>2021-10-20T22:00:16Z</time>
      </trkpt>
      <trkpt lat="42.54974" lon="2.00262">
        <ele>1977.21</ele>
        <time>2021-10-20T22:00:16Z</time>
      </trkpt>
      <trkpt lat="42.54953" lon="2.00265">
        <ele>1976.34</ele>
        <time>2021-10-20T22:00:16Z</time>
      </trkpt>
      <trkpt lat="42.5494" lon="2.00269">
        <ele>1975.81</ele>
        <time>2021-10-20T22:00:16Z</time>
      </trkpt>
      <trkpt lat="42.54918" lon="2.00276">
        <ele>1974.67</ele>
        <time>2021-10-20T22:00:16Z</time>
      </trkpt>
      <trkpt lat="42.54895" lon="2.00282">
        <ele>1973.42</ele>
        <time>2021-10-20T22:00:16Z</time>
      </trkpt>
      <trkpt lat="42.5487" lon="2.00286">
        <ele>1972.02</ele>
        <time>2021-10-20T22:00:16Z</time>
      </trkpt>
      <trkpt lat="42.5485" lon="2.00292">
        <ele>1970.96</ele>
        <time>2021-10-20T22:00:16Z</time>
      </trkpt>
      <trkpt lat="42.54831" lon="2.00297">
        <ele>1969.98</ele>
        <time>2021-10-20T22:00:16Z</time>
      </trkpt>
      <trkpt lat="42.54805" lon="2.00307">
        <ele>1968.75</ele>
        <time>2021-10-20T22:00:16Z</time>
      </trkpt>
      <trkpt lat="42.54788" lon="2.00317">
        <ele>1967.92</ele>
        <time>2021-10-20T22:00:16Z</time>
      </trkpt>
      <trkpt lat="42.54778" lon="2.00322">
        <ele>1967.34</ele>
        <time>2021-10-20T22:00:16Z</time>
      </trkpt>
      <trkpt lat="42.54768" lon="2.00328">
        <ele>1966.74</ele>
        <time>2021-10-20T22:00:16Z</time>
      </trkpt>
      <trkpt lat="42.54755" lon="2.00336">
        <ele>1965.88</ele>
        <time>2021-10-20T22:00:16Z</time>
      </trkpt>
      <trkpt lat="42.54746" lon="2.00342">
        <ele>1965.24</ele>
        <time>2021-10-20T22:00:16Z</time>
      </trkpt>
      <trkpt lat="42.54732" lon="2.0035">
        <ele>1964.15</ele>
        <time>2021-10-20T22:00:16Z</time>
      </trkpt>
      <trkpt lat="42.54716" lon="2.0036">
        <ele>1962.79</ele>
        <time>2021-10-20T22:00:16Z</time>
      </trkpt>
      <trkpt lat="42.54689" lon="2.00371">
        <ele>1960.76</ele>
        <time>2021-10-20T22:00:16Z</time>
      </trkpt>
      <trkpt lat="42.54649" lon="2.00399">
        <ele>1957.93</ele>
        <time>2021-10-20T22:00:16Z</time>
      </trkpt>
      <trkpt lat="42.54637" lon="2.00411">
        <ele>1956.97</ele>
        <time>2021-10-20T22:00:16Z</time>
      </trkpt>
      <trkpt lat="42.54625" lon="2.0042">
        <ele>1955.76</ele>
        <time>2021-10-20T22:00:16Z</time>
      </trkpt>
      <trkpt lat="42.54615" lon="2.00428">
        <ele>1954.61</ele>
        <time>2021-10-20T22:00:16Z</time>
      </trkpt>
      <trkpt lat="42.54597" lon="2.00451">
        <ele>1954.24</ele>
        <time>2021-10-20T22:00:16Z</time>
      </trkpt>
      <trkpt lat="42.54582" lon="2.00476">
        <ele>1954.56</ele>
        <time>2021-10-20T22:00:16Z</time>
      </trkpt>
      <trkpt lat="42.5456" lon="2.00518">
        <ele>1955.78</ele>
        <time>2021-10-20T22:00:16Z</time>
      </trkpt>
      <trkpt lat="42.54542" lon="2.00552">
        <ele>1957.37</ele>
        <time>2021-10-20T22:00:16Z</time>
      </trkpt>
      <trkpt lat="42.54534" lon="2.00565">
        <ele>1957.47</ele>
        <time>2021-10-20T22:00:16Z</time>
      </trkpt>
      <trkpt lat="42.545" lon="2.00615">
        <ele>1957.73</ele>
        <time>2021-10-20T22:00:16Z</time>
      </trkpt>
      <trkpt lat="42.54484" lon="2.00627">
        <ele>1957.12</ele>
        <time>2021-10-20T22:00:16Z</time>
      </trkpt>
      <trkpt lat="42.54471" lon="2.00626">
        <ele>1955.46</ele>
        <time>2021-10-20T22:00:16Z</time>
      </trkpt>
      <trkpt lat="42.54461" lon="2.00616">
        <ele>1953.12</ele>
        <time>2021-10-20T22:00:16Z</time>
      </trkpt>
      <trkpt lat="42.54451" lon="2.00602">
        <ele>1950.46</ele>
        <time>2021-10-20T22:00:16Z</time>
      </trkpt>
      <trkpt lat="42.54442" lon="2.00585">
        <ele>1947.71</ele>
        <time>2021-10-20T22:00:16Z</time>
      </trkpt>
      <trkpt lat="42.54422" lon="2.00576">
        <ele>1944.91</ele>
        <time>2021-10-20T22:00:16Z</time>
      </trkpt>
      <trkpt lat="42.5441" lon="2.00576">
        <ele>1943.88</ele>
        <time>2021-10-20T22:00:16Z</time>
      </trkpt>
      <trkpt lat="42.54398" lon="2.00573">
        <ele>1942.46</ele>
        <time>2021-10-20T22:00:16Z</time>
      </trkpt>
      <trkpt lat="42.54386" lon="2.00571">
        <ele>1941.18</ele>
        <time>2021-10-20T22:00:16Z</time>
      </trkpt>
      <trkpt lat="42.54372" lon="2.00569">
        <ele>1939.9</ele>
        <time>2021-10-20T22:00:16Z</time>
      </trkpt>
      <trkpt lat="42.54361" lon="2.00568">
        <ele>1939.01</ele>
        <time>2021-10-20T22:00:16Z</time>
      </trkpt>
      <trkpt lat="42.54333" lon="2.00556">
        <ele>1936.03</ele>
        <time>2021-10-20T22:00:16Z</time>
      </trkpt>
      <trkpt lat="42.54324" lon="2.00553">
        <ele>1935.2</ele>
        <time>2021-10-20T22:00:16Z</time>
      </trkpt>
      <trkpt lat="42.54309" lon="2.00558">
        <ele>1935.41</ele>
        <time>2021-10-20T22:00:16Z</time>
      </trkpt>
      <trkpt lat="42.54303" lon="2.00574">
        <ele>1937.25</ele>
        <time>2021-10-20T22:00:16Z</time>
      </trkpt>
      <trkpt lat="42.54301" lon="2.00603">
        <ele>1942.17</ele>
        <time>2021-10-20T22:00:16Z</time>
      </trkpt>
      <trkpt lat="42.54302" lon="2.00618">
        <ele>1944.63</ele>
        <time>2021-10-20T22:00:16Z</time>
      </trkpt>
      <trkpt lat="42.54314" lon="2.00634">
        <ele>1946.63</ele>
        <time>2021-10-20T22:00:16Z</time>
      </trkpt>
      <trkpt lat="42.54315" lon="2.00659">
        <ele>1952.15</ele>
        <time>2021-10-20T22:00:16Z</time>
      </trkpt>
      <trkpt lat="42.5431" lon="2.00693">
        <ele>1960.53</ele>
        <time>2021-10-20T22:00:16Z</time>
      </trkpt>
      <trkpt lat="42.54301" lon="2.00707">
        <ele>1964.65</ele>
        <time>2021-10-20T22:00:16Z</time>
      </trkpt>
      <trkpt lat="42.5429" lon="2.00726">
        <ele>1970.87</ele>
        <time>2021-10-20T22:00:16Z</time>
      </trkpt>
      <trkpt lat="42.54279" lon="2.00733">
        <ele>1973.77</ele>
        <time>2021-10-20T22:00:16Z</time>
      </trkpt>
      <trkpt lat="42.5427" lon="2.00745">
        <ele>1977.87</ele>
        <time>2021-10-20T22:00:16Z</time>
      </trkpt>
      <trkpt lat="42.5426" lon="2.00757">
        <ele>1982.07</ele>
        <time>2021-10-20T22:00:16Z</time>
      </trkpt>
      <trkpt lat="42.54253" lon="2.00769">
        <ele>1986</ele>
        <time>2021-10-20T22:00:16Z</time>
      </trkpt>
      <trkpt lat="42.54235" lon="2.00788">
        <ele>1994.78</ele>
        <time>2021-10-20T22:00:16Z</time>
      </trkpt>
      <trkpt lat="42.54224" lon="2.00803">
        <ele>2001.44</ele>
        <time>2021-10-20T22:00:16Z</time>
      </trkpt>
      <trkpt lat="42.54214" lon="2.00813">
        <ele>2006.53</ele>
        <time>2021-10-20T22:00:16Z</time>
      </trkpt>
      <trkpt lat="42.54205" lon="2.00821">
        <ele>2010.86</ele>
        <time>2021-10-20T22:00:16Z</time>
      </trkpt>
      <trkpt lat="42.54197" lon="2.00832">
        <ele>2015.85</ele>
        <time>2021-10-20T22:00:16Z</time>
      </trkpt>
      <trkpt lat="42.54188" lon="2.00841">
        <ele>2020.53</ele>
        <time>2021-10-20T22:00:16Z</time>
      </trkpt>
      <trkpt lat="42.54176" lon="2.00852">
        <ele>2025.32</ele>
        <time>2021-10-20T22:00:16Z</time>
      </trkpt>
      <trkpt lat="42.54163" lon="2.00862">
        <ele>2029.63</ele>
        <time>2021-10-20T22:00:16Z</time>
      </trkpt>
      <trkpt lat="42.54143" lon="2.00869">
        <ele>2034.97</ele>
        <time>2021-10-20T22:00:16Z</time>
      </trkpt>
      <trkpt lat="42.54129" lon="2.00876">
        <ele>2039.09</ele>
        <time>2021-10-20T22:00:16Z</time>
      </trkpt>
      <trkpt lat="42.5411" lon="2.00888">
        <ele>2045.21</ele>
        <time>2021-10-20T22:00:16Z</time>
      </trkpt>
      <trkpt lat="42.54097" lon="2.009">
        <ele>2050.15</ele>
        <time>2021-10-20T22:00:16Z</time>
      </trkpt>
      <trkpt lat="42.54086" lon="2.00924">
        <ele>2055.74</ele>
        <time>2021-10-20T22:00:16Z</time>
      </trkpt>
      <trkpt lat="42.54079" lon="2.00945">
        <ele>2059.1</ele>
        <time>2021-10-20T22:00:16Z</time>
      </trkpt>
      <trkpt lat="42.54074" lon="2.0096">
        <ele>2061.51</ele>
        <time>2021-10-20T22:00:16Z</time>
      </trkpt>
      <trkpt lat="42.54066" lon="2.00972">
        <ele>2064.3</ele>
        <time>2021-10-20T22:00:16Z</time>
      </trkpt>
      <trkpt lat="42.54058" lon="2.00989">
        <ele>2067.31</ele>
        <time>2021-10-20T22:00:16Z</time>
      </trkpt>
      <trkpt lat="42.54044" lon="2.01014">
        <ele>2071.82</ele>
        <time>2021-10-20T22:00:16Z</time>
      </trkpt>
      <trkpt lat="42.54029" lon="2.01038">
        <ele>2077.7</ele>
        <time>2021-10-20T22:00:16Z</time>
      </trkpt>
      <trkpt lat="42.54013" lon="2.01058">
        <ele>2083.83</ele>
        <time>2021-10-20T22:00:16Z</time>
      </trkpt>
      <trkpt lat="42.54002" lon="2.01073">
        <ele>2088.07</ele>
        <time>2021-10-20T22:00:16Z</time>
      </trkpt>
      <trkpt lat="42.53995" lon="2.01083">
        <ele>2090.79</ele>
        <time>2021-10-20T22:00:16Z</time>
      </trkpt>
      <trkpt lat="42.53989" lon="2.01093">
        <ele>2093.21</ele>
        <time>2021-10-20T22:00:16Z</time>
      </trkpt>
      <trkpt lat="42.53981" lon="2.01102">
        <ele>2096.18</ele>
        <time>2021-10-20T22:00:16Z</time>
      </trkpt>
      <trkpt lat="42.53973" lon="2.01111">
        <ele>2099.26</ele>
        <time>2021-10-20T22:00:16Z</time>
      </trkpt>
      <trkpt lat="42.53965" lon="2.01118">
        <ele>2102.58</ele>
        <time>2021-10-20T22:00:16Z</time>
      </trkpt>
      <trkpt lat="42.53948" lon="2.01127">
        <ele>2109.17</ele>
        <time>2021-10-20T22:00:16Z</time>
      </trkpt>
      <trkpt lat="42.53931" lon="2.01134">
        <ele>2115.67</ele>
        <time>2021-10-20T22:00:16Z</time>
      </trkpt>
      <trkpt lat="42.5392" lon="2.01138">
        <ele>2119.85</ele>
        <time>2021-10-20T22:00:16Z</time>
      </trkpt>
      <trkpt lat="42.53901" lon="2.01144">
        <ele>2126.37</ele>
        <time>2021-10-20T22:00:16Z</time>
      </trkpt>
      <trkpt lat="42.53854" lon="2.01152">
        <ele>2138.01</ele>
        <time>2021-10-20T22:00:16Z</time>
      </trkpt>
      <trkpt lat="42.53841" lon="2.01161">
        <ele>2141.65</ele>
        <time>2021-10-20T22:00:16Z</time>
      </trkpt>
      <trkpt lat="42.53828" lon="2.01165">
        <ele>2144.57</ele>
        <time>2021-10-20T22:00:16Z</time>
      </trkpt>
      <trkpt lat="42.53805" lon="2.01181">
        <ele>2149.85</ele>
        <time>2021-10-20T22:00:16Z</time>
      </trkpt>
      <trkpt lat="42.53788" lon="2.01193">
        <ele>2153.88</ele>
        <time>2021-10-20T22:00:16Z</time>
      </trkpt>
      <trkpt lat="42.5378" lon="2.01199">
        <ele>2155.91</ele>
        <time>2021-10-20T22:00:16Z</time>
      </trkpt>
      <trkpt lat="42.53743" lon="2.01225">
        <ele>2166.14</ele>
        <time>2021-10-20T22:00:16Z</time>
      </trkpt>
      <trkpt lat="42.53734" lon="2.01231">
        <ele>2168.65</ele>
        <time>2021-10-20T22:00:16Z</time>
      </trkpt>
      <trkpt lat="42.53725" lon="2.01234">
        <ele>2170.89</ele>
        <time>2021-10-20T22:00:16Z</time>
      </trkpt>
      <trkpt lat="42.53712" lon="2.01243">
        <ele>2174.47</ele>
        <time>2021-10-20T22:00:16Z</time>
      </trkpt>
      <trkpt lat="42.53701" lon="2.01247">
        <ele>2177.2</ele>
        <time>2021-10-20T22:00:16Z</time>
      </trkpt>
      <trkpt lat="42.53693" lon="2.01252">
        <ele>2179.11</ele>
        <time>2021-10-20T22:00:16Z</time>
      </trkpt>
      <trkpt lat="42.53683" lon="2.01259">
        <ele>2181.47</ele>
        <time>2021-10-20T22:00:16Z</time>
      </trkpt>
      <trkpt lat="42.53674" lon="2.01266">
        <ele>2183.54</ele>
        <time>2021-10-20T22:00:16Z</time>
      </trkpt>
      <trkpt lat="42.53663" lon="2.01269">
        <ele>2185.7</ele>
        <time>2021-10-20T22:00:16Z</time>
      </trkpt>
      <trkpt lat="42.53654" lon="2.01276">
        <ele>2187.63</ele>
        <time>2021-10-20T22:00:16Z</time>
      </trkpt>
      <trkpt lat="42.53636" lon="2.01287">
        <ele>2191.16</ele>
        <time>2021-10-20T22:00:16Z</time>
      </trkpt>
      <trkpt lat="42.53619" lon="2.01297">
        <ele>2193.78</ele>
        <time>2021-10-20T22:00:16Z</time>
      </trkpt>
      <trkpt lat="42.53601" lon="2.01311">
        <ele>2196.08</ele>
        <time>2021-10-20T22:00:16Z</time>
      </trkpt>
      <trkpt lat="42.53565" lon="2.01303">
        <ele>2200.38</ele>
        <time>2021-10-20T22:00:16Z</time>
      </trkpt>
      <trkpt lat="42.53555" lon="2.013">
        <ele>2201.33</ele>
        <time>2021-10-20T22:00:16Z</time>
      </trkpt>
      <trkpt lat="42.5354" lon="2.01298">
        <ele>2202.57</ele>
        <time>2021-10-20T22:00:16Z</time>
      </trkpt>
      <trkpt lat="42.53527" lon="2.01299">
        <ele>2203.55</ele>
        <time>2021-10-20T22:00:16Z</time>
      </trkpt>
      <trkpt lat="42.53518" lon="2.01303">
        <ele>2204.1</ele>
        <time>2021-10-20T22:00:16Z</time>
      </trkpt>
      <trkpt lat="42.53506" lon="2.01318">
        <ele>2204.41</ele>
        <time>2021-10-20T22:00:16Z</time>
      </trkpt>
      <trkpt lat="42.53499" lon="2.01333">
        <ele>2204.56</ele>
        <time>2021-10-20T22:00:16Z</time>
      </trkpt>
      <trkpt lat="42.53495" lon="2.01347">
        <ele>2204.63</ele>
        <time>2021-10-20T22:00:16Z</time>
      </trkpt>
      <trkpt lat="42.53491" lon="2.01363">
        <ele>2204.11</ele>
        <time>2021-10-20T22:00:16Z</time>
      </trkpt>
      <trkpt lat="42.5348" lon="2.014">
        <ele>2202.79</ele>
        <time>2021-10-20T22:00:16Z</time>
      </trkpt>
      <trkpt lat="42.53474" lon="2.01411">
        <ele>2202.26</ele>
        <time>2021-10-20T22:00:16Z</time>
      </trkpt>
      <trkpt lat="42.53465" lon="2.01431">
        <ele>2201.29</ele>
        <time>2021-10-20T22:00:16Z</time>
      </trkpt>
      <trkpt lat="42.5345" lon="2.01454">
        <ele>2199.3</ele>
        <time>2021-10-20T22:00:16Z</time>
      </trkpt>
      <trkpt lat="42.53437" lon="2.01467">
        <ele>2197.33</ele>
        <time>2021-10-20T22:00:16Z</time>
      </trkpt>
      <trkpt lat="42.53406" lon="2.01481">
        <ele>2188.64</ele>
        <time>2021-10-20T22:00:16Z</time>
      </trkpt>
      <trkpt lat="42.53389" lon="2.01482">
        <ele>2182.92</ele>
        <time>2021-10-20T22:00:16Z</time>
      </trkpt>
      <trkpt lat="42.53375" lon="2.01483">
        <ele>2178.18</ele>
        <time>2021-10-20T22:00:16Z</time>
      </trkpt>
      <trkpt lat="42.53365" lon="2.01483">
        <ele>2174.84</ele>
        <time>2021-10-20T22:00:16Z</time>
      </trkpt>
      <trkpt lat="42.53354" lon="2.01483">
        <ele>2171.19</ele>
        <time>2021-10-20T22:00:16Z</time>
      </trkpt>
      <trkpt lat="42.53345" lon="2.01483">
        <ele>2168.27</ele>
        <time>2021-10-20T22:00:16Z</time>
      </trkpt>
      <trkpt lat="42.53332" lon="2.01483">
        <ele>2164.05</ele>
        <time>2021-10-20T22:00:16Z</time>
      </trkpt>
      <trkpt lat="42.53318" lon="2.01484">
        <ele>2159.4</ele>
        <time>2021-10-20T22:00:16Z</time>
      </trkpt>
      <trkpt lat="42.53307" lon="2.01487">
        <ele>2155.53</ele>
        <time>2021-10-20T22:00:16Z</time>
      </trkpt>
      <trkpt lat="42.53298" lon="2.01492">
        <ele>2152.1</ele>
        <time>2021-10-20T22:00:16Z</time>
      </trkpt>
      <trkpt lat="42.53289" lon="2.01496">
        <ele>2148.75</ele>
        <time>2021-10-20T22:00:16Z</time>
      </trkpt>
      <trkpt lat="42.53278" lon="2.01504">
        <ele>2145.15</ele>
        <time>2021-10-20T22:00:16Z</time>
      </trkpt>
      <trkpt lat="42.53266" lon="2.01514">
        <ele>2141.16</ele>
        <time>2021-10-20T22:00:16Z</time>
      </trkpt>
      <trkpt lat="42.53258" lon="2.01521">
        <ele>2138.47</ele>
        <time>2021-10-20T22:00:16Z</time>
      </trkpt>
      <trkpt lat="42.53249" lon="2.01528">
        <ele>2135.53</ele>
        <time>2021-10-20T22:00:16Z</time>
      </trkpt>
      <trkpt lat="42.53236" lon="2.01557">
        <ele>2127.81</ele>
        <time>2021-10-20T22:00:16Z</time>
      </trkpt>
      <trkpt lat="42.5323" lon="2.0157">
        <ele>2124.24</ele>
        <time>2021-10-20T22:00:16Z</time>
      </trkpt>
      <trkpt lat="42.53225" lon="2.01582">
        <ele>2121.08</ele>
        <time>2021-10-20T22:00:16Z</time>
      </trkpt>
      <trkpt lat="42.53217" lon="2.01595">
        <ele>2117.2</ele>
        <time>2021-10-20T22:00:16Z</time>
      </trkpt>
      <trkpt lat="42.5321" lon="2.01611">
        <ele>2112.92</ele>
        <time>2021-10-20T22:00:16Z</time>
      </trkpt>
      <trkpt lat="42.53198" lon="2.01634">
        <ele>2106.27</ele>
        <time>2021-10-20T22:00:16Z</time>
      </trkpt>
      <trkpt lat="42.53195" lon="2.01647">
        <ele>2103.19</ele>
        <time>2021-10-20T22:00:16Z</time>
      </trkpt>
      <trkpt lat="42.53184" lon="2.01665">
        <ele>2097.84</ele>
        <time>2021-10-20T22:00:16Z</time>
      </trkpt>
      <trkpt lat="42.53178" lon="2.01676">
        <ele>2095.09</ele>
        <time>2021-10-20T22:00:16Z</time>
      </trkpt>
      <trkpt lat="42.53172" lon="2.01693">
        <ele>2091.59</ele>
        <time>2021-10-20T22:00:16Z</time>
      </trkpt>
      <trkpt lat="42.53167" lon="2.01706">
        <ele>2088.88</ele>
        <time>2021-10-20T22:00:16Z</time>
      </trkpt>
      <trkpt lat="42.53161" lon="2.0172">
        <ele>2085.9</ele>
        <time>2021-10-20T22:00:16Z</time>
      </trkpt>
      <trkpt lat="42.53153" lon="2.01733">
        <ele>2082.8</ele>
        <time>2021-10-20T22:00:16Z</time>
      </trkpt>
      <trkpt lat="42.53147" lon="2.01748">
        <ele>2080.65</ele>
        <time>2021-10-20T22:00:16Z</time>
      </trkpt>
      <trkpt lat="42.53138" lon="2.01761">
        <ele>2078.58</ele>
        <time>2021-10-20T22:00:16Z</time>
      </trkpt>
      <trkpt lat="42.53124" lon="2.01782">
        <ele>2075.41</ele>
        <time>2021-10-20T22:00:16Z</time>
      </trkpt>
      <trkpt lat="42.53116" lon="2.01794">
        <ele>2073.66</ele>
        <time>2021-10-20T22:00:16Z</time>
      </trkpt>
      <trkpt lat="42.53106" lon="2.01805">
        <ele>2071.77</ele>
        <time>2021-10-20T22:00:16Z</time>
      </trkpt>
      <trkpt lat="42.53099" lon="2.01814">
        <ele>2070.46</ele>
        <time>2021-10-20T22:00:16Z</time>
      </trkpt>
      <trkpt lat="42.53085" lon="2.01826">
        <ele>2068.11</ele>
        <time>2021-10-20T22:00:16Z</time>
      </trkpt>
      <trkpt lat="42.53076" lon="2.01834">
        <ele>2066.44</ele>
        <time>2021-10-20T22:00:16Z</time>
      </trkpt>
      <trkpt lat="42.53069" lon="2.01842">
        <ele>2065.02</ele>
        <time>2021-10-20T22:00:16Z</time>
      </trkpt>
      <trkpt lat="42.53061" lon="2.01851">
        <ele>2063.44</ele>
        <time>2021-10-20T22:00:16Z</time>
      </trkpt>
      <trkpt lat="42.5305" lon="2.01864">
        <ele>2061.27</ele>
        <time>2021-10-20T22:00:16Z</time>
      </trkpt>
      <trkpt lat="42.53039" lon="2.01876">
        <ele>2059.27</ele>
        <time>2021-10-20T22:00:16Z</time>
      </trkpt>
      <trkpt lat="42.53029" lon="2.01887">
        <ele>2057.74</ele>
        <time>2021-10-20T22:00:16Z</time>
      </trkpt>
      <trkpt lat="42.53019" lon="2.01899">
        <ele>2056.28</ele>
        <time>2021-10-20T22:00:16Z</time>
      </trkpt>
      <trkpt lat="42.53011" lon="2.0191">
        <ele>2055.28</ele>
        <time>2021-10-20T22:00:16Z</time>
      </trkpt>
      <trkpt lat="42.52998" lon="2.01925">
        <ele>2054.12</ele>
        <time>2021-10-20T22:00:16Z</time>
      </trkpt>
      <trkpt lat="42.52987" lon="2.01935">
        <ele>2053.17</ele>
        <time>2021-10-20T22:00:16Z</time>
      </trkpt>
      <trkpt lat="42.52975" lon="2.01937">
        <ele>2052.27</ele>
        <time>2021-10-20T22:00:16Z</time>
      </trkpt>
      <trkpt lat="42.5296" lon="2.01938">
        <ele>2051.16</ele>
        <time>2021-10-20T22:00:16Z</time>
      </trkpt>
      <trkpt lat="42.52953" lon="2.01924">
        <ele>2050.85</ele>
        <time>2021-10-20T22:00:16Z</time>
      </trkpt>
      <trkpt lat="42.5294" lon="2.01902">
        <ele>2050.4</ele>
        <time>2021-10-20T22:00:16Z</time>
      </trkpt>
      <trkpt lat="42.52931" lon="2.01894">
        <ele>2050.16</ele>
        <time>2021-10-20T22:00:16Z</time>
      </trkpt>
      <trkpt lat="42.52919" lon="2.01889">
        <ele>2049.73</ele>
        <time>2021-10-20T22:00:16Z</time>
      </trkpt>
      <trkpt lat="42.52908" lon="2.01882">
        <ele>2049.33</ele>
        <time>2021-10-20T22:00:16Z</time>
      </trkpt>
      <trkpt lat="42.52896" lon="2.01879">
        <ele>2048.84</ele>
        <time>2021-10-20T22:00:16Z</time>
      </trkpt>
      <trkpt lat="42.52878" lon="2.01879">
        <ele>2048.07</ele>
        <time>2021-10-20T22:00:16Z</time>
      </trkpt>
      <trkpt lat="42.52868" lon="2.01879">
        <ele>2047.88</ele>
        <time>2021-10-20T22:00:16Z</time>
      </trkpt>
      <trkpt lat="42.52856" lon="2.01879">
        <ele>2047.7</ele>
        <time>2021-10-20T22:00:16Z</time>
      </trkpt>
      <trkpt lat="42.5283" lon="2.01877">
        <ele>2047.33</ele>
        <time>2021-10-20T22:00:16Z</time>
      </trkpt>
      <trkpt lat="42.52818" lon="2.01873">
        <ele>2047.13</ele>
        <time>2021-10-20T22:00:16Z</time>
      </trkpt>
      <trkpt lat="42.52807" lon="2.01867">
        <ele>2046.82</ele>
        <time>2021-10-20T22:00:16Z</time>
      </trkpt>
      <trkpt lat="42.52794" lon="2.01867">
        <ele>2047.22</ele>
        <time>2021-10-20T22:00:16Z</time>
      </trkpt>
      <trkpt lat="42.52777" lon="2.01873">
        <ele>2047.87</ele>
        <time>2021-10-20T22:00:16Z</time>
      </trkpt>
      <trkpt lat="42.5277" lon="2.01881">
        <ele>2048.04</ele>
        <time>2021-10-20T22:00:16Z</time>
      </trkpt>
      <trkpt lat="42.52757" lon="2.01912">
        <ele>2048.06</ele>
        <time>2021-10-20T22:00:16Z</time>
      </trkpt>
      <trkpt lat="42.52741" lon="2.01927">
        <ele>2048.19</ele>
        <time>2021-10-20T22:00:16Z</time>
      </trkpt>
      <trkpt lat="42.52731" lon="2.01935">
        <ele>2048.37</ele>
        <time>2021-10-20T22:00:16Z</time>
      </trkpt>
      <trkpt lat="42.52722" lon="2.01941">
        <ele>2048.53</ele>
        <time>2021-10-20T22:00:16Z</time>
      </trkpt>
      <trkpt lat="42.52713" lon="2.01953">
        <ele>2048.22</ele>
        <time>2021-10-20T22:00:16Z</time>
      </trkpt>
      <trkpt lat="42.52681" lon="2.01979">
        <ele>2046.83</ele>
        <time>2021-10-20T22:00:16Z</time>
      </trkpt>
      <trkpt lat="42.52673" lon="2.02008">
        <ele>2044.34</ele>
        <time>2021-10-20T22:00:16Z</time>
      </trkpt>
      <trkpt lat="42.52669" lon="2.02026">
        <ele>2043.4</ele>
        <time>2021-10-20T22:00:16Z</time>
      </trkpt>
      <trkpt lat="42.52661" lon="2.02037">
        <ele>2043.17</ele>
        <time>2021-10-20T22:00:16Z</time>
      </trkpt>
      <trkpt lat="42.5265" lon="2.02057">
        <ele>2042.49</ele>
        <time>2021-10-20T22:00:16Z</time>
      </trkpt>
      <trkpt lat="42.52642" lon="2.02068">
        <ele>2042.07</ele>
        <time>2021-10-20T22:00:16Z</time>
      </trkpt>
      <trkpt lat="42.52627" lon="2.02083">
        <ele>2041.45</ele>
        <time>2021-10-20T22:00:16Z</time>
      </trkpt>
      <trkpt lat="42.5262" lon="2.02094">
        <ele>2040.86</ele>
        <time>2021-10-20T22:00:16Z</time>
      </trkpt>
      <trkpt lat="42.52608" lon="2.02105">
        <ele>2040.17</ele>
        <time>2021-10-20T22:00:16Z</time>
      </trkpt>
      <trkpt lat="42.52586" lon="2.02127">
        <ele>2038.79</ele>
        <time>2021-10-20T22:00:16Z</time>
      </trkpt>
      <trkpt lat="42.52553" lon="2.02158">
        <ele>2037.09</ele>
        <time>2021-10-20T22:00:16Z</time>
      </trkpt>
      <trkpt lat="42.52539" lon="2.0217">
        <ele>2036.4</ele>
        <time>2021-10-20T22:00:16Z</time>
      </trkpt>
      <trkpt lat="42.52527" lon="2.02174">
        <ele>2035.88</ele>
        <time>2021-10-20T22:00:16Z</time>
      </trkpt>
      <trkpt lat="42.52515" lon="2.02181">
        <ele>2034.84</ele>
        <time>2021-10-20T22:00:16Z</time>
      </trkpt>
      <trkpt lat="42.52505" lon="2.02188">
        <ele>2033.9</ele>
        <time>2021-10-20T22:00:16Z</time>
      </trkpt>
      <trkpt lat="42.52498" lon="2.02209">
        <ele>2032.06</ele>
        <time>2021-10-20T22:00:16Z</time>
      </trkpt>
      <trkpt lat="42.52494" lon="2.02221">
        <ele>2031.24</ele>
        <time>2021-10-20T22:00:16Z</time>
      </trkpt>
      <trkpt lat="42.52483" lon="2.02245">
        <ele>2030.41</ele>
        <time>2021-10-20T22:00:16Z</time>
      </trkpt>
      <trkpt lat="42.52475" lon="2.02268">
        <ele>2029.73</ele>
        <time>2021-10-20T22:00:16Z</time>
      </trkpt>
      <trkpt lat="42.52421" lon="2.02331">
        <ele>2025.7</ele>
        <time>2021-10-20T22:00:16Z</time>
      </trkpt>
      <trkpt lat="42.52406" lon="2.02341">
        <ele>2024.15</ele>
        <time>2021-10-20T22:00:16Z</time>
      </trkpt>
      <trkpt lat="42.52383" lon="2.02352">
        <ele>2021.71</ele>
        <time>2021-10-20T22:00:16Z</time>
      </trkpt>
      <trkpt lat="42.52356" lon="2.02361">
        <ele>2019.25</ele>
        <time>2021-10-20T22:00:16Z</time>
      </trkpt>
      <trkpt lat="42.52339" lon="2.02367">
        <ele>2017.78</ele>
        <time>2021-10-20T22:00:16Z</time>
      </trkpt>
      <trkpt lat="42.52328" lon="2.02368">
        <ele>2016.7</ele>
        <time>2021-10-20T22:00:16Z</time>
      </trkpt>
      <trkpt lat="42.52305" lon="2.02367">
        <ele>2014.75</ele>
        <time>2021-10-20T22:00:16Z</time>
      </trkpt>
      <trkpt lat="42.52286" lon="2.02359">
        <ele>2012.7</ele>
        <time>2021-10-20T22:00:16Z</time>
      </trkpt>
      <trkpt lat="42.52276" lon="2.02351">
        <ele>2011.42</ele>
        <time>2021-10-20T22:00:16Z</time>
      </trkpt>
      <trkpt lat="42.5226" lon="2.02324">
        <ele>2008.84</ele>
        <time>2021-10-20T22:00:16Z</time>
      </trkpt>
      <trkpt lat="42.5226" lon="2.02309">
        <ele>2008.2</ele>
        <time>2021-10-20T22:00:16Z</time>
      </trkpt>
      <trkpt lat="42.52261" lon="2.0229">
        <ele>2007.49</ele>
        <time>2021-10-20T22:00:16Z</time>
      </trkpt>
      <trkpt lat="42.52262" lon="2.02274">
        <ele>2007.12</ele>
        <time>2021-10-20T22:00:16Z</time>
      </trkpt>
      <trkpt lat="42.52261" lon="2.02262">
        <ele>2006.66</ele>
        <time>2021-10-20T22:00:16Z</time>
      </trkpt>
      <trkpt lat="42.52259" lon="2.02249">
        <ele>2006.03</ele>
        <time>2021-10-20T22:00:16Z</time>
      </trkpt>
      <trkpt lat="42.52258" lon="2.02237">
        <ele>2005.59</ele>
        <time>2021-10-20T22:00:16Z</time>
      </trkpt>
      <trkpt lat="42.52257" lon="2.02224">
        <ele>2005.24</ele>
        <time>2021-10-20T22:00:16Z</time>
      </trkpt>
      <trkpt lat="42.52256" lon="2.02205">
        <ele>2004.87</ele>
        <time>2021-10-20T22:00:16Z</time>
      </trkpt>
      <trkpt lat="42.52246" lon="2.02173">
        <ele>2004.26</ele>
        <time>2021-10-20T22:00:16Z</time>
      </trkpt>
      <trkpt lat="42.52242" lon="2.02161">
        <ele>2003.88</ele>
        <time>2021-10-20T22:00:16Z</time>
      </trkpt>
      <trkpt lat="42.52236" lon="2.02139">
        <ele>2003.04</ele>
        <time>2021-10-20T22:00:16Z</time>
      </trkpt>
      <trkpt lat="42.5221" lon="2.02102">
        <ele>1999.26</ele>
        <time>2021-10-20T22:00:16Z</time>
      </trkpt>
      <trkpt lat="42.52206" lon="2.02091">
        <ele>1998.02</ele>
        <time>2021-10-20T22:00:16Z</time>
      </trkpt>
      <trkpt lat="42.52195" lon="2.02073">
        <ele>1995.53</ele>
        <time>2021-10-20T22:00:16Z</time>
      </trkpt>
      <trkpt lat="42.52168" lon="2.02056">
        <ele>1992.28</ele>
        <time>2021-10-20T22:00:16Z</time>
      </trkpt>
      <trkpt lat="42.52158" lon="2.02035">
        <ele>1989.75</ele>
        <time>2021-10-20T22:00:16Z</time>
      </trkpt>
      <trkpt lat="42.52135" lon="2.02016">
        <ele>1984.79</ele>
        <time>2021-10-20T22:00:16Z</time>
      </trkpt>
      <trkpt lat="42.52124" lon="2.02005">
        <ele>1982.23</ele>
        <time>2021-10-20T22:00:16Z</time>
      </trkpt>
      <trkpt lat="42.52115" lon="2.02002">
        <ele>1980.76</ele>
        <time>2021-10-20T22:00:16Z</time>
      </trkpt>
      <trkpt lat="42.52104" lon="2.02">
        <ele>1979.09</ele>
        <time>2021-10-20T22:00:16Z</time>
      </trkpt>
      <trkpt lat="42.52094" lon="2.01997">
        <ele>1977.44</ele>
        <time>2021-10-20T22:00:16Z</time>
      </trkpt>
      <trkpt lat="42.5208" lon="2.01993">
        <ele>1975.05</ele>
        <time>2021-10-20T22:00:16Z</time>
      </trkpt>
      <trkpt lat="42.52064" lon="2.01979">
        <ele>1971.19</ele>
        <time>2021-10-20T22:00:16Z</time>
      </trkpt>
      <trkpt lat="42.52044" lon="2.01966">
        <ele>1966.58</ele>
        <time>2021-10-20T22:00:16Z</time>
      </trkpt>
      <trkpt lat="42.52036" lon="2.01961">
        <ele>1964.81</ele>
        <time>2021-10-20T22:00:16Z</time>
      </trkpt>
      <trkpt lat="42.52026" lon="2.0196">
        <ele>1963.22</ele>
        <time>2021-10-20T22:00:16Z</time>
      </trkpt>
      <trkpt lat="42.52011" lon="2.01958">
        <ele>1960.74</ele>
        <time>2021-10-20T22:00:16Z</time>
      </trkpt>
      <trkpt lat="42.52002" lon="2.01955">
        <ele>1958.94</ele>
        <time>2021-10-20T22:00:16Z</time>
      </trkpt>
      <trkpt lat="42.51992" lon="2.01954">
        <ele>1957.28</ele>
        <time>2021-10-20T22:00:16Z</time>
      </trkpt>
      <trkpt lat="42.51982" lon="2.01952">
        <ele>1955.48</ele>
        <time>2021-10-20T22:00:16Z</time>
      </trkpt>
      <trkpt lat="42.51966" lon="2.01967">
        <ele>1956.24</ele>
        <time>2021-10-20T22:00:16Z</time>
      </trkpt>
      <trkpt lat="42.51956" lon="2.01986">
        <ele>1958.39</ele>
        <time>2021-10-20T22:00:16Z</time>
      </trkpt>
      <trkpt lat="42.51946" lon="2.02005">
        <ele>1960.55</ele>
        <time>2021-10-20T22:00:16Z</time>
      </trkpt>
      <trkpt lat="42.51931" lon="2.02035">
        <ele>1963.4</ele>
        <time>2021-10-20T22:00:16Z</time>
      </trkpt>
      <trkpt lat="42.51924" lon="2.02044">
        <ele>1963.68</ele>
        <time>2021-10-20T22:00:16Z</time>
      </trkpt>
      <trkpt lat="42.51899" lon="2.02078">
        <ele>1962.59</ele>
        <time>2021-10-20T22:00:16Z</time>
      </trkpt>
      <trkpt lat="42.51891" lon="2.02086">
        <ele>1961.35</ele>
        <time>2021-10-20T22:00:16Z</time>
      </trkpt>
      <trkpt lat="42.51881" lon="2.02099">
        <ele>1960.05</ele>
        <time>2021-10-20T22:00:16Z</time>
      </trkpt>
      <trkpt lat="42.51868" lon="2.02137">
        <ele>1960.52</ele>
        <time>2021-10-20T22:00:16Z</time>
      </trkpt>
      <trkpt lat="42.51863" lon="2.02152">
        <ele>1960.7</ele>
        <time>2021-10-20T22:00:16Z</time>
      </trkpt>
      <trkpt lat="42.51857" lon="2.02181">
        <ele>1961.72</ele>
        <time>2021-10-20T22:00:16Z</time>
      </trkpt>
      <trkpt lat="42.51855" lon="2.02198">
        <ele>1962.7</ele>
        <time>2021-10-20T22:00:16Z</time>
      </trkpt>
      <trkpt lat="42.5185" lon="2.02221">
        <ele>1963.25</ele>
        <time>2021-10-20T22:00:16Z</time>
      </trkpt>
      <trkpt lat="42.51847" lon="2.02233">
        <ele>1963.12</ele>
        <time>2021-10-20T22:00:16Z</time>
      </trkpt>
      <trkpt lat="42.51839" lon="2.02255">
        <ele>1962.24</ele>
        <time>2021-10-20T22:00:16Z</time>
      </trkpt>
      <trkpt lat="42.51837" lon="2.02271">
        <ele>1962.67</ele>
        <time>2021-10-20T22:00:16Z</time>
      </trkpt>
      <trkpt lat="42.51833" lon="2.02288">
        <ele>1962.56</ele>
        <time>2021-10-20T22:00:16Z</time>
      </trkpt>
      <trkpt lat="42.51829" lon="2.02303">
        <ele>1961.84</ele>
        <time>2021-10-20T22:00:16Z</time>
      </trkpt>
      <trkpt lat="42.51828" lon="2.02325">
        <ele>1962.08</ele>
        <time>2021-10-20T22:00:16Z</time>
      </trkpt>
      <trkpt lat="42.51825" lon="2.0234">
        <ele>1961.69</ele>
        <time>2021-10-20T22:00:16Z</time>
      </trkpt>
      <trkpt lat="42.51824" lon="2.02361">
        <ele>1961.83</ele>
        <time>2021-10-20T22:00:16Z</time>
      </trkpt>
      <trkpt lat="42.51821" lon="2.02372">
        <ele>1961.2</ele>
        <time>2021-10-20T22:00:16Z</time>
      </trkpt>
      <trkpt lat="42.5182" lon="2.02389">
        <ele>1961.06</ele>
        <time>2021-10-20T22:00:16Z</time>
      </trkpt>
      <trkpt lat="42.51818" lon="2.02409">
        <ele>1960.73</ele>
        <time>2021-10-20T22:00:16Z</time>
      </trkpt>
      <trkpt lat="42.51813" lon="2.02441">
        <ele>1959.31</ele>
        <time>2021-10-20T22:00:16Z</time>
      </trkpt>
      <trkpt lat="42.5182" lon="2.02454">
        <ele>1960.31</ele>
        <time>2021-10-20T22:00:16Z</time>
      </trkpt>
      <trkpt lat="42.51825" lon="2.02482">
        <ele>1960.24</ele>
        <time>2021-10-20T22:00:16Z</time>
      </trkpt>
      <trkpt lat="42.51809" lon="2.02494">
        <ele>1957.46</ele>
        <time>2021-10-20T22:00:16Z</time>
      </trkpt>
      <trkpt lat="42.51803" lon="2.02503">
        <ele>1956.23</ele>
        <time>2021-10-20T22:00:16Z</time>
      </trkpt>
      <trkpt lat="42.51793" lon="2.02513">
        <ele>1954.58</ele>
        <time>2021-10-20T22:00:16Z</time>
      </trkpt>
      <trkpt lat="42.51754" lon="2.02526">
        <ele>1949.74</ele>
        <time>2021-10-20T22:00:16Z</time>
      </trkpt>
      <trkpt lat="42.51734" lon="2.02526">
        <ele>1947.41</ele>
        <time>2021-10-20T22:00:16Z</time>
      </trkpt>
      <trkpt lat="42.51716" lon="2.02531">
        <ele>1945.5</ele>
        <time>2021-10-20T22:00:16Z</time>
      </trkpt>
      <trkpt lat="42.51707" lon="2.02539">
        <ele>1944.81</ele>
        <time>2021-10-20T22:00:16Z</time>
      </trkpt>
      <trkpt lat="42.51681" lon="2.02578">
        <ele>1942.95</ele>
        <time>2021-10-20T22:00:16Z</time>
      </trkpt>
      <trkpt lat="42.51661" lon="2.02605">
        <ele>1941.32</ele>
        <time>2021-10-20T22:00:16Z</time>
      </trkpt>
      <trkpt lat="42.51651" lon="2.02616">
        <ele>1940.61</ele>
        <time>2021-10-20T22:00:16Z</time>
      </trkpt>
      <trkpt lat="42.51621" lon="2.0267">
        <ele>1937.61</ele>
        <time>2021-10-20T22:00:16Z</time>
      </trkpt>
      <trkpt lat="42.51615" lon="2.0268">
        <ele>1936.78</ele>
        <time>2021-10-20T22:00:16Z</time>
      </trkpt>
      <trkpt lat="42.51602" lon="2.02706">
        <ele>1934.88</ele>
        <time>2021-10-20T22:00:16Z</time>
      </trkpt>
      <trkpt lat="42.51601" lon="2.02725">
        <ele>1934.76</ele>
        <time>2021-10-20T22:00:16Z</time>
      </trkpt>
      <trkpt lat="42.51603" lon="2.0274">
        <ele>1935.07</ele>
        <time>2021-10-20T22:00:16Z</time>
      </trkpt>
      <trkpt lat="42.51606" lon="2.02755">
        <ele>1935.5</ele>
        <time>2021-10-20T22:00:16Z</time>
      </trkpt>
      <trkpt lat="42.51612" lon="2.0277">
        <ele>1936.22</ele>
        <time>2021-10-20T22:00:16Z</time>
      </trkpt>
      <trkpt lat="42.51616" lon="2.02784">
        <ele>1936.41</ele>
        <time>2021-10-20T22:00:16Z</time>
      </trkpt>
      <trkpt lat="42.51621" lon="2.02799">
        <ele>1936.58</ele>
        <time>2021-10-20T22:00:16Z</time>
      </trkpt>
      <trkpt lat="42.5163" lon="2.02814">
        <ele>1936.99</ele>
        <time>2021-10-20T22:00:16Z</time>
      </trkpt>
      <trkpt lat="42.51638" lon="2.02827">
        <ele>1937.17</ele>
        <time>2021-10-20T22:00:16Z</time>
      </trkpt>
      <trkpt lat="42.51644" lon="2.02851">
        <ele>1935.57</ele>
        <time>2021-10-20T22:00:16Z</time>
      </trkpt>
      <trkpt lat="42.51659" lon="2.02868">
        <ele>1933.98</ele>
        <time>2021-10-20T22:00:16Z</time>
      </trkpt>
      <trkpt lat="42.51668" lon="2.02874">
        <ele>1933.42</ele>
        <time>2021-10-20T22:00:16Z</time>
      </trkpt>
      <trkpt lat="42.51681" lon="2.02876">
        <ele>1933.19</ele>
        <time>2021-10-20T22:00:16Z</time>
      </trkpt>
      <trkpt lat="42.51697" lon="2.02883">
        <ele>1932.56</ele>
        <time>2021-10-20T22:00:16Z</time>
      </trkpt>
      <trkpt lat="42.51707" lon="2.02887">
        <ele>1932.23</ele>
        <time>2021-10-20T22:00:16Z</time>
      </trkpt>
      <trkpt lat="42.51723" lon="2.02894">
        <ele>1931.86</ele>
        <time>2021-10-20T22:00:16Z</time>
      </trkpt>
      <trkpt lat="42.51731" lon="2.02906">
        <ele>1931.23</ele>
        <time>2021-10-20T22:00:16Z</time>
      </trkpt>
      <trkpt lat="42.51743" lon="2.02925">
        <ele>1930.87</ele>
        <time>2021-10-20T22:00:16Z</time>
      </trkpt>
      <trkpt lat="42.51751" lon="2.02931">
        <ele>1931</ele>
        <time>2021-10-20T22:00:16Z</time>
      </trkpt>
      <trkpt lat="42.51762" lon="2.0295">
        <ele>1931.16</ele>
        <time>2021-10-20T22:00:16Z</time>
      </trkpt>
      <trkpt lat="42.51765" lon="2.02965">
        <ele>1931.16</ele>
        <time>2021-10-20T22:00:16Z</time>
      </trkpt>
      <trkpt lat="42.51769" lon="2.02979">
        <ele>1931.43</ele>
        <time>2021-10-20T22:00:16Z</time>
      </trkpt>
      <trkpt lat="42.51775" lon="2.02998">
        <ele>1932.14</ele>
        <time>2021-10-20T22:00:16Z</time>
      </trkpt>
      <trkpt lat="42.51782" lon="2.03012">
        <ele>1932.83</ele>
        <time>2021-10-20T22:00:16Z</time>
      </trkpt>
      <trkpt lat="42.51795" lon="2.03032">
        <ele>1933.88</ele>
        <time>2021-10-20T22:00:16Z</time>
      </trkpt>
      <trkpt lat="42.5181" lon="2.03052">
        <ele>1935.04</ele>
        <time>2021-10-20T22:00:16Z</time>
      </trkpt>
      <trkpt lat="42.51822" lon="2.03057">
        <ele>1935.82</ele>
        <time>2021-10-20T22:00:16Z</time>
      </trkpt>
      <trkpt lat="42.51843" lon="2.03065">
        <ele>1937.16</ele>
        <time>2021-10-20T22:00:16Z</time>
      </trkpt>
      <trkpt lat="42.51844" lon="2.03077">
        <ele>1937.39</ele>
        <time>2021-10-20T22:00:16Z</time>
      </trkpt>
      <trkpt lat="42.51846" lon="2.03097">
        <ele>1937.8</ele>
        <time>2021-10-20T22:00:16Z</time>
      </trkpt>
      <trkpt lat="42.51846" lon="2.03117">
        <ele>1937.77</ele>
        <time>2021-10-20T22:00:16Z</time>
      </trkpt>
      <trkpt lat="42.51845" lon="2.0313">
        <ele>1937.33</ele>
        <time>2021-10-20T22:00:16Z</time>
      </trkpt>
      <trkpt lat="42.51843" lon="2.03146">
        <ele>1936.73</ele>
        <time>2021-10-20T22:00:16Z</time>
      </trkpt>
      <trkpt lat="42.51838" lon="2.03169">
        <ele>1935.69</ele>
        <time>2021-10-20T22:00:16Z</time>
      </trkpt>
      <trkpt lat="42.51836" lon="2.03184">
        <ele>1934.82</ele>
        <time>2021-10-20T22:00:16Z</time>
      </trkpt>
      <trkpt lat="42.51832" lon="2.03199">
        <ele>1933.33</ele>
        <time>2021-10-20T22:00:16Z</time>
      </trkpt>
      <trkpt lat="42.51824" lon="2.03218">
        <ele>1931.12</ele>
        <time>2021-10-20T22:00:16Z</time>
      </trkpt>
      <trkpt lat="42.51815" lon="2.03235">
        <ele>1928.85</ele>
        <time>2021-10-20T22:00:16Z</time>
      </trkpt>
      <trkpt lat="42.51807" lon="2.03245">
        <ele>1927.18</ele>
        <time>2021-10-20T22:00:16Z</time>
      </trkpt>
      <trkpt lat="42.51796" lon="2.03257">
        <ele>1925.95</ele>
        <time>2021-10-20T22:00:16Z</time>
      </trkpt>
      <trkpt lat="42.51785" lon="2.03274">
        <ele>1924.83</ele>
        <time>2021-10-20T22:00:16Z</time>
      </trkpt>
      <trkpt lat="42.51777" lon="2.03285">
        <ele>1923.89</ele>
        <time>2021-10-20T22:00:16Z</time>
      </trkpt>
      <trkpt lat="42.51759" lon="2.03301">
        <ele>1920.8</ele>
        <time>2021-10-20T22:00:16Z</time>
      </trkpt>
      <trkpt lat="42.51755" lon="2.03312">
        <ele>1920.06</ele>
        <time>2021-10-20T22:00:16Z</time>
      </trkpt>
      <trkpt lat="42.51744" lon="2.03331">
        <ele>1918.12</ele>
        <time>2021-10-20T22:00:16Z</time>
      </trkpt>
      <trkpt lat="42.51725" lon="2.03344">
        <ele>1914.58</ele>
        <time>2021-10-20T22:00:16Z</time>
      </trkpt>
      <trkpt lat="42.51713" lon="2.03354">
        <ele>1912.21</ele>
        <time>2021-10-20T22:00:16Z</time>
      </trkpt>
      <trkpt lat="42.51695" lon="2.03386">
        <ele>1908.21</ele>
        <time>2021-10-20T22:00:16Z</time>
      </trkpt>
      <trkpt lat="42.51689" lon="2.03402">
        <ele>1907.62</ele>
        <time>2021-10-20T22:00:16Z</time>
      </trkpt>
      <trkpt lat="42.51693" lon="2.0339">
        <ele>1907.97</ele>
        <time>2021-10-20T22:00:16Z</time>
      </trkpt>
      <trkpt lat="42.51687" lon="2.03407">
        <ele>1907.4</ele>
        <time>2021-10-20T22:00:16Z</time>
      </trkpt>
      <trkpt lat="42.51684" lon="2.03419">
        <ele>1907.23</ele>
        <time>2021-10-20T22:00:16Z</time>
      </trkpt>
      <trkpt lat="42.51682" lon="2.03441">
        <ele>1907.65</ele>
        <time>2021-10-20T22:00:16Z</time>
      </trkpt>
      <trkpt lat="42.5168" lon="2.03455">
        <ele>1907.77</ele>
        <time>2021-10-20T22:00:16Z</time>
      </trkpt>
      <trkpt lat="42.51669" lon="2.03472">
        <ele>1906.21</ele>
        <time>2021-10-20T22:00:16Z</time>
      </trkpt>
      <trkpt lat="42.51648" lon="2.03494">
        <ele>1902.53</ele>
        <time>2021-10-20T22:00:16Z</time>
      </trkpt>
      <trkpt lat="42.5164" lon="2.03509">
        <ele>1901.36</ele>
        <time>2021-10-20T22:00:16Z</time>
      </trkpt>
      <trkpt lat="42.51627" lon="2.03527">
        <ele>1898.8</ele>
        <time>2021-10-20T22:00:16Z</time>
      </trkpt>
      <trkpt lat="42.51618" lon="2.03544">
        <ele>1897.34</ele>
        <time>2021-10-20T22:00:16Z</time>
      </trkpt>
      <trkpt lat="42.51609" lon="2.03558">
        <ele>1895.66</ele>
        <time>2021-10-20T22:00:16Z</time>
      </trkpt>
      <trkpt lat="42.51601" lon="2.03579">
        <ele>1894.55</ele>
        <time>2021-10-20T22:00:16Z</time>
      </trkpt>
      <trkpt lat="42.51592" lon="2.03602">
        <ele>1892.58</ele>
        <time>2021-10-20T22:00:16Z</time>
      </trkpt>
      <trkpt lat="42.51586" lon="2.03614">
        <ele>1890.9</ele>
        <time>2021-10-20T22:00:16Z</time>
      </trkpt>
      <trkpt lat="42.51573" lon="2.03599">
        <ele>1887.37</ele>
        <time>2021-10-20T22:00:16Z</time>
      </trkpt>
      <trkpt lat="42.51565" lon="2.03589">
        <ele>1885</ele>
        <time>2021-10-20T22:00:16Z</time>
      </trkpt>
      <trkpt lat="42.51553" lon="2.03604">
        <ele>1881.57</ele>
        <time>2021-10-20T22:00:16Z</time>
      </trkpt>
      <trkpt lat="42.51548" lon="2.0362">
        <ele>1880.11</ele>
        <time>2021-10-20T22:00:16Z</time>
      </trkpt>
      <trkpt lat="42.5154" lon="2.03643">
        <ele>1877.78</ele>
        <time>2021-10-20T22:00:16Z</time>
      </trkpt>
      <trkpt lat="42.51533" lon="2.03661">
        <ele>1875.74</ele>
        <time>2021-10-20T22:00:16Z</time>
      </trkpt>
      <trkpt lat="42.51527" lon="2.03675">
        <ele>1874.06</ele>
        <time>2021-10-20T22:00:16Z</time>
      </trkpt>
      <trkpt lat="42.51521" lon="2.03707">
        <ele>1872.58</ele>
        <time>2021-10-20T22:00:16Z</time>
      </trkpt>
      <trkpt lat="42.51522" lon="2.03726">
        <ele>1872.97</ele>
        <time>2021-10-20T22:00:16Z</time>
      </trkpt>
      <trkpt lat="42.51522" lon="2.03741">
        <ele>1872.93</ele>
        <time>2021-10-20T22:00:16Z</time>
      </trkpt>
      <trkpt lat="42.5152" lon="2.03754">
        <ele>1872.36</ele>
        <time>2021-10-20T22:00:16Z</time>
      </trkpt>
      <trkpt lat="42.51512" lon="2.03764">
        <ele>1870.29</ele>
        <time>2021-10-20T22:00:16Z</time>
      </trkpt>
      <trkpt lat="42.515" lon="2.0375">
        <ele>1867.51</ele>
        <time>2021-10-20T22:00:16Z</time>
      </trkpt>
      <trkpt lat="42.51486" lon="2.0376">
        <ele>1865.26</ele>
        <time>2021-10-20T22:00:16Z</time>
      </trkpt>
      <trkpt lat="42.5148" lon="2.03771">
        <ele>1864.4</ele>
        <time>2021-10-20T22:00:16Z</time>
      </trkpt>
      <trkpt lat="42.51471" lon="2.03784">
        <ele>1863.17</ele>
        <time>2021-10-20T22:00:16Z</time>
      </trkpt>
      <trkpt lat="42.51463" lon="2.03794">
        <ele>1862.14</ele>
        <time>2021-10-20T22:00:16Z</time>
      </trkpt>
      <trkpt lat="42.51449" lon="2.03806">
        <ele>1860.11</ele>
        <time>2021-10-20T22:00:16Z</time>
      </trkpt>
      <trkpt lat="42.5144" lon="2.03819">
        <ele>1858.8</ele>
        <time>2021-10-20T22:00:16Z</time>
      </trkpt>
      <trkpt lat="42.5143" lon="2.03826">
        <ele>1857.59</ele>
        <time>2021-10-20T22:00:16Z</time>
      </trkpt>
      <trkpt lat="42.51417" lon="2.0383">
        <ele>1856.36</ele>
        <time>2021-10-20T22:00:16Z</time>
      </trkpt>
      <trkpt lat="42.51396" lon="2.03838">
        <ele>1854.43</ele>
        <time>2021-10-20T22:00:16Z</time>
      </trkpt>
      <trkpt lat="42.51372" lon="2.03847">
        <ele>1852.32</ele>
        <time>2021-10-20T22:00:16Z</time>
      </trkpt>
      <trkpt lat="42.51365" lon="2.03856">
        <ele>1851.8</ele>
        <time>2021-10-20T22:00:16Z</time>
      </trkpt>
      <trkpt lat="42.51357" lon="2.03863">
        <ele>1851.09</ele>
        <time>2021-10-20T22:00:16Z</time>
      </trkpt>
      <trkpt lat="42.51341" lon="2.03884">
        <ele>1849.49</ele>
        <time>2021-10-20T22:00:16Z</time>
      </trkpt>
      <trkpt lat="42.51332" lon="2.03894">
        <ele>1848.57</ele>
        <time>2021-10-20T22:00:16Z</time>
      </trkpt>
      <trkpt lat="42.5132" lon="2.03903">
        <ele>1847.34</ele>
        <time>2021-10-20T22:00:16Z</time>
      </trkpt>
      <trkpt lat="42.51308" lon="2.03914">
        <ele>1846.12</ele>
        <time>2021-10-20T22:00:16Z</time>
      </trkpt>
      <trkpt lat="42.51298" lon="2.03923">
        <ele>1845.1</ele>
        <time>2021-10-20T22:00:16Z</time>
      </trkpt>
      <trkpt lat="42.51289" lon="2.03936">
        <ele>1844.6</ele>
        <time>2021-10-20T22:00:16Z</time>
      </trkpt>
      <trkpt lat="42.51279" lon="2.03957">
        <ele>1844.54</ele>
        <time>2021-10-20T22:00:16Z</time>
      </trkpt>
      <trkpt lat="42.51275" lon="2.0397">
        <ele>1844.61</ele>
        <time>2021-10-20T22:00:16Z</time>
      </trkpt>
      <trkpt lat="42.51273" lon="2.03983">
        <ele>1844.79</ele>
        <time>2021-10-20T22:00:16Z</time>
      </trkpt>
      <trkpt lat="42.51273" lon="2.03999">
        <ele>1845.17</ele>
        <time>2021-10-20T22:00:16Z</time>
      </trkpt>
      <trkpt lat="42.51273" lon="2.04013">
        <ele>1845.11</ele>
        <time>2021-10-20T22:00:16Z</time>
      </trkpt>
      <trkpt lat="42.51269" lon="2.04027">
        <ele>1844.68</ele>
        <time>2021-10-20T22:00:16Z</time>
      </trkpt>
      <trkpt lat="42.51251" lon="2.04033">
        <ele>1843.65</ele>
        <time>2021-10-20T22:00:16Z</time>
      </trkpt>
      <trkpt lat="42.51236" lon="2.04037">
        <ele>1842.89</ele>
        <time>2021-10-20T22:00:16Z</time>
      </trkpt>
      <trkpt lat="42.51224" lon="2.04039">
        <ele>1842.66</ele>
        <time>2021-10-20T22:00:16Z</time>
      </trkpt>
      <trkpt lat="42.51211" lon="2.04041">
        <ele>1843.07</ele>
        <time>2021-10-20T22:00:16Z</time>
      </trkpt>
      <trkpt lat="42.51199" lon="2.04043">
        <ele>1843.45</ele>
        <time>2021-10-20T22:00:16Z</time>
      </trkpt>
      <trkpt lat="42.51187" lon="2.04046">
        <ele>1843.84</ele>
        <time>2021-10-20T22:00:16Z</time>
      </trkpt>
      <trkpt lat="42.51167" lon="2.04044">
        <ele>1844.39</ele>
        <time>2021-10-20T22:00:16Z</time>
      </trkpt>
      <trkpt lat="42.51157" lon="2.04054">
        <ele>1845.13</ele>
        <time>2021-10-20T22:00:16Z</time>
      </trkpt>
      <trkpt lat="42.51151" lon="2.04068">
        <ele>1846.21</ele>
        <time>2021-10-20T22:00:16Z</time>
      </trkpt>
      <trkpt lat="42.51139" lon="2.04081">
        <ele>1848.21</ele>
        <time>2021-10-20T22:00:16Z</time>
      </trkpt>
      <trkpt lat="42.51133" lon="2.04101">
        <ele>1849.42</ele>
        <time>2021-10-20T22:00:16Z</time>
      </trkpt>
      <trkpt lat="42.51128" lon="2.04114">
        <ele>1850.29</ele>
        <time>2021-10-20T22:00:16Z</time>
      </trkpt>
      <trkpt lat="42.5112" lon="2.04133">
        <ele>1851.54</ele>
        <time>2021-10-20T22:00:16Z</time>
      </trkpt>
      <trkpt lat="42.51114" lon="2.0415">
        <ele>1852.72</ele>
        <time>2021-10-20T22:00:16Z</time>
      </trkpt>
      <trkpt lat="42.51106" lon="2.04166">
        <ele>1854.32</ele>
        <time>2021-10-20T22:00:16Z</time>
      </trkpt>
      <trkpt lat="42.51098" lon="2.04196">
        <ele>1856.56</ele>
        <time>2021-10-20T22:00:16Z</time>
      </trkpt>
      <trkpt lat="42.51095" lon="2.04214">
        <ele>1857.64</ele>
        <time>2021-10-20T22:00:16Z</time>
      </trkpt>
      <trkpt lat="42.51081" lon="2.04229">
        <ele>1857.97</ele>
        <time>2021-10-20T22:00:16Z</time>
      </trkpt>
      <trkpt lat="42.51073" lon="2.04235">
        <ele>1857.63</ele>
        <time>2021-10-20T22:00:16Z</time>
      </trkpt>
      <trkpt lat="42.51071" lon="2.0425">
        <ele>1857.87</ele>
        <time>2021-10-20T22:00:16Z</time>
      </trkpt>
      <trkpt lat="42.5107" lon="2.04271">
        <ele>1858.32</ele>
        <time>2021-10-20T22:00:16Z</time>
      </trkpt>
      <trkpt lat="42.51067" lon="2.04283">
        <ele>1858.05</ele>
        <time>2021-10-20T22:00:16Z</time>
      </trkpt>
      <trkpt lat="42.51052" lon="2.04295">
        <ele>1856.49</ele>
        <time>2021-10-20T22:00:16Z</time>
      </trkpt>
      <trkpt lat="42.5104" lon="2.04298">
        <ele>1855.45</ele>
        <time>2021-10-20T22:00:16Z</time>
      </trkpt>
      <trkpt lat="42.51005" lon="2.04296">
        <ele>1851.65</ele>
        <time>2021-10-20T22:00:16Z</time>
      </trkpt>
      <trkpt lat="42.50992" lon="2.04302">
        <ele>1849.49</ele>
        <time>2021-10-20T22:00:16Z</time>
      </trkpt>
      <trkpt lat="42.50982" lon="2.04304">
        <ele>1847.95</ele>
        <time>2021-10-20T22:00:16Z</time>
      </trkpt>
      <trkpt lat="42.50971" lon="2.04302">
        <ele>1846.43</ele>
        <time>2021-10-20T22:00:16Z</time>
      </trkpt>
      <trkpt lat="42.50959" lon="2.04301">
        <ele>1844.73</ele>
        <time>2021-10-20T22:00:16Z</time>
      </trkpt>
      <trkpt lat="42.50933" lon="2.04297">
        <ele>1840.69</ele>
        <time>2021-10-20T22:00:16Z</time>
      </trkpt>
      <trkpt lat="42.50918" lon="2.04294">
        <ele>1838.28</ele>
        <time>2021-10-20T22:00:16Z</time>
      </trkpt>
      <trkpt lat="42.50903" lon="2.04294">
        <ele>1835.77</ele>
        <time>2021-10-20T22:00:16Z</time>
      </trkpt>
      <trkpt lat="42.50886" lon="2.04293">
        <ele>1832.93</ele>
        <time>2021-10-20T22:00:16Z</time>
      </trkpt>
      <trkpt lat="42.50871" lon="2.04295">
        <ele>1830.34</ele>
        <time>2021-10-20T22:00:16Z</time>
      </trkpt>
      <trkpt lat="42.50854" lon="2.04295">
        <ele>1827.44</ele>
        <time>2021-10-20T22:00:16Z</time>
      </trkpt>
      <trkpt lat="42.50839" lon="2.04295">
        <ele>1824.87</ele>
        <time>2021-10-20T22:00:16Z</time>
      </trkpt>
      <trkpt lat="42.50822" lon="2.04294">
        <ele>1821.97</ele>
        <time>2021-10-20T22:00:16Z</time>
      </trkpt>
      <trkpt lat="42.50809" lon="2.04294">
        <ele>1819.74</ele>
        <time>2021-10-20T22:00:16Z</time>
      </trkpt>
      <trkpt lat="42.50799" lon="2.04294">
        <ele>1818.03</ele>
        <time>2021-10-20T22:00:16Z</time>
      </trkpt>
      <trkpt lat="42.50784" lon="2.04294">
        <ele>1815.47</ele>
        <time>2021-10-20T22:00:16Z</time>
      </trkpt>
      <trkpt lat="42.50773" lon="2.04281">
        <ele>1813.95</ele>
        <time>2021-10-20T22:00:16Z</time>
      </trkpt>
      <trkpt lat="42.50767" lon="2.04267">
        <ele>1812.97</ele>
        <time>2021-10-20T22:00:16Z</time>
      </trkpt>
      <trkpt lat="42.50762" lon="2.04256">
        <ele>1812.1</ele>
        <time>2021-10-20T22:00:16Z</time>
      </trkpt>
      <trkpt lat="42.50753" lon="2.04242">
        <ele>1810.73</ele>
        <time>2021-10-20T22:00:16Z</time>
      </trkpt>
      <trkpt lat="42.50744" lon="2.04232">
        <ele>1809.45</ele>
        <time>2021-10-20T22:00:16Z</time>
      </trkpt>
      <trkpt lat="42.50736" lon="2.04223">
        <ele>1808.26</ele>
        <time>2021-10-20T22:00:16Z</time>
      </trkpt>
      <trkpt lat="42.50725" lon="2.04216">
        <ele>1806.66</ele>
        <time>2021-10-20T22:00:16Z</time>
      </trkpt>
      <trkpt lat="42.50714" lon="2.04214">
        <ele>1805.05</ele>
        <time>2021-10-20T22:00:16Z</time>
      </trkpt>
      <trkpt lat="42.50697" lon="2.04214">
        <ele>1802.56</ele>
        <time>2021-10-20T22:00:16Z</time>
      </trkpt>
      <trkpt lat="42.50682" lon="2.04212">
        <ele>1800.38</ele>
        <time>2021-10-20T22:00:16Z</time>
      </trkpt>
      <trkpt lat="42.50666" lon="2.0421">
        <ele>1796.76</ele>
        <time>2021-10-20T22:00:16Z</time>
      </trkpt>
      <trkpt lat="42.50636" lon="2.04145">
        <ele>1786.81</ele>
        <time>2021-10-20T22:00:16Z</time>
      </trkpt>
      <trkpt lat="42.50631" lon="2.04133">
        <ele>1785.17</ele>
        <time>2021-10-20T22:00:16Z</time>
      </trkpt>
      <trkpt lat="42.50625" lon="2.04113">
        <ele>1783.01</ele>
        <time>2021-10-20T22:00:16Z</time>
      </trkpt>
      <trkpt lat="42.50618" lon="2.04099">
        <ele>1781.15</ele>
        <time>2021-10-20T22:00:16Z</time>
      </trkpt>
      <trkpt lat="42.50594" lon="2.04055">
        <ele>1776.38</ele>
        <time>2021-10-20T22:00:16Z</time>
      </trkpt>
      <trkpt lat="42.50587" lon="2.04042">
        <ele>1775.34</ele>
        <time>2021-10-20T22:00:16Z</time>
      </trkpt>
      <trkpt lat="42.50578" lon="2.04027">
        <ele>1773.99</ele>
        <time>2021-10-20T22:00:16Z</time>
      </trkpt>
      <trkpt lat="42.50558" lon="2.04029">
        <ele>1770.46</ele>
        <time>2021-10-20T22:00:16Z</time>
      </trkpt>
      <trkpt lat="42.50556" lon="2.04057">
        <ele>1769.71</ele>
        <time>2021-10-20T22:00:16Z</time>
      </trkpt>
      <trkpt lat="42.5052" lon="2.04048">
        <ele>1762.91</ele>
        <time>2021-10-20T22:00:16Z</time>
      </trkpt>
      <trkpt lat="42.50505" lon="2.04094">
        <ele>1759.01</ele>
        <time>2021-10-20T22:00:16Z</time>
      </trkpt>
      <trkpt lat="42.50507" lon="2.04128">
        <ele>1758.68</ele>
        <time>2021-10-20T22:00:16Z</time>
      </trkpt>
      <trkpt lat="42.50509" lon="2.04145">
        <ele>1758.82</ele>
        <time>2021-10-20T22:00:16Z</time>
      </trkpt>
      <trkpt lat="42.50514" lon="2.04179">
        <ele>1759.72</ele>
        <time>2021-10-20T22:00:16Z</time>
      </trkpt>
      <trkpt lat="42.50516" lon="2.04192">
        <ele>1760.1</ele>
        <time>2021-10-20T22:00:16Z</time>
      </trkpt>
    </trkseg>
  </trk>
</gpx>